[[{"header":{"parameterUnit":"m.s-1","parameterCategory":1,"la1":30.6,"la2":28.766,"lo1":-90.7593,"lo2":-88.6598,"dy":0.0162,"dx":0.0183,"nx":116,"ny":114,"refTime":"2024-02-24T06:00:00:Z","depth":0,"parameterNumber":2,"parameterNumberName":"U-component_of_WINDS"},"data":[0.0,0.0,0.0,0.0,0.0,0.0,0.0,0.0,0.0,0.0,0.0,0.0,0.0,0.0,0.0,0.0,0.0,0.0,0.0,0.0,0.0,0.0,0.0,0.0,0.0,0.0,0.0,0.0,0.0,0.0,0.0,0.0,0.0,0.0,0.0,0.0,0.0,0.0,0.0,0.0,0.0,0.0,0.0,0.0,0.0,0.0,0.0,0.0,0.0,0.0,0.0,0.0,0.0,0.0,0.0,0.0,0.0,0.0,0.0,0.0,0.0,0.0,0.0,0.0,0.0,0.0,0.0,0.0,0.0,0.0,0.0,0.0,0.0,0.0,0.0,0.0,0.0,0.0,0.0,0.0,0.0,0.0,0.0,0.0,0.0,0.0,0.0,0.0,0.0,0.0,0.0,0.0,0.0,0.0,0.0,0.0,0.0,0.0,0.0,0.0,0.0,0.0,0.0,0.0,0.0,0.0,0.0,0.0,0.0,0.0,0.0,0.0,0.0,0.0,0.0,0.0,0.0,0.0,0.0,0.0,0.0,0.0,0.0,0.0,0.0,0.0,0.0,0.0,0.0,0.0,0.0,0.0,0.0,0.0,0.0,0.0,0.0,0.0,0.0,0.0,0.0,0.0,0.0,0.0,0.0,0.0,0.0,0.0,0.0,0.0,0.0,0.0,0.0,0.0,0.0,0.0,0.0,0.0,0.0,0.0,0.0,0.0,0.0,0.0,0.0,0.0,0.0,0.0,0.0,0.0,0.0,0.0,0.0,0.0,0.0,0.0,0.0,0.0,0.0,0.0,0.0,0.0,0.0,0.0,0.0,0.0,0.0,0.0,0.0,0.0,0.0,0.0,0.0,0.0,0.0,0.0,0.0,0.0,0.0,0.0,0.0,0.0,0.0,0.0,0.0,0.0,0.0,0.0,0.0,0.0,0.0,0.0,0.0,0.0,0.0,0.0,0.0,0.0,0.0,0.0,0.0,0.0,0.0,0.0,0.0,0.0,0.0,0.0,0.0,0.0,0.0,0.0,0.0,0.0,0.0,0.0,0.0,0.0,0.0,0.0,0.0,0.0,0.0,0.0,0.0,0.0,0.0,0.0,0.0,0.0,0.0,0.0,0.0,0.0,0.0,0.0,0.0,0.0,0.0,0.0,0.0,0.0,0.0,0.0,0.0,0.0,0.0,0.0,0.0,0.0,0.0,0.0,0.0,0.0,0.0,0.0,0.0,0.0,0.0,0.0,0.0,0.0,0.0,0.0,0.0,0.0,0.0,0.0,0.0,0.0,0.0,0.0,0.0,0.0,0.0,0.0,0.0,0.0,0.0,0.0,0.0,0.0,0.0,0.0,0.0,0.0,0.0,0.0,0.0,0.0,0.0,0.0,0.0,0.0,0.0,0.0,0.0,0.0,0.0,0.0,0.0,0.0,0.0,0.0,0.0,0.0,0.0,0.0,0.0,0.0,0.0,0.0,0.0,0.0,0.0,0.0,0.0,0.0,0.0,0.0,0.0,0.0,0.0,0.0,0.0,0.0,0.0,0.0,0.0,0.0,0.0,0.0,0.0,0.0,0.0,0.0,0.0,0.0,0.0,0.0,0.0,0.0,0.0,0.0,0.0,0.0,0.0,0.0,0.0,0.0,0.0,0.0,0.0,0.0,0.0,0.0,0.0,0.0,0.0,0.0,0.0,0.0,0.0,0.0,0.0,0.0,0.0,0.0,0.0,0.0,0.0,0.0,0.0,0.0,0.0,0.0,0.0,0.0,0.0,0.0,0.0,0.0,0.0,0.0,0.0,0.0,0.0,0.0,0.0,0.0,0.0,0.0,0.0,0.0,0.0,0.0,0.0,0.0,0.0,0.0,0.0,0.0,0.0,0.0,0.0,0.0,0.0,0.0,0.0,0.0,0.0,0.0,0.0,0.0,0.0,0.0,0.0,0.0,0.0,0.0,0.0,0.0,0.0,0.0,0.0,0.0,0.0,0.0,0.0,0.0,0.0,0.0,0.0,0.0,0.0,0.0,0.0,0.0,0.0,0.0,0.0,0.0,0.0,0.0,0.0,0.0,0.0,0.0,0.0,0.0,0.0,0.0,0.0,0.0,0.0,0.0,0.0,0.0,0.0,0.0,0.0,0.0,0.0,0.0,0.0,0.0,0.0,0.0,0.0,0.0,0.0,0.0,0.0,0.0,0.0,0.0,0.0,0.0,0.0,0.0,0.0,0.0,0.0,0.0,0.0,0.0,0.0,0.0,0.0,0.0,0.0,0.0,0.0,0.0,0.0,0.0,0.0,0.0,0.0,0.0,0.0,0.0,0.0,0.0,0.0,0.0,0.0,0.0,0.0,0.0,0.0,0.0,0.0,0.0,0.0,0.0,0.0,0.0,0.0,0.0,0.0,0.0,0.0,0.0,0.0,0.0,0.0,0.0,0.0,0.0,0.0,0.0,0.0,0.0,0.0,0.0,0.0,0.0,0.0,0.0,0.0,0.0,0.0,0.0,0.0,0.0,0.0,0.0,0.0,0.0,0.0,0.0,0.0,0.0,0.0,0.0,0.0,0.0,0.0,0.0,0.0,0.0,0.0,0.0,0.0,0.0,0.0,0.0,0.0,0.0,0.0,0.0,0.0,0.0,0.0,0.0,0.0,0.0,0.0,0.0,0.0,0.0,0.0,0.0,0.0,0.0,0.0,0.0,0.0,0.0,0.0,0.0,0.0,0.0,0.0,0.0,0.0,0.0,0.0,0.0,0.0,0.0,0.0,0.0,0.0,0.0,0.0,0.0,0.0,0.0,0.0,0.0,0.0,0.0,0.0,0.0,0.0,0.0,0.0,0.0,0.0,0.0,0.0,0.0,0.0,0.0,0.0,0.0,0.0,0.0,0.0,0.0,0.0,0.0,0.0,0.0,0.0,0.0,0.0,0.0,0.0,0.0,0.0,0.0,0.0,0.0,0.0,0.0,0.0,0.0,0.0,0.0,0.0,0.0,0.0,0.0,0.0,0.0,0.0,0.0,0.0,0.0,0.0,0.0,0.0,0.0,0.0,0.0,0.0,0.0,0.0,0.0,0.0,0.0,0.0,0.0,0.0,0.0,0.0,0.0,0.0,0.0,0.0,0.0,0.0,0.0,0.0,0.0,0.0,0.0,0.0,0.0,0.0,0.0,0.0,0.0,0.0,0.0,0.0,0.0,0.0,0.0,0.0,0.0,0.0,0.0,0.0,0.0,0.0,0.0,0.0,0.0,0.0,0.0,0.0,0.0,0.0,0.0,0.0,0.0,0.0,0.0,0.0,0.0,0.0,0.0,0.0,0.0,0.0,0.0,0.0,0.0,0.0,0.0,0.0,0.0,0.0,0.0,0.0,0.0,0.0,0.0,0.0,0.0,0.0,0.0,0.0,0.0,0.0,0.0,0.0,0.0,0.0,0.0,0.0,0.0,0.0,0.0,0.0,0.0,0.0,0.0,0.0,0.0,0.0,0.0,0.0,0.0,0.0,0.0,0.0,0.0,0.0,0.0,0.0,0.0,0.0,0.0,0.0,0.0,0.0,0.0,0.0,0.0,0.0,0.0,0.0,0.0,0.0,0.0,0.0,0.0,0.0,0.0,0.0,0.0,0.0,0.0,0.0,0.0,0.0,0.0,0.0,0.0,0.0,0.0,0.0,0.0,0.0,0.0,0.0,0.0,0.0,0.0,0.0,0.0,0.0,0.0,0.0,0.0,0.0,0.0,0.0,0.0,0.0,0.0,0.0,0.0,0.0,0.0,0.0,0.0,0.0,0.0,0.0,0.0,0.0,0.0,0.0,0.0,0.0,0.0,0.0,0.0,0.0,0.0,0.0,0.0,0.0,0.0,0.0,0.0,0.0,0.0,0.0,0.0,0.0,0.0,0.0,0.0,0.0,0.0,0.0,0.0,0.0,0.0,0.0,0.0,0.0,0.0,0.0,0.0,0.0,0.0,0.0,0.0,0.0,0.0,0.0,0.0,0.0,0.0,0.0,0.0,0.0,0.0,0.0,0.0,0.0,0.0,0.0,0.0,0.0,0.0,0.0,0.0,0.0,0.0,0.0,0.0,0.0,0.0,0.0,0.0,0.0,0.0,0.0,0.0,0.0,0.0,0.0,0.0,0.0,0.0,0.0,0.0,0.0,0.0,0.0,0.0,0.0,0.0,0.0,0.0,0.0,0.0,0.0,0.0,0.0,0.0,0.0,0.0,0.0,0.0,0.0,0.0,0.0,0.0,0.0,0.0,0.0,0.0,0.0,0.0,0.0,0.0,0.0,0.0,0.0,0.0,0.0,0.0,0.0,0.0,0.0,0.0,0.0,0.0,0.0,0.0,0.0,0.0,0.0,0.0,0.0,0.0,0.0,0.0,0.0,0.0,0.0,0.0,0.0,0.0,0.0,0.0,0.0,0.0,0.0,0.0,0.0,0.0,0.0,0.0,0.0,0.0,0.0,0.0,0.0,0.0,0.0,0.0,0.0,0.0,0.0,0.0,0.0,0.0,0.0,0.0,0.0,0.0,0.0,0.0,0.0,0.0,0.0,0.0,0.0,0.0,0.0,0.0,0.0,0.0,0.0,0.0,0.0,0.0,0.0,0.0,0.0,0.0,0.0,0.0,0.0,0.0,0.0,0.0,0.0,0.0,0.0,0.0,0.0,0.0,0.0,0.0,0.0,0.0,0.0,0.0,0.0,0.0,0.0,0.0,0.0,0.0,0.0,0.0,0.0,0.0,0.0,0.0,0.0,0.0,0.0,0.0,0.0,0.0,0.0,0.0,0.0,0.0,0.0,0.0,0.0,0.0,0.0,0.0,0.0,0.0,0.0,0.0,0.0,0.0,0.0,0.0,0.0,0.0,0.0,0.0,0.0,0.0,0.0,0.0,0.0,0.0,0.0,0.0,0.0,0.0,0.0,0.0,0.0,0.0,0.0,0.0,0.0,0.0,0.0,0.0,0.0,0.0,0.0,0.0,0.0,0.0,0.0,0.0,0.0,0.0,0.0,0.0,0.0,0.0,0.0,0.0,0.0,0.0,0.0,0.0,0.0,0.0,0.0,0.0,0.0,0.0,0.0,0.0,0.0,0.0,0.0,0.0,0.0,0.0,0.0,0.0,0.0,0.0,0.0,0.0,0.0,0.0,0.0,0.0,0.0,0.0,0.0,0.0,0.0,0.0,0.0,0.0,0.0,0.0,0.0,0.0,0.0,0.0,0.0,0.0,0.0,0.0,0.0,0.0,0.0,0.0,0.0,0.0,0.0,0.0,0.0,0.0,0.0,0.0,0.0,0.0,0.0,0.0,0.0,0.0,0.0,0.0,0.0,0.0,0.0,0.0,0.0,0.0,0.0,0.0,0.0,0.0,0.0,0.0,0.0,0.0,0.0,0.0,0.0,0.0,0.0,0.0,0.0,0.0,0.0,0.0,0.0,0.0,0.0,0.0,0.0,0.0,0.0,0.0,0.0,0.0,0.0,0.0,0.0,0.0,0.0,0.0,0.0,0.0,0.0,0.0,0.0,0.0,0.0,0.0,0.0,0.0,0.0,0.0,0.0,0.0,0.0,0.0,0.0,0.0,0.0,0.0,0.0,0.0,0.0,0.0,0.0,0.0,0.0,0.0,0.0,0.0,0.0,0.0,0.0,0.0,0.0,0.0,0.0,0.0,0.0,0.0,0.0,0.0,0.0,0.0,0.0,0.0,0.0,0.0,0.0,0.0,0.0,0.0,0.0,0.0,0.0,0.0,0.0,0.0,0.0,0.0,0.0,0.0,0.0,0.0,0.0,0.0,0.0,0.0,0.0,0.0,0.0,0.0,0.0,0.0,0.0,0.0,0.0,0.0,0.0,0.0,0.0,0.0,0.0,0.0,0.0,0.0,0.0,0.0,0.0,0.0,0.0,0.0,0.0,0.0,0.0,0.0,0.0,0.0,0.0,0.0,0.0,0.0,0.0,0.0,0.0,0.0,0.0,0.0,0.0,0.0,0.0,0.0,0.0,0.0,0.0,0.0,0.0,0.0,0.0,0.0,0.0,0.0,0.0,0.0,0.0,0.0,0.0,0.0,0.0,0.0,0.0,0.0,0.0,0.0,0.0,0.0,0.0,0.0,-2.7392,-2.765,0.0,0.0,0.0,0.0,0.0,0.0,0.0,0.0,0.0,0.0,0.0,0.0,0.0,0.0,0.0,0.0,0.0,0.0,0.0,0.0,0.0,0.0,0.0,0.0,0.0,0.0,4.3979,4.3899,4.3642,4.3259,4.3039,4.2833,4.2262,4.198,4.2177,4.2065,4.2248,4.2652,4.2431,4.1985,4.1439,4.1551,4.207,4.2792,0.0,0.0,0.0,0.0,0.0,0.0,0.0,0.0,0.0,0.0,0.0,0.0,0.0,0.0,0.0,0.0,0.0,0.0,0.0,0.0,0.0,0.0,0.0,0.0,0.0,0.0,0.0,0.0,0.0,0.0,0.0,0.0,0.0,0.0,0.0,0.0,0.0,0.0,0.0,0.0,0.0,0.0,0.0,0.0,0.0,0.0,0.0,0.0,0.0,0.0,0.0,0.0,0.0,0.0,0.0,0.0,0.0,0.0,0.0,0.0,0.0,0.0,0.0,0.0,0.0,0.0,0.0,0.0,0.0,0.0,-2.825,-2.8148,0.0,0.0,0.0,0.0,0.0,0.0,0.0,0.0,0.0,0.0,0.0,0.0,0.0,0.0,0.0,0.0,0.0,0.0,0.0,0.0,0.0,0.0,0.0,4.3776,4.3505,4.2929,4.2929,4.2846,4.2693,4.24,4.2204,4.2079,4.1498,4.1198,4.1272,4.1172,4.1172,4.1385,4.0718,3.9956,3.8901,3.8392,3.9096,4.0954,4.0792,0.0,0.0,0.0,0.0,0.0,0.0,0.0,0.0,0.0,0.0,0.0,0.0,0.0,0.0,0.0,0.0,0.0,0.0,0.0,0.0,0.0,0.0,0.0,0.0,0.0,0.0,0.0,0.0,0.0,0.0,0.0,0.0,0.0,0.0,0.0,0.0,0.0,0.0,0.0,0.0,0.0,0.0,0.0,0.0,0.0,0.0,0.0,0.0,0.0,0.0,0.0,0.0,0.0,0.0,0.0,0.0,0.0,0.0,0.0,0.0,0.0,0.0,0.0,-3.0713,-3.0616,-3.0499,-3.0157,-2.9804,-2.9568,-2.8865,-2.8636,-2.8636,-2.8865,0.0,0.0,0.0,0.0,0.0,0.0,0.0,0.0,0.0,0.0,0.0,0.0,0.0,0.0,0.0,0.0,0.0,0.0,0.0,0.0,0.0,4.2471,4.2275,4.1881,4.167,4.167,4.1895,4.161,4.1511,4.1696,4.101,4.0694,4.0984,4.0478,4.016,3.9917,3.8287,3.7228,3.6642,3.6111,3.61,3.663,3.8101,3.873,3.873,0.0,0.0,0.0,0.0,0.0,0.0,0.0,0.0,0.0,0.0,0.0,0.0,0.0,0.0,0.0,0.0,0.0,0.0,0.0,0.0,0.0,0.0,0.0,0.0,0.0,0.0,0.0,0.0,0.0,0.0,0.0,0.0,0.0,0.0,0.0,0.0,0.0,0.0,0.0,0.0,0.0,-1.8693,-2.0193,0.0,0.0,0.0,0.0,0.0,0.0,0.0,0.0,0.0,0.0,0.0,0.0,0.0,-3.1585,-3.2054,-3.2468,-3.2633,-3.2332,-3.1893,-3.1441,-3.1208,-3.0274,-2.9922,-2.9804,-2.9222,0.0,-2.8984,-2.8984,0.0,0.0,0.0,0.0,0.0,0.0,0.0,0.0,0.0,0.0,0.0,0.0,0.0,0.0,0.0,0.0,0.0,0.0,0.0,0.0,0.0,4.1498,4.1097,4.0782,4.0593,4.0478,4.0782,4.0795,4.0909,4.0997,4.0707,4.0402,4.0198,3.9556,3.8594,3.7489,3.6522,3.5783,3.5058,3.4613,3.4502,3.4602,3.5344,3.61,3.6858,3.675,0.0,0.0,0.0,0.0,0.0,0.0,0.0,0.0,0.0,0.0,0.0,0.0,0.0,0.0,0.0,0.0,0.0,0.0,0.0,0.0,0.0,0.0,0.0,0.0,0.0,0.0,0.0,0.0,0.0,0.0,0.0,0.0,0.0,0.0,0.0,0.0,0.0,0.0,0.0,-1.9183,-2.113,-2.25,-2.2854,-2.2974,0.0,0.0,0.0,0.0,0.0,0.0,0.0,0.0,0.0,-3.1195,-3.2671,-3.3725,-3.4213,-3.4336,-3.4134,-3.3501,-3.2467,-3.1777,-3.1208,-3.0274,-2.9804,-2.9686,-2.945,-2.9213,-2.8984,-2.8984,-2.8984,-2.8984,0.0,0.0,0.0,0.0,-2.8984,-2.8984,0.0,0.0,0.0,0.0,0.0,0.0,0.0,0.0,0.0,0.0,0.0,0.0,4.0883,4.0377,3.9968,3.9659,3.9465,3.9362,3.9762,3.9968,4.0287,4.0389,4.03,4.0096,3.9581,3.8396,3.7,3.5576,3.5046,3.4513,3.3872,3.3523,3.3399,3.3399,3.3399,3.4054,3.5135,3.5135,3.5245,3.5576,0.0,0.0,0.0,0.0,0.0,0.0,0.0,0.0,0.0,0.0,0.0,0.0,0.0,0.0,0.0,0.0,0.0,0.0,0.0,0.0,0.0,0.0,0.0,0.0,0.0,0.0,0.0,0.0,0.0,0.0,0.0,0.0,0.0,0.0,0.0,0.0,0.0,-2.1479,-2.2974,-2.4326,-2.4548,-2.4761,0.0,0.0,0.0,0.0,0.0,0.0,-2.9826,-3.1233,-3.2572,-3.3704,-3.4753,-3.5432,-3.5697,-3.5477,-3.4936,-3.4065,-3.2685,-3.1777,-3.1208,-3.0274,-2.9686,-2.944,-2.945,-2.9213,-2.8984,-2.8984,-2.8984,-2.8984,-2.8984,-2.8984,-2.8984,-2.8984,-2.8984,-2.8984,0.0,0.0,0.0,0.0,0.0,0.0,0.0,0.0,0.0,0.0,0.0,4.0668,3.9815,3.9208,3.8804,3.8514,3.8198,3.8291,3.8792,3.9117,3.9544,4.007,3.989,3.9581,3.9221,3.7084,3.5576,3.4914,3.384,3.3306,3.3193,3.2851,3.2727,3.2727,3.2727,3.2944,3.3367,3.3367,3.348,3.3808,3.4022,0.0,0.0,0.0,0.0,0.0,0.0,0.0,0.0,0.0,0.0,0.0,0.0,0.0,0.0,0.0,0.0,0.0,0.0,0.0,0.0,0.0,0.0,0.0,0.0,0.0,0.0,0.0,0.0,0.0,0.0,0.0,0.0,0.0,0.0,0.0,0.0,0.0,0.0,-2.5789,-2.6209,0.0,0.0,0.0,0.0,-2.8406,-2.9472,-3.0715,-3.2115,-3.3783,-3.4934,-3.5864,-3.6601,-3.6881,-3.6592,-3.5817,-3.4914,-3.4022,-3.2571,-3.1546,-3.085,-2.9912,-2.9558,-2.944,-2.9213,-2.8984,-2.8984,-2.8984,-2.8984,-2.8984,-2.8984,-2.8984,-2.8984,-2.8984,-2.8984,-2.8984,0.0,0.0,0.0,0.0,0.0,0.0,0.0,0.0,4.1185,4.0808,4.0173,3.9634,3.9104,3.8502,3.7998,3.7904,3.756,3.756,3.7998,3.8409,3.8816,3.9221,3.9129,3.8477,3.7084,3.5795,3.4814,3.384,3.3409,3.3079,3.2851,3.2737,3.2727,3.2727,3.2727,3.2716,3.2592,3.2592,3.281,3.3027,3.313,3.3497,0.0,0.0,0.0,0.0,0.0,0.0,0.0,0.0,0.0,0.0,0.0,0.0,0.0,0.0,0.0,0.0,0.0,0.0,0.0,0.0,0.0,0.0,0.0,0.0,0.0,0.0,0.0,0.0,0.0,0.0,0.0,0.0,0.0,0.0,0.0,0.0,0.0,-2.7079,-2.7507,0.0,-2.873,-2.9186,-2.9758,-3.0453,-3.1342,-3.2427,-3.365,-3.4704,-3.5686,-3.6462,-3.6896,-3.6932,-3.6406,-3.5728,-3.4714,-3.343,-3.2102,-3.1053,-3.0274,-2.945,-2.9213,-2.9213,-2.9103,-2.8984,-2.8984,-2.8984,-2.8984,-2.8984,-2.8984,-2.8984,-2.8984,-2.8984,-2.8984,-2.8984,0.0,0.0,0.0,0.0,0.0,0.0,0.0,0.0,4.0478,4.007,3.944,3.8699,3.8279,3.7667,3.7262,3.7155,3.6928,3.6928,3.7262,3.7679,3.808,3.8173,3.795,3.7084,3.5576,3.4814,3.4054,3.3193,3.3079,3.2841,3.2612,3.2612,3.2487,3.2383,3.2498,3.2363,3.2102,3.1957,3.2052,3.2156,3.2031,3.2044,3.2364,0.0,0.0,0.0,0.0,0.0,0.0,0.0,0.0,0.0,0.0,0.0,0.0,0.0,0.0,0.0,0.0,0.0,0.0,0.0,0.0,0.0,0.0,0.0,0.0,0.0,0.0,0.0,0.0,0.0,0.0,0.0,0.0,0.0,0.0,-2.5767,-2.6927,-2.8135,-2.867,-2.9399,-3.0255,-3.0684,-3.1248,-3.206,-3.288,-3.3832,-3.4828,-3.5588,-3.6383,-3.7048,-3.6979,-3.6706,-3.6298,-3.55,-3.445,-3.313,-3.1812,-3.0665,-2.9922,-2.934,-2.8984,-2.8984,-2.8984,-2.8984,-2.8984,-2.8984,-2.8984,-2.8984,-2.8984,-2.8984,-2.8984,-2.8984,-2.8984,-2.8984,0.0,0.0,0.0,0.0,0.0,0.0,0.0,4.0377,3.9865,3.9221,3.8712,3.7986,3.7131,3.6808,3.6592,3.6266,3.6266,3.6375,3.67,3.6916,3.7131,3.7024,3.6254,3.5466,3.4914,3.4054,3.3523,3.3193,3.2851,3.2612,3.2363,3.2248,3.2143,3.1787,3.2133,3.2102,3.1812,3.1377,3.1212,3.1202,3.0605,3.0508,3.0734,0.0,0.0,0.0,0.0,0.0,0.0,0.0,0.0,0.0,0.0,0.0,0.0,0.0,0.0,0.0,0.0,0.0,0.0,0.0,0.0,0.0,0.0,0.0,0.0,0.0,0.0,0.0,0.0,0.0,0.0,0.0,0.0,0.0,-2.6145,-2.6885,-2.7937,-2.9071,-2.9911,-3.0671,-3.123,-3.1721,-3.2432,-3.3281,-3.4032,-3.4848,-3.5991,-3.6537,-3.7073,-3.7596,-3.7036,-3.6592,-3.6266,-3.5046,-3.4069,-3.3022,-3.1482,-3.0519,-2.9922,-2.9222,-2.8984,-2.8984,-2.8984,-2.8984,-2.8984,-2.8984,-2.8984,-2.8984,-2.8984,-2.8984,-2.8984,-2.8984,-2.8984,-2.8984,0.0,0.0,0.0,0.0,0.0,0.0,0.0,3.9647,3.9013,3.8724,3.7974,3.7346,3.6808,3.6592,3.6375,3.6277,3.6266,3.6375,3.6375,3.67,3.67,3.6483,3.5697,3.4925,3.4289,3.3851,3.3523,3.3193,3.3079,3.2944,3.2581,3.2133,3.1787,3.1441,3.1536,3.1371,3.105,3.0827,3.0266,2.9575,2.9446,2.9231,2.9169,0.0,0.0,0.0,0.0,0.0,0.0,0.0,0.0,0.0,0.0,0.0,0.0,0.0,0.0,0.0,0.0,0.0,0.0,0.0,0.0,0.0,0.0,0.0,0.0,0.0,0.0,0.0,0.0,0.0,0.0,0.0,-2.545,-2.6781,-2.729,-2.8457,-2.9595,-3.0474,-3.1148,-3.1797,-3.2409,-3.2755,-3.3086,-3.3575,-3.4439,-3.5278,-3.5923,-3.632,-3.6717,-3.7235,-3.6673,-3.6168,-3.5632,-3.4867,-3.3753,-3.2404,-3.1374,-3.0421,-2.9568,-2.9213,-2.8984,-2.8984,-2.8984,-2.8984,-2.8984,-2.8984,-2.8984,-2.8984,-2.8984,-2.8984,-2.8984,-2.8984,-2.8984,-2.8984,0.0,0.0,0.0,0.0,0.0,0.0,0.0,3.8816,3.8198,3.788,3.7346,3.6808,3.6592,3.6375,3.6266,3.6266,3.6168,3.6059,3.6059,3.6059,3.595,3.573,3.4947,3.439,3.3861,3.3738,3.3523,3.3193,3.3193,3.2944,3.2457,3.1767,3.1169,3.0655,3.0519,3.0335,2.9987,2.9748,2.8978,2.8011,2.7697,2.7519,2.744,2.7286,2.7107,2.6996,2.7384,2.7364,2.7058,2.6487,0.0,0.0,0.0,0.0,0.0,0.0,0.0,0.0,0.0,0.0,0.0,0.0,0.0,0.0,0.0,0.0,0.0,0.0,0.0,0.0,0.0,0.0,0.0,0.0,-2.6871,-2.7941,-2.8794,-2.9713,-3.0639,-3.1246,-3.1924,-3.2578,-3.3015,-3.3289,-3.372,-3.4275,-3.5046,-3.5845,-3.6449,-3.6661,-3.6869,-3.708,-3.6541,-3.6059,-3.5423,-3.4979,-3.3979,-3.2559,-3.1656,-3.0742,-2.9817,-2.9468,-2.9076,-2.8984,-2.8984,-2.8984,-2.8984,-2.8984,-2.8984,0.0,0.0,0.0,0.0,0.0,-2.8984,-2.8984,0.0,0.0,0.0,0.0,0.0,0.0,0.0,3.7998,3.737,3.7024,3.67,3.6483,3.6266,3.6277,3.6277,3.6277,3.595,3.573,3.5621,3.508,3.4758,3.4869,3.4199,3.3738,3.3512,3.3512,3.3399,3.3193,3.3193,3.283,3.2227,3.1275,3.0393,2.983,2.9498,2.9062,2.8787,2.8482,2.775,2.6709,2.5798,2.5732,2.5896,2.5593,2.5445,2.5469,2.5826,2.5907,2.5625,2.4711,0.0,0.0,0.0,0.0,0.0,0.0,0.0,0.0,0.0,0.0,0.0,0.0,0.0,0.0,0.0,0.0,0.0,0.0,0.0,0.0,0.0,0.0,0.0,0.0,-2.8135,-2.9217,-3.0287,-3.0753,-3.11,-3.1669,-3.242,-3.3089,-3.3281,-3.3626,-3.4246,-3.5182,-3.5753,-3.6391,-3.7064,-3.7062,0.0,0.0,0.0,-3.595,-3.5423,-3.5091,-3.4412,-3.3151,-3.2299,-3.1366,-3.0334,-2.9733,-2.9294,-2.8984,-2.8984,-2.8984,-2.8984,-2.8984,-2.8984,-2.8984,-2.8984,-2.8984,-2.8984,-2.8975,-2.8966,-2.8856,0.0,0.0,0.0,0.0,0.0,0.0,0.0,3.7143,3.6495,3.6483,3.595,3.5632,3.5632,3.5742,3.5852,3.5852,3.5609,3.5157,3.4357,3.3808,3.3582,3.3818,3.3027,3.2685,3.2924,3.2913,3.3037,3.3161,3.3182,3.2944,3.2571,3.1156,3.018,2.9489,2.8947,2.83,2.7819,2.7732,2.7021,2.5798,2.5138,2.4813,2.4813,2.451,2.437,2.437,2.4416,2.4283,2.3871,2.2979,2.2174,2.1355,1.9661,1.811,0.0,0.0,0.0,0.0,0.0,0.0,0.0,0.0,0.0,0.0,0.0,0.0,0.0,0.0,0.0,0.0,0.0,0.0,0.0,-2.8242,-2.9102,-2.9953,-3.0578,-3.1289,-3.1902,-3.2308,-3.2835,-3.3369,-3.358,-3.424,-3.481,-3.5206,-3.6109,-3.6704,-3.6916,-3.6861,-3.6808,-3.6808,-3.6168,-3.5742,-3.5423,-3.4869,-3.4177,-3.3151,0.0,0.0,-3.037,-2.9771,-2.9268,-2.8984,-2.8984,-2.8984,-2.8984,-2.8984,-2.8984,-2.8984,-2.8984,-2.8984,-2.8975,-2.8683,-2.8655,-2.8527,0.0,0.0,0.0,0.0,0.0,0.0,0.0,3.6495,3.6059,3.5829,3.5511,3.5091,3.4947,3.5058,3.5168,3.5168,3.4591,3.3899,3.2861,3.2654,3.2436,3.2436,3.2207,3.1988,3.1988,3.2342,3.2571,3.2685,3.2696,3.254,3.2219,3.0644,2.9521,2.8861,2.797,2.7408,2.7005,2.67,2.6019,2.5119,2.4494,2.4136,2.3841,2.3686,2.3554,2.3554,2.3444,2.3179,2.2656,2.1269,2.0354,1.9419,1.749,1.6068,1.4763,0.0,0.0,0.0,0.0,0.0,0.0,0.0,0.0,0.0,0.0,0.0,0.0,0.0,0.0,-2.6797,-2.7248,0.0,-2.888,-2.9428,-3.0057,-3.0578,-3.0899,-3.1929,-3.2621,-3.2476,-3.3174,-3.3839,-3.424,-3.4797,-3.5412,-3.6002,-3.6514,-3.6825,-3.6968,-3.6776,-3.6592,-3.6483,-3.6059,-3.5632,-3.5202,-3.4869,-3.4412,-3.3625,-3.2696,-3.1777,-3.0859,-3.0087,-2.9487,-2.8984,-2.8984,-2.8984,-2.8984,-2.8874,-2.8627,-2.8498,-2.837,-2.8498,-2.8746,-2.8591,-2.8334,-2.7958,0.0,0.0,0.0,0.0,0.0,0.0,0.0,3.595,3.5511,3.5146,3.4847,3.4513,3.4145,3.4256,3.4145,3.4022,3.3233,3.2311,3.1381,3.1275,3.1169,3.0937,3.1169,3.1169,3.1053,3.1526,3.1883,3.1998,3.2113,3.1907,3.162,3.0142,2.8988,2.8336,2.709,2.6512,2.6432,2.5757,2.5111,2.4409,2.4176,2.3686,2.3106,2.3106,2.3106,2.3113,2.276,2.2265,2.1628,2.0087,1.8926,1.7893,1.5824,1.4394,1.2947,1.029,0.7464,0.0,0.0,0.0,0.0,0.0,0.0,0.0,0.0,-2.5555,-2.6788,-2.7542,-2.8445,-2.9112,-2.9303,-2.97,-3.0077,-3.0621,-3.1008,-3.127,-3.1499,-3.2564,-3.3193,-3.279,-3.3595,-3.4347,-3.4867,-3.5439,-3.6025,-3.6682,-3.6801,-3.6814,-3.6893,-3.67,-3.6375,-3.6168,-3.5852,-3.5423,-3.4991,-3.4991,-3.4646,-3.4097,-3.3264,-3.2342,-3.1411,-3.0411,-2.9714,-2.9103,-2.8984,-2.8865,-2.8865,-2.8517,-2.8268,-2.7891,-2.7521,-2.7642,-2.7908,-2.802,-2.7642,-2.7039,0.0,0.0,0.0,0.0,0.0,0.0,0.0,0.0,3.4858,3.4246,3.3706,3.3264,3.2913,3.313,3.3006,3.2446,3.1862,3.1053,3.0147,2.9558,2.944,2.9658,2.944,2.9568,3.0039,3.0382,3.085,3.1441,3.1672,3.1552,3.0873,2.993,2.8886,2.8029,2.7064,2.6457,2.6101,2.5397,2.481,2.4109,2.3751,2.3407,2.3106,2.3106,2.3106,2.3113,2.276,2.2006,2.0982,1.9559,1.8279,1.6742,1.4656,1.3083,1.1358,0.8294,0.4849,0.1279,-0.2681,-0.94,-1.6121,-1.9644,-2.2422,-2.4701,0.0,-2.7473,-2.8572,-2.9102,-2.9743,-3.0172,-3.0276,-3.1021,-3.1612,-3.1718,-3.2401,-3.2801,-3.2907,-3.3387,-3.3832,-3.3776,-3.4532,-3.5097,-3.512,-3.5899,-3.6332,-3.6391,-3.6589,-3.6642,-3.6375,-3.6059,-3.5742,-3.5533,-3.5202,-3.5091,-3.4991,-3.4758,-3.4423,-3.4086,-3.3501,-3.2696,-3.1672,-3.0752,-3.0035,-2.945,-2.8865,-2.8526,-2.8517,-2.8148,-2.7891,-2.7521,-2.7142,-2.6537,-2.5937,-2.6261,-2.6131,-2.5684,0.0,0.0,0.0,0.0,0.0,0.0,0.0,0.0,0.0,3.3572,3.2799,3.2238,3.1893,3.1757,3.1516,3.0956,3.048,2.9776,2.8856,2.8618,2.837,2.8352,2.837,2.8627,2.9103,2.9558,3.002,3.0509,3.0626,3.0451,2.9911,2.8988,2.8255,2.7705,2.6781,2.6197,2.6011,2.5119,2.4587,2.4014,2.3788,2.3399,2.3113,2.287,2.2745,2.248,2.2118,2.1355,0.0,1.8658,1.7378,1.5964,1.3739,1.2572,1.0986,0.6148,0.2225,-0.216,-0.8909,-1.4667,-1.9603,-2.2839,-2.5226,-2.7131,-2.8648,-2.9408,-3.013,-3.1042,-3.143,-3.1621,-3.1889,-3.2306,-3.2648,-3.2648,-3.2929,-3.3071,-3.3071,-3.3859,-3.437,-3.437,-3.5356,-3.5956,-3.5689,-3.6214,-3.6612,-3.6612,-3.6692,-3.6495,-3.6059,-3.5852,-3.5643,-3.5202,-3.5102,-3.488,-3.4758,-3.4524,-3.4412,-3.43,-3.3378,-3.2571,-3.2008,-3.0645,-2.9714,-2.8865,-2.8197,-2.782,-2.7598,-2.7125,-2.6548,-2.605,-2.5301,-2.4687,-2.4216,-2.5178,-2.4933,-2.4085,0.0,0.0,0.0,0.0,0.0,0.0,0.0,0.0,0.0,0.0,3.1883,3.1325,3.0976,3.0606,3.0246,2.9686,2.9322,0.0,0.0,2.7779,2.7659,2.7409,2.7659,2.7908,2.8268,2.8838,2.9313,2.9558,2.9648,2.9489,2.8974,2.8228,2.7697,2.722,2.6332,2.5896,2.5716,2.4881,2.427,2.3981,2.3554,2.3267,2.287,2.2516,2.1999,2.1607,2.1481,2.0716,1.9571,1.7899,1.6608,1.5047,1.2545,1.1104,0.9365,0.372,-0.1425,-0.7144,-1.4533,-1.8902,-2.2135,-2.5445,-2.7539,-2.9166,-3.036,-3.0989,-3.1599,-3.2387,-3.2569,-3.2667,-3.3005,-3.318,-3.3268,-3.3268,-3.3377,-3.3475,-3.3475,-3.4217,-3.4776,-3.4874,-3.5842,-3.6345,-3.6105,-3.6503,-3.6592,-3.6483,-3.6483,-3.6168,-3.5632,-3.5533,-3.5301,-3.4869,-3.4869,-3.4758,-3.4524,-3.4423,-3.43,-3.4289,-3.314,-3.2342,-3.1883,-3.0344,-2.9076,-2.8175,-2.7486,-2.6996,-2.665,-2.6006,-2.5278,-2.4525,-2.3653,-2.2937,-2.2473,-2.334,-2.3216,-2.248,0.0,0.0,0.0,0.0,0.0,0.0,0.0,0.0,0.0,0.0,0.0,0.0,0.0,2.9667,2.9313,2.9103,2.8379,2.7891,2.7521,2.7306,2.7073,2.7073,2.7073,2.7306,2.7521,2.8241,2.848,2.848,2.9074,2.8891,2.8036,2.7714,2.7186,2.6616,2.5885,2.5448,2.5119,2.4456,2.3973,2.3554,2.3252,2.2878,2.2516,2.1894,2.1256,2.0736,2.0982,2.0221,1.8944,1.7523,1.5824,1.3984,1.1215,0.8281,0.5189,0.0786,-0.66,-1.4174,-1.83,-2.1579,-2.4344,-2.7041,-2.9005,-3.0422,-3.1264,-3.2052,-3.2717,-3.3049,-3.3049,-3.3049,-3.3071,-3.3453,-3.377,-3.377,-3.4174,-3.448,-3.448,-3.4725,-3.508,-3.54,-3.5621,-3.595,-3.6254,-3.658,-3.6495,-3.5852,-3.5852,-3.5643,-3.5102,-3.498,-3.4869,-3.4524,-3.4524,-3.4524,-3.4524,-3.4199,-3.3963,-3.3582,-3.2675,-3.1883,-3.1325,-2.9686,-2.8535,-2.7514,-2.6949,-2.6232,-2.5617,-2.4888,-2.4016,-2.3155,-2.2806,-2.1874,-2.0576,-2.0348,-2.0609,-2.0982,0.0,0.0,0.0,0.0,0.0,0.0,0.0,0.0,0.0,0.0,0.0,0.0,0.0,0.0,0.0,0.0,2.7762,2.753,2.7306,2.7194,2.7073,2.7073,2.7073,2.7306,2.7771,2.8241,2.8462,2.8545,2.8737,2.8437,2.7626,2.7132,2.6807,2.66,2.5709,2.525,2.5061,2.3953,2.3414,2.3201,2.2663,2.2139,2.1495,2.0856,1.982,1.8786,0.0,1.8033,1.7518,1.6084,1.411,1.1735,0.8676,0.5569,0.1307,-0.7875,-1.3351,-1.7333,-2.1126,-2.4215,-2.6912,-2.9233,-3.088,-3.1976,-3.2501,-3.2737,-3.3051,-3.3486,-3.3551,-3.365,-3.3977,-3.4163,-3.4272,-3.4272,-3.4414,-3.4524,-3.4524,-3.4758,-3.498,-3.5091,-3.5423,-3.5632,-3.5742,-3.5961,-3.607,-3.5852,-3.5632,-3.5423,-3.4991,-3.4991,-3.4869,-3.4524,-3.4524,-3.4412,-3.4199,-3.3974,-3.3501,-3.3027,-3.1652,-3.049,-2.9431,-2.848,-2.7539,-2.6847,-2.5757,-2.4912,-2.4192,-2.3267,-2.2356,-2.1396,-2.0849,-1.9941,-1.8798,-1.8442,-1.8173,-1.815,0.0,0.0,0.0,0.0,0.0,0.0,0.0,0.0,0.0,0.0,0.0,0.0,0.0,0.0,0.0,0.0,0.0,2.7168,2.7073,2.7185,2.7177,2.7177,2.7427,2.7779,2.8131,2.86,2.8701,2.8444,2.8462,2.8188,2.7502,2.6807,2.6466,2.6438,2.5397,2.4835,2.4546,2.3488,2.2904,2.2699,2.2167,2.1509,2.0856,1.9686,1.853,0.0,1.6073,1.5709,1.5598,1.4245,1.1984,0.9065,0.5734,0.1185,-0.4649,-1.3572,-1.7901,-2.0385,-2.3809,-2.6465,-2.881,-3.0689,-3.212,-3.302,-3.3333,-3.3464,-3.3683,-3.3988,-3.4054,-3.4152,-3.4458,-3.4524,-3.4524,-3.4524,-3.4524,-3.4524,-3.4524,-3.4646,-3.4869,-3.4991,-3.5091,-3.5312,-3.5423,-3.5423,-3.5522,-3.5522,-3.5312,-3.5091,-3.4869,-3.4869,-3.4758,-3.4524,-3.4412,-3.4188,-3.3727,-3.3264,-3.2457,-3.1411,-3.0255,-2.9076,-2.8011,-2.753,-2.6805,-2.5839,-2.4726,-2.3743,-2.276,-2.185,-2.086,-1.9933,-1.9352,-1.8437,-1.7416,-1.6936,-1.6395,-1.5959,0.0,0.0,0.0,0.0,0.0,0.0,0.0,0.0,0.0,0.0,0.0,0.0,0.0,0.0,0.0,0.0,0.0,0.0,2.7073,2.7289,2.7521,2.7521,2.8122,2.848,2.86,2.9076,2.9203,2.8517,2.858,2.8246,2.7522,2.6616,2.6172,2.6134,2.5103,2.4192,2.3561,2.3177,2.272,2.2041,2.1747,2.1109,2.0348,1.853,1.7238,1.6084,1.3849,1.3104,1.2881,1.1875,0.9183,0.5723,0.2129,-0.4846,-1.2422,-1.6501,-2.0179,-2.3473,-2.6319,-2.8295,-3.0127,-3.1511,-3.2636,-3.3517,-3.3726,-3.4196,-3.4524,-3.4524,-3.4524,-3.4524,-3.4524,-3.4524,-3.4524,-3.4524,-3.4635,-3.4635,-3.4635,-3.4635,-3.4747,-3.4991,-3.5091,-3.5091,-3.5312,-3.5091,-3.498,-3.4991,0.0,-3.4869,-3.4524,-3.4524,-3.4524,-3.4524,-3.4199,-3.3727,-3.3119,-3.2197,-3.0713,-2.8984,-2.8609,-2.7891,-2.7073,-2.7073,-2.6092,-2.4487,-2.386,-2.2731,-2.1481,-2.0456,-1.9571,-1.8938,-1.8099,-1.7238,-1.6296,-1.5561,-1.4866,-1.4403,0.0,0.0,0.0,0.0,0.0,0.0,0.0,0.0,0.0,0.0,0.0,0.0,0.0,0.0,0.0,0.0,0.0,0.0,2.67,2.7168,2.7642,2.7891,2.825,2.8847,2.9568,2.9661,2.9671,2.9568,2.9571,2.9066,2.8268,2.7514,2.6924,2.6446,2.5119,2.4239,2.3503,2.2749,2.2069,2.1628,2.1116,2.0087,1.8926,1.7372,1.5554,1.3464,1.1611,0.9618,0.7887,0.7727,0.345,-0.2518,-0.6155,-1.0895,-1.583,-1.89,-2.2424,-2.5651,-2.8049,-3.0,-3.1696,-3.2843,-3.3695,-3.4227,-3.4338,-3.4436,-3.4524,-3.4524,-3.4758,-3.4869,-3.4869,-3.5179,-3.5488,-3.5488,-3.5719,-3.5829,-3.5829,-3.5829,-3.5829,-3.5609,-3.5598,-3.5511,-3.5091,-3.4991,-3.4869,-3.4646,-3.4635,-3.4635,-3.4524,-3.4524,-3.4524,-3.4524,-3.3963,-3.3388,-3.2799,-3.0937,-2.9422,-2.8259,-2.7668,-2.7185,-2.67,-2.597,-2.5103,-2.4108,-2.2716,-2.1461,-2.0335,-1.9054,-1.8028,-1.7114,-1.6363,-1.5485,-1.4548,-1.4077,-1.3405,-1.2832,0.0,0.0,0.0,0.0,0.0,0.0,0.0,0.0,0.0,0.0,0.0,0.0,0.0,0.0,0.0,0.0,0.0,0.0,0.0,2.7289,2.7891,2.825,2.8847,2.9558,3.0274,3.0469,3.0449,3.0334,3.0077,2.9433,2.8505,2.7591,2.6881,2.6346,2.4988,2.3991,2.3319,2.2433,2.1768,0.0,0.0,1.923,1.7663,1.5992,1.433,1.2397,0.92,0.5069,0.0534,-0.2118,-0.4895,-0.7954,-1.1812,-1.5508,-1.9056,-2.1737,-2.4763,-2.7696,-2.9707,-3.1361,-3.2776,-3.3593,-3.4199,-3.4524,-3.4524,-3.4524,-3.4524,-3.4646,-3.4869,-3.5091,-3.529,-3.5598,-3.5916,-3.6145,-3.6363,-3.6483,-3.6677,-3.6677,-3.658,-3.6254,-3.6145,-3.5829,-3.5179,-3.5091,-3.4869,-3.4524,-3.4524,-3.4524,-3.4524,-3.4524,-3.4412,-3.4311,-3.3614,-3.2457,-3.081,-2.9185,-2.8011,-2.7168,-2.6813,-2.6457,-2.6092,-2.5226,-2.4355,-2.3355,-2.1839,-2.0449,-1.931,-1.7899,-1.6866,-1.5949,-1.5091,-1.42,-1.3354,-1.2869,-1.2336,-1.178,0.0,0.0,0.0,0.0,0.0,0.0,0.0,0.0,0.0,0.0,0.0,0.0,0.0,0.0,0.0,0.0,0.0,0.0,0.0,0.0,0.0,0.0,2.9322,3.0147,3.085,3.1199,3.1159,3.0954,3.0324,2.9412,2.8453,2.7263,2.6449,2.5872,2.4618,2.3656,2.2824,2.2146,2.1348,2.0303,1.9599,1.825,1.6402,0.0,0.0,1.1176,0.5986,-0.0133,-0.684,-1.2828,-1.3316,-1.1926,-1.5744,-1.8969,-2.1923,-2.4494,-2.7122,-2.9425,-3.0996,-3.2316,-3.337,-3.4017,-3.4322,-3.4524,-3.4524,-3.4524,-3.4635,-3.498,-3.5091,-3.5301,-3.5817,-3.5916,-3.6243,-3.6808,-3.6916,-3.712,-3.7311,-3.7406,-3.7311,-3.7012,-3.67,-3.6266,-3.5598,-3.529,-3.498,-3.4524,-3.4524,-3.4524,-3.4524,-3.4524,-3.43,-3.3861,-3.2924,-3.1169,-2.848,-2.7547,-2.6822,-2.6075,-2.6075,-2.5839,-2.5488,-2.4734,-2.3736,-2.2355,-2.0956,-1.9559,-1.8156,-1.6732,-1.5694,-1.4907,-1.3975,-1.3193,-1.2561,-1.1931,-1.1401,-1.0982,0.0,0.0,0.0,0.0,0.0,0.0,0.0,0.0,0.0,0.0,2.0969,2.1355,0.0,0.0,0.0,0.0,0.0,0.0,0.0,0.0,0.0,0.0,0.0,0.0,3.085,3.1179,3.1139,3.0954,3.0526,2.9701,2.8501,2.7443,2.6348,2.5225,2.4222,2.3046,2.1802,2.1182,2.0285,1.9237,1.8273,1.6684,1.4586,0.0,0.0,0.0,0.0133,-0.5064,-0.9468,-1.3116,-1.4665,-1.55,-1.8741,-2.147,-2.3848,-2.6083,-2.8268,-3.0459,-3.1712,-3.2737,-3.3646,-3.4311,-3.4412,-3.4524,-3.4524,-3.4524,-3.4635,-3.498,-3.54,-3.5817,-3.6157,-3.682,-3.7358,-3.7773,-3.8198,-3.8514,-3.8828,-3.9141,-3.9037,-3.8477,-3.8185,-3.7548,-3.6266,-3.5817,-3.5389,-3.4524,-3.4524,-3.4524,-3.4524,-3.4524,-3.3829,-3.2571,-3.1642,-3.0119,-2.814,-2.7427,-2.6822,-2.6075,-2.5847,-2.548,-2.5111,-2.386,-2.2724,-2.1706,-1.9413,0.0,-1.6732,-1.5047,-1.3862,-1.3193,-1.2409,-1.1894,-1.1376,-1.0989,-1.0724,-1.0323,0.0,0.0,0.0,0.0,0.0,0.0,0.0,1.959,1.9462,1.9328,1.9711,2.0094,2.0342,2.0729,0.0,0.0,0.0,0.0,0.0,0.0,0.0,0.0,0.0,0.0,0.0,3.0499,3.0461,3.0071,0.0,2.8496,2.7158,2.6207,2.5115,2.3996,2.3171,2.2132,2.0996,2.0393,1.9249,1.7956,1.6692,1.4702,0.0,0.0,0.0,0.0,0.0,-0.9355,-1.1911,-1.5219,-1.7399,-1.9181,-2.1215,-2.3348,-2.5421,-2.7375,-2.9384,-3.1179,-3.2416,-3.3325,-3.3909,-3.4401,-3.4524,-3.4524,-3.4524,-3.4524,-3.4624,-3.529,-3.5598,-3.6025,-3.682,-3.7155,-3.7572,-3.8092,-3.8409,-3.8841,-3.9374,-3.9788,-3.9775,-3.9349,-3.8921,-3.808,-3.6592,-3.6036,-3.5488,-3.4524,-3.4524,-3.4524,-3.4524,-3.3942,-3.2913,-3.1526,-3.0236,-2.8829,-2.7297,-2.6579,-2.6092,-2.5594,-2.5226,-2.4857,-2.4487,-2.2973,-2.1706,-2.043,-1.8133,-1.6592,-1.5298,-1.3866,-1.2943,-1.2281,-1.1765,-1.1111,-1.0721,-1.0455,-1.0054,-0.9519,0.0,0.0,0.0,0.0,0.0,0.0,0.0,1.895,1.8816,1.8816,1.8816,1.8938,1.9194,1.996,2.0602,0.0,0.0,0.0,0.0,0.0,0.0,0.0,0.0,0.0,0.0,0.0,0.0,2.882,2.7847,0.0,0.0,0.0,0.0,0.0,2.1853,2.0963,1.9935,1.92,1.7781,0.0,0.0,1.2504,0.0,0.0,0.0,0.0,0.0,-1.2612,-1.427,-1.7526,-2.0117,-2.2241,-2.3346,-2.4865,-2.6579,-2.8426,-3.0052,-3.1562,-3.284,-3.3642,-3.4101,-3.439,-3.4524,-3.4524,-3.4524,-3.4524,-3.4847,-3.5598,-3.5916,-3.6363,-3.737,-3.7465,-3.756,-3.8198,-3.8409,-3.8724,-3.9465,-3.9878,-3.9981,-3.9788,-3.9245,-3.8384,-3.6904,-3.6243,-3.5488,-3.4524,-3.4412,-3.4289,-3.4289,-3.3254,-3.1988,-3.0713,-2.9185,-2.7762,-2.6571,-2.597,-2.5357,-2.498,-2.461,-2.4232,-2.3604,-2.195,-2.0297,-1.8896,-1.685,-1.5168,-1.3862,-1.2816,-1.2161,-1.1501,-1.1244,-1.0721,-1.0193,-1.0057,-0.9519,-0.8851,0.0,0.0,0.0,0.0,0.0,0.0,0.0,1.8302,1.8162,1.8162,1.8162,1.8162,1.8162,1.9066,1.9826,0.0,0.0,0.0,0.0,0.0,0.0,0.0,0.0,0.0,0.0,0.0,0.0,2.6762,2.6017,0.0,0.0,0.0,0.0,0.0,0.0,1.9054,1.7759,1.712,0.0,0.0,0.0,0.0,0.0,0.0,0.0,0.0,0.0,-1.4014,-1.6618,-1.9087,-2.1698,-2.404,-2.5432,-2.6277,-2.7211,-2.8838,-3.0306,-3.1606,-3.2871,-3.3604,-3.4188,-3.4412,-3.4524,-3.4524,-3.4524,-3.4758,-3.508,-3.5697,-3.6472,-3.7131,-3.7489,-3.7785,-3.7974,-3.7974,0.0,-3.8619,-3.9129,-3.975,-4.007,-4.0083,-3.9569,-3.8712,-3.7192,-3.658,-3.5719,-3.4635,-3.3931,-3.3695,-3.3695,-3.2768,-3.1737,-3.0499,-2.882,-2.7633,-2.6571,-2.597,-2.5234,-2.461,-2.4363,-2.3479,-2.223,-2.0436,-1.8768,-1.7103,-1.5043,-1.3477,0.0,-1.1641,-1.1115,-1.085,-1.0721,-1.0462,-1.0203,-0.9921,-0.912,-0.8056,0.0,0.0,0.0,0.0,0.0,0.0,1.805,1.7658,1.7389,1.7125,1.6861,1.6861,1.7125,1.7507,1.8156,0.0,0.0,0.0,0.0,0.0,0.0,0.0,0.0,0.0,0.0,0.0,2.5538,2.4802,2.3675,0.0,0.0,0.0,0.0,0.0,0.0,1.7501,1.5819,1.4488,0.0,0.0,0.0,0.0,0.0,0.0,0.0,0.0,0.0,0.0,-1.8376,-2.0997,-2.3291,-2.5169,-2.6713,-2.8104,-2.9213,-2.9855,-3.0878,-3.2041,-3.314,-3.3851,-3.4423,-3.4524,-3.4524,-3.4524,-3.4524,-3.4758,-3.5312,-3.6157,-3.6808,-3.7346,-3.821,-3.8104,0.0,0.0,0.0,0.0,-3.8396,-3.8908,-3.9324,-3.9324,-3.9037,-3.8303,-3.7,-3.6363,-3.5499,-3.4311,-3.3706,-3.3006,-3.2207,-3.1516,-3.0587,-2.9313,-2.7873,-2.6805,-2.597,-2.5349,-2.4734,-2.4232,-2.3362,-2.2215,-2.081,-1.8896,-1.7098,-1.5289,-1.36,-1.2425,0.0,-1.1115,-1.0853,-1.0721,-1.0449,-1.005,-0.9525,-0.8975,-0.7907,-0.6711,0.0,0.0,0.0,0.0,0.0,1.7703,1.6996,1.6488,1.6094,1.5829,1.5564,1.5434,1.5694,1.5829,1.6348,1.7523,0.0,0.0,0.0,0.0,0.0,0.0,0.0,0.0,0.0,0.0,2.3325,2.257,2.1441,2.0436,0.0,0.0,1.8156,1.7254,0.0,0.0,0.0,0.0,0.0,0.0,0.0,0.0,0.0,0.0,0.0,0.0,0.0,0.0,0.0,0.0,0.0,-2.6731,-2.8027,-2.9558,-3.0733,-3.0733,-3.1526,-3.2685,-3.3501,-3.4076,-3.4524,-3.4524,-3.4524,-3.4524,-3.4635,-3.4958,-3.5511,-3.6592,-3.7227,-3.7868,-3.8631,-3.8514,0.0,0.0,0.0,-3.7477,-3.756,-3.808,-3.8384,-3.8372,-3.8291,-3.7785,-3.67,-3.5708,-3.4825,-3.384,-3.2903,-3.1967,-3.0801,-3.0011,-2.9076,-2.8241,-2.7047,-2.6083,-2.5488,-2.4734,-2.4108,-2.3479,-2.223,-2.0823,-1.9018,-1.7227,-1.5419,-1.3726,-1.2553,-1.1637,0.0,-1.0853,-1.0721,-1.0721,-1.0313,-0.9779,-0.8981,-0.8169,-0.6969,-0.5637,0.0,0.0,0.0,0.0,0.0,0.0,1.5534,1.4922,1.4272,1.4006,1.3875,1.3875,1.3875,1.4272,1.466,1.5308,0.0,0.0,0.0,0.0,0.0,0.0,0.0,0.0,0.0,0.0,2.1202,2.0081,1.9425,1.8658,1.8033,1.6996,1.6084,1.5434,0.0,0.0,0.0,0.0,0.0,0.0,0.0,0.0,0.0,0.0,0.0,0.0,0.0,0.0,0.0,0.0,0.0,0.0,0.0,-3.049,-3.1662,-3.1411,-3.2197,-3.3243,-3.3963,-3.43,-3.4524,-3.4524,-3.4524,-3.4635,-3.4947,-3.5367,-3.6025,-3.6916,-3.7962,-3.8804,-3.8841,-3.8816,0.0,0.0,0.0,0.0,-3.67,-3.7262,-3.7572,-3.7524,-3.756,-3.7262,-3.6386,-3.4725,-3.3501,-3.3119,-3.1747,0.0,-2.9493,-2.8215,-2.7521,-2.7513,-2.6554,-2.5831,-2.5103,-2.4479,-2.3487,-2.2111,-2.1089,-1.9419,-1.6974,-1.5554,-1.3993,-1.2289,-1.1508,-1.0986,0.0,-1.0721,-1.0721,-1.0721,-1.0313,-0.9779,-0.8981,-0.7905,-0.6571,-0.5238,0.0,0.0,0.0,0.0,0.0,0.0,0.0,1.3652,1.3218,1.2832,1.2433,1.2301,1.27,1.2964,1.3354,1.4263,0.0,0.0,0.0,0.0,0.0,0.0,0.0,0.0,0.0,1.9285,1.8908,1.8279,1.7114,1.6467,1.6219,1.4637,1.3582,1.2795,1.0923,0.92,0.0,0.0,0.0,0.0,0.0,0.0,-1.5283,0.0,0.0,0.0,0.0,0.0,0.0,0.0,0.0,0.0,0.0,0.0,0.0,-3.3459,-3.3572,-3.3818,-3.4488,-3.4913,-3.5091,-3.5091,-3.5091,-3.5168,-3.5519,-3.5991,-3.6688,-3.756,-3.8384,-3.9129,-3.9362,-3.9025,0.0,0.0,0.0,0.0,0.0,-3.6157,-3.6352,-3.634,-3.6013,-3.5466,-3.4803,-3.3695,-3.2685,-3.1977,-3.0568,-2.9384,-2.8444,-2.7392,-2.6805,-2.6554,-2.6083,-2.5349,-2.4487,-2.3736,-2.2606,-2.1089,-1.9546,-1.7619,-1.5554,-1.4124,-1.2816,-1.1508,-1.1115,-1.0853,-1.0721,-1.0721,-1.0721,-1.0585,-0.9766,-0.8964,-0.8169,-0.6571,-0.5371,-0.417,0.0,0.0,0.0,0.0,0.0,0.0,0.0,1.2386,1.1961,1.1505,1.1115,1.0986,1.1251,1.1512,1.2041,1.3083,0.0,0.0,0.0,0.0,0.0,0.0,0.0,0.0,1.7109,1.7109,1.6856,1.6343,1.5043,1.4254,1.3984,1.282,1.1487,0.9874,0.7467,0.5066,0.0,0.0,0.0,0.0,0.0,0.0,-1.8028,0.0,0.0,0.0,0.0,0.0,0.0,0.0,0.0,0.0,0.0,0.0,0.0,0.0,-3.5024,-3.5268,-3.5413,-3.56,-3.5742,-3.5742,-3.5708,-3.5881,-3.6162,-3.6642,-3.7227,-3.8092,-3.8933,-3.9453,-3.9581,-3.9025,-3.8372,0.0,0.0,0.0,-3.5312,-3.5511,-3.5609,-3.5499,-3.4814,-3.4246,-3.3674,-3.2664,-3.1632,-3.0684,-2.9384,-2.8325,-2.7383,-2.6562,-2.5961,-2.5586,-2.5349,-2.4734,-2.3736,-2.2849,-2.1454,-1.9546,-1.8005,-1.6063,-1.3862,-1.2684,-1.1637,-1.0853,-1.0588,-1.0588,0.0,-1.0721,-1.0585,-1.0445,-0.9356,-0.8416,-0.7621,-0.5772,-0.4574,-0.3636,0.0,0.0,0.0,0.0,0.0,0.0,0.0,0.0,1.0805,1.0303,1.019,1.0057,0.9661,1.019,1.0846,1.1497,0.0,0.0,0.0,0.0,0.0,0.0,0.0,0.0,1.4777,1.5043,1.4786,1.4141,1.3079,1.2146,1.134,1.0989,0.9247,0.6415,0.3606,0.0667,-0.2667,-1.0802,-1.4525,-1.4938,-1.691,-1.9224,0.0,0.0,0.0,0.0,0.0,0.0,0.0,0.0,0.0,0.0,0.0,0.0,0.0,0.0,0.0,0.0,0.0,-3.6467,-3.6375,-3.6363,-3.6391,-3.6453,-3.7,-3.7453,0.0,-3.8631,-3.927,-3.9594,-3.9374,-3.8816,-3.8043,-3.712,-3.6254,-3.5499,-3.498,-3.5091,-3.5202,-3.4869,-3.4054,-3.3346,-3.3006,-3.1506,-3.0227,-2.9384,-2.8095,-2.7039,-2.6075,-2.5725,-2.5234,-2.4595,-2.4471,-2.3969,-2.2973,-2.1706,-1.9928,-1.7876,-1.6457,-1.4507,-1.2157,-1.1508,-1.0853,0.0,-1.0193,-1.0455,-1.0721,-1.0721,-1.0449,-1.0038,-0.895,-0.8005,-0.7201,-0.5372,-0.4311,-0.3638,0.0,0.0,0.0,0.0,0.0,0.0,0.0,0.0,0.0,0.0,0.9652,0.9386,0.9253,0.9383,0.9516,0.0,0.0,0.0,0.0,0.0,0.0,0.0,0.0,0.0,1.2943,1.2943,1.2676,1.2006,1.0558,0.9356,0.8013,0.6019,0.4146,0.2272,-0.1068,-0.519,-0.9958,-1.38,-1.6668,-1.8806,-2.0889,-2.2877,0.0,0.0,0.0,0.0,-2.9717,-3.0779,0.0,0.0,0.0,0.0,0.0,0.0,0.0,0.0,-3.7223,-3.7834,-3.8164,0.0,-3.7239,-3.7252,-3.7049,-3.6989,0.0,-3.7892,-3.8303,-3.8736,-3.927,-3.9581,-3.905,-3.8279,-3.7406,-3.6243,-3.5609,-3.4858,-3.4076,-3.3963,-3.3952,-3.3604,-3.3027,-3.2217,-3.1401,-3.01,-2.892,-2.7984,-2.703,-2.6197,-2.5725,-2.4857,-2.4324,-2.4247,-2.2733,-2.1971,-2.1957,-2.0916,-1.903,-1.6436,-1.5284,-1.36,-1.1376,-1.0982,-1.0588,-1.0193,-1.0193,-1.0455,-1.0721,-1.0445,-0.9902,-0.9224,-0.814,-0.6927,-0.5727,-0.4428,-0.3635,-0.2964,0.0,0.0,0.0,0.0,0.0,0.0,0.0,0.0,0.0,0.0,0.0,0.0,0.0,0.0,0.0,0.0,0.0,0.0,0.0,0.0,0.0,0.0,0.0,1.1633,1.1101,1.1097,1.0972,1.0714,0.8294,0.6285,0.4681,0.2007,-0.0134,-0.1869,-0.6382,-1.0868,-1.4952,-1.7407,-1.9834,-2.2228,-2.4055,0.0,0.0,0.0,0.0,0.0,-3.1633,-3.2261,0.0,-3.2934,-3.3058,-3.3523,0.0,0.0,0.0,0.0,-3.7917,-3.8648,-3.9087,-3.8631,-3.7974,-3.7808,-3.7524,-3.7358,-3.7679,-3.8104,-3.8514,-3.8945,-3.927,-3.927,-3.8514,-3.7643,-3.6545,-3.5576,-3.4836,-3.4188,-3.3501,-3.3275,-3.3037,-3.2581,-3.1883,-3.0946,0.0,-2.8929,-2.7864,-2.6918,-2.6197,-2.5717,-2.5111,-2.4487,-2.3938,-2.3469,-2.1867,-2.0995,-2.0962,-1.9466,-1.7563,-1.5255,-1.4097,-1.2668,-1.0714,-1.0455,-1.0193,-0.9927,-0.9927,-1.019,-1.0449,-1.0174,-0.9492,-0.8543,-0.7197,-0.6137,-0.4951,-0.3763,-0.3097,-0.2694,0.0,0.0,0.0,0.0,0.0,0.0,0.0,0.0,0.0,0.0,0.0,0.0,0.0,0.0,0.0,0.0,0.0,0.0,0.0,0.0,0.0,0.0,0.9977,0.9915,0.9247,0.9108,0.8984,0.8867,0.5622,0.2943,0.1071,-0.174,-0.4275,-0.666,-1.1665,-1.5724,-1.8709,-2.1108,-2.3251,-2.5229,-2.684,0.0,0.0,0.0,0.0,0.0,0.0,0.0,0.0,-3.3727,-3.3759,-3.4006,-3.4556,0.0,0.0,0.0,0.0,0.0,-3.9594,-3.9037,-3.8303,-3.8104,-3.7797,-3.7584,-3.7667,-3.7986,-3.8409,-3.8945,-3.905,-3.8841,-3.7986,-3.6893,-3.5795,-3.4925,-3.4054,-3.3399,-3.3151,-3.281,-3.2352,-3.1672,-3.0733,0.0,-2.8801,-2.7864,-2.7039,-2.6075,-2.5725,-2.5234,-2.461,-2.4108,-2.3311,-2.2455,-2.1281,-2.0309,-1.9534,-1.7797,-1.5992,-1.4223,-1.3177,-1.1871,-1.0177,-0.9788,-0.9664,-0.9661,0.0,0.0,-1.0038,-0.963,-0.882,-0.7612,-0.6267,-0.522,-0.4309,-0.3098,-0.2694,-0.2694,0.0,0.0,0.0,0.0,0.0,0.0,0.0,0.0,0.0,0.0,0.0,0.0,0.0,0.0,0.0,0.0,0.0,0.0,0.0,0.0,0.0,0.631,0.772,0.8046,0.7383,0.6571,0.536,0.3886,0.1472,-0.0936,-0.3348,-0.5876,-0.9444,-1.3922,-1.6126,-1.8951,-2.1888,-2.3993,-2.596,-2.7922,-2.9517,0.0,0.0,0.0,0.0,0.0,0.0,0.0,0.0,-3.448,-3.4723,-3.5201,-3.548,0.0,0.0,0.0,0.0,0.0,-3.9594,-3.9111,-3.8318,-3.8035,-3.7536,-3.7024,-3.67,-3.6916,-3.7453,-3.7761,-3.7892,-3.7691,-3.7346,-3.6254,-3.5268,-3.4412,-3.3409,-3.283,-3.281,-3.2238,-3.1556,-3.0743,0.0,-2.9066,-2.7873,-2.7168,-2.6449,-2.5725,-2.5103,-2.461,-2.4232,-2.3106,-2.2034,-2.1375,-1.9853,-1.8296,-1.7093,-1.6753,-1.5564,-1.352,-1.2692,-1.1494,-0.9779,-0.9658,-0.9528,-0.9131,0.0,-0.9241,-0.9224,-0.8546,-0.7491,-0.6174,-0.524,-0.417,-0.2963,-0.2828,-0.2559,-0.2289,0.0,0.0,0.0,0.0,0.0,0.0,0.0,0.0,0.0,0.0,0.0,0.0,0.0,0.0,0.0,0.0,0.0,0.0,0.0,0.0,0.3683,0.3285,0.3994,0.4427,0.4967,0.3618,0.1875,-0.0268,-0.2405,-0.5208,-0.8568,-1.0916,-1.3913,-1.744,-1.9726,-2.2117,-2.4747,-2.6815,-2.8518,-3.009,0.0,0.0,0.0,0.0,0.0,0.0,0.0,0.0,0.0,0.0,-3.5942,-3.6329,-3.6432,0.0,0.0,0.0,0.0,0.0,-3.949,-3.8982,-3.827,-3.7429,-3.6963,-3.6592,-3.6145,-3.6363,-3.67,-3.7024,-3.7131,-3.6928,-3.6472,-3.5587,-3.4602,-3.3512,-3.2955,-3.2612,-3.2238,-3.1652,-3.084,-2.9804,0.0,-2.7993,-2.6796,-2.6327,-2.5725,-2.5103,-2.461,-2.3984,-2.3362,-2.2362,-2.1413,-2.0274,-1.9249,-1.781,-1.6191,-1.5603,-1.452,-1.2812,-1.2037,-1.0975,-0.964,-0.9661,-0.9534,-0.9131,0.0,-0.8984,-0.8839,-0.8041,-0.6982,-0.5518,-0.458,-0.3637,-0.2694,-0.2559,-0.2155,-0.175,0.0,0.0,0.0,0.0,0.0,0.0,0.0,0.0,0.0,0.0,0.0,0.0,0.0,0.0,0.0,0.0,0.0,0.0,0.0,0.2513,0.1454,0.066,0.0133,0.0537,0.2148,0.0536,-0.1472,-0.3878,-0.6138,-0.9335,-1.3367,-1.5534,-1.782,-2.0112,-2.263,-2.5114,-2.7434,-2.9238,-3.0791,-3.1977,0.0,0.0,0.0,0.0,0.0,0.0,0.0,0.0,0.0,0.0,0.0,0.0,0.0,0.0,0.0,-3.8865,-3.9245,-3.9697,-3.9478,-3.8945,-3.8198,-3.7239,-3.6592,-3.6036,-3.5598,-3.5719,-3.5938,-3.6254,-3.6254,-3.6036,-3.5587,-3.4814,-3.3829,-3.2841,-3.2612,-3.2373,-3.1787,-3.1073,-3.0138,-2.8856,-2.8011,-2.7039,-2.6075,-2.5725,-2.5234,-2.4487,-2.3984,-2.3355,-2.2355,-2.1601,-2.0676,-1.9453,-1.8634,-1.7411,-1.5648,-1.4674,-1.3582,-1.2242,-1.1501,-1.0714,-0.9766,-0.9664,-0.9404,-0.8995,-0.8859,-0.8587,-0.8182,-0.7393,-0.6191,-0.4984,-0.3907,-0.3099,-0.2559,-0.2289,-0.1885,-0.1616,0.0,0.0,0.0,0.0,0.0,0.0,0.0,0.0,0.0,0.0,0.0,0.0,0.0,0.0,0.0,0.0,0.0,0.0,0.0,-0.0403,-0.0939,-0.134,-0.295,-0.2951,-0.0805,-0.2545,-0.468,-0.7211,-0.96,-1.3025,-1.7093,-1.8866,-2.0876,-2.3274,-2.5367,-2.7425,-2.9691,-3.1351,-3.253,-3.347,-3.4412,0.0,0.0,0.0,0.0,0.0,0.0,0.0,0.0,0.0,0.0,0.0,0.0,0.0,-3.925,-3.9237,-3.9506,-3.9697,-3.9697,-3.905,-3.8303,-3.7986,-3.6893,-3.5598,-3.4736,-3.4635,-3.4736,-3.4914,-3.4803,-3.4703,-3.4591,-3.384,-3.3182,-3.2727,-3.2487,-3.2133,-3.1441,-3.0509,-2.945,-2.8259,-2.7547,-2.6709,-2.5725,-2.5357,-2.4857,-2.4232,-2.323,-2.2362,-2.1734,-2.0716,-1.968,-1.8634,-1.7976,-1.6586,-1.458,-1.3718,-1.3041,-1.2285,-1.1497,-1.0697,-0.9766,-0.9664,-0.9267,-0.8587,-0.8315,-0.7774,-0.7098,-0.6038,-0.4839,-0.3903,-0.3097,-0.2559,-0.2289,-0.2155,-0.2155,-0.2155,0.0,0.0,0.0,0.0,0.0,0.0,0.0,0.0,0.0,0.0,0.0,0.0,0.0,0.0,0.0,0.0,0.0,0.0,0.0,-0.3627,-0.4835,-0.5904,-0.6433,-0.6823,-0.7341,-0.8429,-0.9495,-1.0788,-1.4312,-1.7301,-1.9763,-2.1644,-2.3507,-2.5489,-2.7545,-2.9573,-3.1351,-3.2975,-3.4097,-3.4789,-3.5535,-3.6056,0.0,0.0,0.0,0.0,0.0,0.0,0.0,0.0,-3.8988,-3.9191,0.0,0.0,-3.9531,-3.9531,-3.9659,-3.9581,-3.927,-3.8736,-3.8198,-3.756,-3.6796,-3.5938,-3.5279,-3.4736,-3.4524,-3.4401,-3.4177,-3.3829,-3.3727,-3.3409,-3.3079,-3.2727,-3.2487,-3.2018,-3.1441,-3.0138,-2.8829,-2.7762,-2.6813,-2.5978,-2.5357,-2.4857,-2.4232,-2.3487,-2.2606,-2.1601,-2.0716,-1.996,-1.9054,-1.8262,-1.7323,-1.6043,-1.4408,-1.3443,-1.2513,-1.1604,-1.1101,-1.0439,-0.9766,-0.9664,-0.9131,-0.8315,-0.7907,-0.7374,-0.6579,-0.5512,-0.4575,-0.3771,-0.2694,-0.2289,-0.2155,-0.2155,-0.2155,-0.2155,0.0,0.0,0.0,0.0,0.0,0.0,0.0,0.0,0.0,0.0,0.0,0.0,0.0,0.0,0.0,0.0,0.0,0.0,-0.4565,-0.6174,-0.7917,-0.9256,-0.9495,-1.0538,-1.2517,-1.3604,-1.4128,-1.4079,-1.8215,-2.0783,-2.2166,-2.414,-2.5976,-2.7674,-2.9691,-3.1391,-3.2986,-3.4466,-3.539,-3.5988,-3.6622,-3.7053,0.0,0.0,0.0,0.0,0.0,0.0,0.0,0.0,-3.9531,0.0,0.0,0.0,0.0,0.0,-3.9697,-3.9581,-3.905,-3.8736,-3.8409,-3.7667,-3.7024,-3.6375,-3.5817,-3.4947,-3.43,-3.3974,-3.3636,-3.3296,-3.3079,-3.3079,-3.2965,-3.2737,-3.2373,-3.1903,-3.1092,-2.9766,-2.8343,-2.728,-2.6205,-2.5488,-2.4988,-2.4363,-2.3611,-2.2856,-2.1859,-2.0849,-1.9826,-1.92,-1.8553,-1.7496,-1.6689,-1.539,-1.3853,-1.2935,-1.201,-1.108,-1.0704,-1.0309,-0.9634,-0.9528,-0.8862,-0.7907,-0.7376,-0.6713,-0.5919,-0.4845,-0.404,-0.3233,-0.2425,-0.2155,-0.2155,-0.2155,-0.2155,-0.2155,0.0,0.0,0.0,0.0,0.0,0.0,0.0,0.0,0.0,0.0,0.0,0.0,0.0,0.0,0.0,0.0,0.0,0.0,-0.6443,-0.8171,-0.963,-1.0687,-1.2389,-1.3953,-1.539,-1.7446,-1.8099,-1.7076,-2.0783,-2.3318,-2.4556,-2.6624,-2.8298,-2.9935,-3.1466,-3.3121,-3.4615,-3.5736,-3.6536,-3.7204,-3.7725,-3.8198,-3.8409,0.0,0.0,0.0,0.0,0.0,0.0,0.0,-3.9697,0.0,0.0,0.0,0.0,-3.9697,-3.9697,-3.9685,-3.9374,-3.905,-3.8736,-3.8409,-3.7773,-3.6916,-3.6375,-3.5179,-3.3974,-3.3625,-3.3069,-3.2727,-3.2727,-3.2727,-3.2727,-3.2727,-3.2143,-3.1441,-3.0509,-2.9313,-2.8002,-2.6692,-2.597,-2.5357,-2.461,-2.3984,-2.3106,-2.2104,-2.1109,-2.01,-1.9078,-1.8699,-1.7916,-1.6473,-1.5809,-1.4497,-1.2795,-1.2056,-1.1405,-1.0721,-1.0313,-1.0038,-0.9634,-0.9256,-0.8451,-0.7503,-0.6715,-0.5785,-0.4713,-0.4038,-0.3096,-0.2155,-0.2155,-0.2155,-0.2155,-0.2155,-0.2155,-0.2155,0.0,0.0,0.0,0.0,0.0,0.0,0.0,0.0,0.0,0.0,0.0,0.0,0.0,0.0,0.0,0.0,0.0,0.0,-0.8964,-1.0683,-1.2266,-1.3574,-1.5139,-1.6695,-1.8238,-2.1022,-2.2166,-2.1658,-2.3683,-2.5423,-2.7004,-2.8655,-3.0081,-3.1265,-3.3049,-3.4441,-3.5479,-3.6708,-3.7501,-3.8019,-3.8416,-3.873,-3.9055,0.0,0.0,0.0,0.0,0.0,0.0,0.0,0.0,0.0,0.0,0.0,0.0,-3.9697,-3.9697,-3.9594,-3.9062,-3.8841,-3.8736,-3.8198,-3.756,-3.6916,-3.6375,-3.5268,-3.4166,-3.3172,-3.2841,-3.2727,-3.2727,-3.2727,-3.2612,-3.2487,-3.1903,-3.1092,-3.0157,-2.8719,-2.7521,-2.6692,-2.5594,-2.4734,-2.4232,-2.323,-2.2104,-2.1089,-2.0087,-1.9072,-1.8045,-1.7394,-1.6737,-1.5694,-1.4381,-1.305,-1.2096,-1.1094,-1.0585,-1.0313,-1.0038,-0.963,-0.9224,-0.8709,-0.7784,-0.6715,-0.5783,-0.498,-0.4308,-0.3366,-0.2693,-0.2155,-0.2155,-0.2155,-0.2155,-0.2155,-0.2155,-0.2155,0.0,0.0,0.0,0.0,0.0,0.0,0.0,0.0,0.0,0.0,-0.3773,-0.404,0.0,0.0,0.0,0.0,0.0,0.0,0.0,-1.3181,-1.4749,-1.6431,-1.7736,-1.94,-2.1672,-2.3923,-2.5293,-2.5766,-2.6399,-2.7495,-2.892,-3.0382,-3.1722,-3.2913,-3.4339,-3.5535,-3.6626,-3.7608,-3.8315,-3.8742,-3.9067,-3.9274,-3.9494,0.0,0.0,0.0,0.0,0.0,0.0,0.0,0.0,0.0,0.0,0.0,0.0,-3.9697,-3.9697,-3.9594,-3.9154,-3.905,-3.8841,-3.8409,-3.788,-3.7239,-3.6145,-3.5046,-3.3829,-3.2955,-3.2727,-3.2727,-3.2727,-3.2727,-3.2612,-3.2373,-3.1662,-3.0723,-2.9667,-2.8233,-2.703,-2.6083,-2.5095,-2.4108,-2.3604,-2.2487,-2.1475,-2.0329,-1.9444,-1.8425,-1.7136,-1.6478,-1.5564,-1.439,-1.2943,-1.1743,-1.092,-1.0022,-0.9643,-0.9785,-0.9229,-0.8823,-0.8427,-0.8048,-0.7257,-0.5921,-0.4577,-0.3905,-0.3635,-0.2828,-0.2424,-0.2155,-0.2155,-0.2155,-0.2155,-0.2155,-0.2155,-0.2155,0.0,0.0,0.4514,0.4256,0.0,0.0,0.0,0.0,0.0,0.0,-0.4445,-0.471,0.0,0.0,0.0,0.0,0.0,0.0,0.0,0.0,-1.7221,-1.9139,-2.043,-2.2327,-2.5194,-2.6277,-2.7478,-2.9048,-2.8701,-2.9294,-3.0461,-3.1772,-3.3142,-3.4571,-3.5479,-3.6529,-3.7679,-3.8506,-3.905,-3.9353,-3.9544,-3.9697,-3.9697,-3.9697,0.0,0.0,0.0,0.0,0.0,0.0,0.0,0.0,-3.9697,-3.9697,-3.9697,-3.9697,-3.9697,-3.9685,-3.9374,-3.9258,-3.9258,-3.8841,-3.8409,-3.7548,-3.5806,-3.4613,-3.3512,-3.2955,-3.2727,-3.2727,-3.2727,-3.2727,-3.2612,-3.2258,-3.1421,-3.0236,-2.9048,-2.7735,-2.6424,-2.5226,-2.4363,-2.3611,-2.2606,-2.1859,-2.0843,-1.9577,-1.8804,-1.777,-1.6343,-1.5569,-1.439,-1.2684,-1.1494,-1.0432,-0.9362,-0.8704,-0.8581,-0.8862,-0.8291,-0.7752,-0.7372,-0.7393,-0.6462,-0.5119,-0.3367,-0.2694,-0.2694,-0.2289,-0.2155,-0.2155,-0.2155,-0.2155,-0.2155,-0.2155,-0.2155,-0.2155,0.0,0.0,0.4772,0.5033,0.0,0.0,0.0,0.0,0.0,0.0,0.0,0.0,0.0,-0.791,0.0,0.0,0.0,0.0,0.0,0.0,-1.9801,-2.0936,-2.3069,-2.4933,-2.6529,-2.7727,-2.892,-3.002,-2.9776,-3.0411,-3.1802,-3.2872,-3.3952,-3.5256,-3.6294,-3.7394,-3.8222,-3.8884,-3.9403,-3.9659,-3.9685,-3.9697,-3.9697,-3.9697,-3.9697,0.0,0.0,0.0,0.0,0.0,0.0,0.0,-3.9697,-3.9697,-3.9697,-3.9697,-3.9697,-3.9685,-3.9374,-3.9258,-3.9258,-3.8841,-3.8198,-3.7441,-3.6243,-3.5245,-3.4368,-3.3614,-3.3296,-3.3079,-3.3079,-3.2727,-3.2133,-3.1556,-3.0743,-2.9677,-2.837,-2.7159,-2.5945,-2.4857,-2.3611,-2.2613,-2.1859,-2.0716,-1.9571,-1.8419,-1.7512,-1.6348,-1.4922,-1.3866,-1.2549,-1.0836,-0.9779,-0.8709,-0.7629,-0.7105,-0.7116,-0.7395,-0.6965,-0.6696,-0.6583,-0.6046,-0.4975,-0.3232,-0.2828,-0.2559,-0.2289,-0.2289,-0.2155,-0.2155,-0.2155,-0.2155,-0.2155,-0.2155,-0.2155,-0.2155,0.0,0.0,0.0,0.0,0.0,0.0,0.0,0.0,0.0,0.0,0.0,0.0,0.0,-0.976,0.0,0.0,-1.5009,0.0,0.0,-2.0182,-2.158,-2.3201,-2.5178,-2.6771,-2.7847,-2.9048,-3.0147,-3.1132,-3.1082,-3.1566,-3.2684,-3.347,-3.4637,-3.6065,-3.692,-3.7899,-3.8871,-3.9299,-3.9531,-3.9697,-3.9697,-3.9697,-3.9697,-3.9697,-3.9697,-3.9697,-3.9697,0.0,0.0,0.0,0.0,0.0,0.0,0.0,-3.9697,-3.9697,-3.9697,-3.9697,-3.9478,-3.9478,-3.9374,-3.8945,-3.821,-3.7358,-3.658,-3.5817,-3.4947,-3.4412,-3.3749,-3.3193,-3.3193,-3.2716,-3.2133,-3.1441,-3.0382,-2.9194,-2.7891,-2.6545,-2.5202,-2.3976,-2.2856,-2.1727,-2.0722,-1.9833,-1.8804,-1.7383,-1.6478,-1.5303,-1.3739,-1.2289,-1.0836,-0.9516,-0.8048,-0.698,-0.6305,-0.5638,-0.5644,-0.5921,-0.5506,-0.5235,-0.4841,-0.4708,-0.3902,-0.2694,-0.2559,-0.2424,-0.2155,-0.2155,-0.2155,-0.2155,-0.2155,-0.2289,-0.2422,-0.2422,-0.2557,-0.2691,0.0,0.0,0.0,0.0,0.0,0.0,0.0,0.0,0.0,0.0,0.0,0.0,0.0,0.0,-1.3844,0.0,0.0,0.0,0.0,-2.1832,-2.3325,-2.5562,-2.7021,-2.8224,-2.9166,-3.0138,-3.1005,-3.1858,-3.2164,-3.2706,-3.3264,-3.3856,-3.5156,-3.6811,-3.731,-3.827,-3.9353,-3.9659,-3.9697,-3.9697,-3.9697,-3.9697,-3.9697,-3.9697,-3.9697,-3.9697,-3.9697,-3.9697,-3.9697,-3.9697,0.0,0.0,0.0,0.0,-3.9697,-3.9697,-3.9697,-3.9581,-3.9581,-3.9594,-3.9374,-3.8841,-3.8104,-3.7477,-3.682,-3.6059,-3.5301,-3.498,-3.4086,-3.3306,-3.3182,-3.2716,-3.1903,-3.1208,-3.002,-2.871,-2.7392,-2.5928,-2.4456,-2.2981,-2.1985,-2.0976,-1.9577,-1.9072,-1.8168,-1.6478,-1.5564,-1.4259,-1.2553,-1.0836,-0.938,-0.8187,-0.6579,-0.5512,-0.4978,-0.4437,-0.4304,-0.4578,-0.4308,-0.3769,-0.3095,-0.3501,-0.3233,-0.2559,-0.2289,-0.2155,-0.2155,-0.2155,-0.2155,-0.2155,-0.2289,-0.2422,-0.269,-0.2824,-0.3093,-0.3362,0.0,0.0,0.0,0.0,0.0,0.0,0.0,0.0,0.0,0.0,-0.9241,-1.0833,0.0,0.0,0.0,-1.7485,-1.9164,0.0,-2.2606,0.0,0.0,-2.753,-2.8343,-2.9166,-3.0138,-3.1132,-3.1848,-3.2268,-3.2498,-3.2955,-3.3512,-3.4145,-3.5364,-3.7051,-3.7642,-3.8582,-3.9672,-3.9685,-3.9697,-3.9697,-3.9697,-3.9697,-3.9697,-3.9697,-3.9697,-3.9697,-3.9697,-3.9697,-3.9697,-3.9697,-3.9697,0.0,0.0,0.0,-3.9697,-3.9697,-3.9581,-3.9362,-3.9362,-3.9154,-3.8841,-3.8514,-3.7986,-3.7453,-3.6808,-3.6036,-3.5279,-3.4635,-3.4076,-3.3512,-3.3264,-3.2477,-3.1441,-3.0274,-2.9322,-2.7993,-2.6059,-2.4956,-2.3604,-2.1985,-2.1109,-2.0354,-1.9328,-1.8302,-1.7136,-1.5699,-1.439,-1.2812,-1.1101,-0.9646,-0.8051,-0.6313,-0.5376,-0.444,-0.3502,-0.3365,-0.3365,-0.3368,-0.3368,-0.3099,-0.2828,-0.2828,-0.2559,-0.2289,-0.2155,-0.2155,-0.2155,-0.2155,-0.2155,-0.2289,-0.2557,-0.2691,-0.2828,-0.3365,-0.39,-0.4167,0.0,0.0,0.0,0.0,0.0,0.0,0.0,0.0,0.0,0.0,0.0,-1.2153,0.0,0.0,0.0,0.0,0.0,0.0,-2.566,-2.7004,0.0,-2.9285,-2.9874,-3.0587,-3.1441,-3.2038,-3.2383,-3.2487,-3.2612,-3.3048,-3.3572,-3.4054,-3.5223,-3.6883,-3.7501,-3.8396,-3.9478,-3.9594,-3.9697,-3.9697,-3.9697,-3.9697,-3.9697,-3.9697,-3.9697,-3.9697,-3.9697,-3.9697,-3.9697,-3.9697,-3.9697,-3.9697,-3.9697,0.0,0.0,0.0,-3.9478,-3.927,-3.8841,-3.8303,-3.7773,-3.7667,-3.7012,-3.6243,-3.6036,-3.5279,-3.4513,-3.4054,-3.3491,-3.3037,-3.2924,-3.2123,-3.1092,-2.9795,-2.871,-2.7272,-2.557,-2.4092,-2.2738,-2.1481,-2.0348,-1.9328,-1.8302,-1.7394,-1.6219,-1.4656,-1.321,-1.1626,-0.9908,-0.8048,-0.6581,-0.5376,-0.417,-0.3366,-0.2964,-0.2693,-0.2558,-0.2559,-0.2559,-0.2559,-0.2424,-0.2289,-0.2289,-0.2155,-0.2155,-0.2155,-0.2155,-0.2155,-0.2289,-0.2422,-0.269,-0.3227,-0.3899,-0.4435,-0.5106,-0.591,0.0,0.0,0.0,0.0,0.0,0.0,0.0,0.0,0.0,0.0,0.0,0.0,0.0,0.0,0.0,0.0,0.0,0.0,-2.8444,0.0,0.0,0.0,0.0,-3.2153,-3.2602,-3.2841,-3.2955,-3.2841,-3.2841,-3.3037,-3.3561,-3.384,-3.4958,-3.6592,-3.7203,-3.8173,-3.9374,-3.9594,-3.9697,-3.9697,-3.9697,-3.9697,-3.9697,-3.9697,-3.9697,-3.9697,-3.9697,-3.9697,-3.9697,-3.9697,-3.9697,-3.9697,-3.9697,-3.9697,0.0,0.0,0.0,-3.8945,-3.8303,-3.756,-3.6916,-3.6796,-3.6036,-3.5256,-3.5035,-3.439,-3.3738,0.0,-3.2675,-3.2217,-3.1872,-3.1305,-3.049,-2.8938,-2.7744,-2.6415,-2.4579,-2.3223,-2.1859,-2.0722,-1.9711,-1.8559,-1.7394,-1.6613,-1.5434,-1.3608,-1.2025,-1.0439,-0.8848,-0.6713,-0.5242,-0.4571,-0.3366,-0.2694,-0.2559,-0.2289,-0.2155,-0.2154,-0.2124,-0.2109,-0.2109,-0.2109,-0.2109,-0.2109,-0.2109,-0.2109,-0.2112,-0.2142,-0.2422,-0.269,-0.3092,-0.3896,-0.4967,-0.5638,-0.6579,-0.7519,0.0,0.0,0.0,0.0,0.0,0.0,0.0,0.0,0.0,0.0,0.0,0.0,-1.5689,-1.7999,-2.0297,-2.2327,-2.454,0.0,0.0,0.0,0.0,0.0,0.0,0.0,-3.348,-3.3823,-3.3731,-3.3193,-3.3161,-3.3264,-3.3625,-3.3625,-3.4613,-3.6386,-3.7096,-3.8173,-3.9374,-3.9594,-3.9697,-3.9697,-3.9697,-3.9697,-3.9697,-3.9697,-3.9697,-3.9697,-3.9697,-3.9697,-3.9697,-3.9697,-3.9697,-3.9697,-3.9697,-3.9697,-3.9697,0.0,0.0,0.0,-3.7453,-3.6916,-3.6592,-3.6025,-3.5356,-3.4803,-3.4235,0.0,-3.3037,-3.2133,-3.1652,-3.1053,-2.9766,-2.9766,-2.9275,-2.6996,-2.6034,-2.4818,-2.2598,-2.1859,-2.1102,-1.9456,-1.9078,-1.8425,-1.6737,-1.5829,-1.4651,-1.2553,-1.0704,-0.9111,-0.7648,-0.591,-0.4572,-0.3902,-0.3097,-0.2559,-0.2289,-0.2155,-0.2155,-0.2153,-0.204,-0.211,-0.211,-0.1986,-0.1986,-0.1986,-0.211,-0.211,-0.2119,-0.25,-0.2555,-0.269,-0.4163,-0.4967,-0.5505,-0.6844,-0.7917,-0.8587,0.0,0.0,0.0,0.0,0.0,0.0,0.0,0.0,0.0,0.0,0.0,0.0,0.0,-1.8756,-2.1162,-2.3915,-2.7194,0.0,0.0,0.0,0.0,0.0,0.0,0.0,0.0,-3.4869,-3.4513,-3.3776,-3.3829,-3.3963,-3.4188,-3.4379,-3.5256,-3.6808,-3.7096,-3.7844,-3.905,-3.9478,-3.9697,-3.9697,-3.9697,-3.9697,-3.9697,-3.989,-3.9981,-3.9981,-4.0198,-4.0198,-4.0198,-4.0198,-4.0198,-4.0198,-3.9981,-3.9981,-3.9878,-3.927,-3.8502,-3.7643,-3.7024,-3.6048,-3.5168,-3.4803,-3.4022,-3.3356,-3.2685,-3.2102,-3.1411,-3.0733,-3.0119,-2.9394,-2.8095,-2.8086,-2.7838,-2.6164,-2.481,-2.345,-2.1978,-2.1096,-2.0208,-1.92,-1.8431,-1.7523,-1.5959,-1.4782,-1.3337,-1.1362,-0.964,-0.7912,-0.6579,-0.4973,-0.3768,-0.3097,-0.2693,-0.2276,-0.2117,-0.2142,-0.2116,-0.2039,-0.1997,-0.1977,-0.1977,-0.1977,-0.21,-0.2347,-0.2347,-0.2347,-0.2482,-0.3019,-0.349,-0.4163,-0.5099,-0.6174,-0.725,-0.8182,-0.8984,-0.9655,0.0,0.0,0.0,0.0,0.0,0.0,0.0,0.0,0.0,-1.1214,0.0,0.0,0.0,0.0,-2.2395,-2.6098,-2.9129,-3.1632,-3.348,-3.3818,0.0,0.0,0.0,0.0,0.0,-3.5968,-3.5542,-3.4748,-3.4703,-3.4736,-3.4947,-3.5256,-3.6013,-3.7239,-3.7429,-3.8068,-3.905,-3.9478,-3.9697,-3.9697,-3.9788,-3.989,-3.9993,-4.0287,-4.0377,-4.058,-4.0681,-4.0795,-4.0795,-4.0795,-4.0795,-4.0694,-4.0389,-4.0083,-3.9672,-3.8945,-3.808,-3.7203,-3.6472,-3.5268,-3.4166,-3.3685,-3.2892,-3.1988,-3.1305,-3.0597,-3.0001,-2.9194,-2.8582,-2.7718,-2.6529,-2.6034,-2.5538,-2.4702,-2.3464,-2.2215,-2.1096,-2.0214,-1.945,-1.8688,-1.7781,-1.6613,-1.5047,-1.3735,-1.2289,-1.0439,-0.8712,0.0,-0.578,-0.4438,-0.323,-0.2559,-0.2289,-0.2136,-0.2095,-0.2108,-0.2068,-0.1977,-0.1977,-0.21,-0.2224,-0.2224,-0.2471,-0.2842,-0.3082,-0.3116,-0.2932,-0.3701,-0.4427,-0.5233,-0.6305,-0.7381,-0.859,-0.9386,-1.005,-1.0588,0.0,0.0,0.0,0.0,0.0,0.0,0.0,0.0,-0.9505,-1.0958,0.0,0.0,0.0,0.0,0.0,-2.9002,-3.0344,-3.1642,-3.3512,-3.4155,0.0,0.0,0.0,0.0,0.0,-3.7145,-3.6811,-3.6231,-3.6025,-3.5806,-3.5806,-3.6134,-3.6785,-3.7655,-3.8198,-3.8736,-3.9374,-3.9581,-3.9697,-3.9685,-3.9981,-4.0287,-4.0504,-4.0883,-4.1071,-4.1372,-4.1358,-4.1358,-4.1372,-4.1372,-4.1372,-4.1272,-4.0694,-3.9981,-3.9154,-3.8619,-3.7773,-3.6808,0.0,0.0,0.0,-3.2903,-3.1988,-3.0937,-3.0001,-2.9285,-2.8573,-2.7633,-2.6892,-2.6156,-2.5194,-2.372,-2.2613,-2.248,-2.1985,-2.1102,-1.9833,-1.9328,-1.8688,-1.7664,-1.6872,-1.5824,-1.4006,-1.2951,-1.1497,-0.9779,-0.8051,-0.6449,-0.5381,-0.3901,-0.2826,-0.2155,-0.2155,-0.2135,-0.2095,-0.2056,-0.2016,-0.1977,-0.1977,-0.2224,-0.2471,-0.2471,-0.2842,-0.3584,-0.4173,-0.4185,-0.3752,-0.4424,-0.523,-0.617,-0.7517,-0.8587,-0.925,-1.0319,-1.0986,-1.1247,0.0,0.0,0.0,0.0,0.0,0.0,-0.7238,-0.8353,-0.9472,0.0,0.0,0.0,-1.656,-2.1971,-2.7056,-3.0771,-3.2187,-3.347,-3.4858,-3.5202,-3.5688,-3.6438,-3.6881,0.0,-3.7418,-3.7631,-3.7512,-3.7084,-3.7084,-3.6977,-3.7096,-3.7322,-3.7868,-3.8526,-3.8841,-3.9258,-3.9581,-3.9697,-3.9788,-3.9981,-4.0287,-4.0694,-4.1172,-4.1743,-4.2039,-4.2248,-4.2541,-4.2555,-4.2484,-4.2484,-4.2484,-4.2275,-4.1372,-4.0377,-3.9478,-3.8619,-3.7429,-3.6243,-3.5245,0.0,0.0,0.0,0.0,0.0,-2.8095,-2.7486,-2.7004,-2.6294,-2.5448,-2.4587,-2.4092,-2.2856,-2.1607,-2.0963,-2.0462,-1.996,-1.9328,-1.895,-1.8308,-1.6866,-1.6089,-1.5043,-1.321,-1.1894,-1.0435,0.0,-0.725,-0.5915,-0.4305,-0.3096,-0.2423,-0.2155,-0.2155,-0.2128,-0.2073,-0.2048,-0.2142,-0.2347,-0.2347,-0.2718,-0.3214,-0.3211,-0.3697,-0.4542,-0.4891,-0.5524,-0.6169,-0.6433,-0.7012,-0.7897,-0.8845,-0.9519,-1.0054,-1.0717,-1.1118,-1.1247,0.0,0.0,0.0,0.0,0.0,0.0,-0.7068,-0.8437,-0.9673,0.0,0.0,0.0,-1.8842,-2.3484,-2.7683,-3.1023,-3.2414,-3.3607,-3.4946,-3.5368,-3.5942,-3.6484,-3.6855,-3.7227,-3.7536,-3.7904,-3.7868,-3.7737,-3.7737,-3.7749,0.0,0.0,-3.8619,-3.905,-3.9374,-3.9581,-3.989,-3.989,-3.9981,-4.0287,-4.0795,-4.1471,-4.2124,-4.2806,-4.3286,-4.3586,-4.3857,-4.3885,-4.3804,-4.3723,-4.3245,-4.2555,-4.1769,-4.058,-3.9374,-3.8514,-3.7215,-3.5795,-3.4692,-3.3109,-3.1516,-2.9982,0.0,0.0,-2.6277,-2.5546,-2.4933,-2.4324,-2.3457,-2.2724,-2.2223,-2.1222,-2.0214,-1.9316,-1.8932,-1.8682,-1.8431,-1.8045,-1.726,-1.5954,-1.5043,-1.387,-1.2293,-1.0969,-0.964,-0.7912,-0.6849,-0.5377,-0.3632,-0.2692,-0.2155,-0.2155,-0.2155,-0.2125,-0.2065,-0.2181,-0.2403,-0.247,-0.284,-0.3212,-0.3832,-0.4196,-0.4803,-0.5774,-0.6244,-0.7071,-0.8009,-0.8242,-0.8527,-0.9102,-0.9646,-1.0187,-1.0721,-1.1251,-1.1512,-1.1644,0.0,0.0,0.3889,0.0939,-0.1742,-0.4424,-0.6973,-0.872,-0.9927,0.0,-1.2692,-1.6302,-2.1888,-2.4278,-2.6987,-3.0616,-3.1832,-3.3059,-3.4575,-3.528,-3.5866,-3.6344,-3.6901,0.0,0.0,0.0,0.0,0.0,0.0,0.0,0.0,-3.8724,-3.905,-3.9374,-3.9697,-3.989,-4.0173,-4.0173,-4.0389,-4.0707,-4.1398,-4.2346,-4.3368,-4.3965,-4.462,-4.525,-4.5264,-4.5341,-4.525,-4.4911,-4.3776,-4.2417,-4.198,-4.0681,-3.9154,-3.8303,-3.6893,-3.5356,-3.3797,-3.2197,-3.0577,-2.8573,-2.7125,0.0,-2.4564,-2.3464,-2.2598,-2.195,-2.1195,-2.0569,-1.9941,-1.9316,-1.8553,-1.7776,-1.7394,-1.7271,-1.7276,-1.6742,-1.5954,-1.4907,-1.3866,-1.2692,-1.1247,-1.0047,-0.8845,-0.7514,-0.6311,-0.4973,-0.3362,-0.2558,-0.2289,-0.2289,-0.2289,-0.226,-0.2199,-0.2582,-0.2669,-0.2713,-0.3453,-0.4071,-0.469,-0.5298,-0.6162,-0.7153,-0.7744,-0.8465,-0.9217,-0.9745,-0.99,-0.976,-1.018,-1.0721,-1.1247,-1.1648,-1.2045,-1.2177,1.1702,0.948,0.6829,0.4014,0.0,0.0,0.0,-0.8166,-1.0047,-1.138,-1.3853,-1.7183,-2.1623,-2.434,-2.7384,-3.1211,-3.3069,-3.4547,-3.5863,-3.6444,-3.6781,-3.6986,-3.7287,0.0,0.0,0.0,0.0,0.0,0.0,0.0,0.0,0.0,-3.9349,-3.9685,-4.0096,-4.0402,-4.0402,-4.0694,-4.0984,-4.1498,-4.1881,-4.2736,-4.3965,-4.4833,-4.5642,-4.6226,-4.6447,-4.6535,-4.6432,-4.5656,-4.4448,-4.3218,-4.2555,-4.1071,-3.9374,-3.8279,-3.6545,-3.467,-3.2602,-3.0771,-2.8783,-2.6244,-2.5162,0.0,-2.2201,-2.1454,-2.0956,-2.0182,-1.9285,-1.8518,-1.8396,-1.763,-1.6732,-1.6068,-1.5689,-1.5569,-1.6229,-1.5964,-1.5173,-1.387,-1.2816,-1.163,-1.0575,-0.9117,-0.7917,-0.6711,-0.5106,-0.4035,-0.3768,-0.2962,-0.2693,-0.296,-0.2693,-0.2673,-0.3021,-0.3243,-0.3682,-0.4063,-0.4677,-0.5535,-0.6392,-0.6877,-0.737,-0.8116,-0.8705,-0.9316,-0.9836,-1.0511,-1.0644,-1.0417,-1.0802,-1.1115,-1.1251,-1.1909,-1.2045,-1.1912,1.5082,1.3008,1.0514,0.7722,0.0,0.0,0.0,-0.588,-0.8435,-1.0445,-1.3726,-1.7546,-2.1981,-2.4781,-2.8033,-3.2143,-3.4303,-3.5847,-3.6975,-3.7524,-3.7678,-3.7571,-3.769,0.0,0.0,0.0,0.0,0.0,0.0,0.0,0.0,0.0,-3.9337,-3.9878,-4.0491,-4.0896,-4.1285,-4.1285,-4.1782,-4.2484,-4.2387,-4.3136,-4.4462,-4.5216,-4.6181,-4.7031,-4.7336,-4.7336,-4.7133,-4.6166,-4.4776,-4.3368,-4.2444,-4.0756,-3.9025,-3.7607,-3.5727,-3.3487,-3.1186,-2.8974,-2.6841,-2.4401,-2.3047,0.0,0.0,-1.9158,-1.8396,-1.7608,-1.6705,-1.5934,-1.5679,-1.5159,-1.4502,-1.3984,-1.3587,-1.3325,-1.36,-1.3731,-1.3473,-1.2429,-1.1369,-1.0306,-0.925,-0.8187,-0.7118,-0.6046,-0.4839,-0.4304,-0.4304,-0.3633,-0.3365,-0.3764,-0.3365,-0.3477,-0.3954,-0.4315,-0.4748,-0.5351,-0.5927,-0.6759,-0.7609,-0.8085,-0.8815,-0.9677,-1.0048,-1.0653,-1.114,-1.161,-1.1677,-1.1676,-1.1682,-1.1833,-1.2301,-1.2437,-1.2441,-1.2177,1.9398,1.7112,1.4785,1.2165,0.0,0.0,0.0,0.0,-0.4923,-0.788,-1.1721,-1.5869,-2.0172,-2.4232,-2.8192,-3.2103,-3.4896,-3.7015,-3.8372,-3.8748,-3.879,-3.8448,0.0,-3.8185,0.0,0.0,0.0,0.0,0.0,0.0,0.0,-3.8687,-3.9428,-4.0275,-4.087,-4.1571,-4.2262,-4.2079,-4.2568,-4.3355,-4.2873,-4.3533,-4.4833,-4.5398,-4.6462,-4.7664,-4.8034,-4.7949,-4.7493,-4.6476,-4.4995,-4.3327,-4.2052,-4.0351,-3.8465,-3.6834,-3.4681,-3.2064,-2.9653,-2.7159,-2.4877,-2.2688,-2.1049,-1.9515,0.0,0.0,0.0,-1.4889,-1.3849,-1.307,-1.2816,0.0,0.0,-1.1622,0.0,0.0,0.0,-1.0962,0.0,-1.0979,-0.9911,-0.8848,-0.8056,-0.7252,-0.6449,-0.5515,-0.5243,-0.5108,-0.5109,-0.4572,-0.4437,-0.4704,-0.4437,-0.4546,-0.5154,-0.5666,-0.5974,-0.6571,-0.7217,-0.8008,-0.883,-0.9421,-1.0269,-1.1121,-1.1514,-1.1993,-1.2564,-1.2715,-1.3054,-1.3233,-1.2656,-1.2775,-1.3434,-1.3083,-1.2836,-1.2441,2.5504,2.2348,1.9965,1.7799,0.0,0.0,0.0,0.0,0.183,-0.2916,-0.6237,-0.9016,-1.1624,-2.0164,-2.6624,-2.876,-3.3907,-3.8012,-4.0309,-4.0707,-4.0514,-3.9943,0.0,0.0,-3.9403,0.0,0.0,0.0,0.0,0.0,0.0,0.0,-3.993,-4.0883,-4.1842,-4.2514,-4.3026,-4.3026,-4.341,-4.3885,-4.3614,-4.4087,-4.5124,-4.5851,-4.6887,-4.8003,-4.8635,-4.8469,-4.7779,0.0,-4.5087,-4.3598,-4.215,-4.0236,-3.8137,-3.6271,-3.3636,-3.076,-2.8226,-2.5465,-2.2908,-2.0816,-1.9158,-1.7345,-1.5679,0.0,-1.3058,-1.2266,0.0,-1.0568,-1.0571,0.0,0.0,0.0,0.0,0.0,-0.7912,-0.7781,-0.8182,-0.9646,-0.8579,-0.7648,-0.7514,-0.6579,-0.5914,-0.5381,-0.5912,-0.6178,-0.6183,-0.6178,-0.6178,-0.6183,-0.6178,-0.6305,-0.67,-0.7278,-0.7689,-0.7944,-0.883,-0.9575,-1.0058,-1.1023,-1.1748,-1.2113,-1.2719,-1.3204,-1.3559,-1.3913,-1.4301,-1.4646,-1.3996,-1.3598,-1.3517,-1.3687,-1.296,-1.1776,3.074,2.7912,2.5972,2.3999,0.0,0.0,0.0,0.0,0.9279,0.6072,0.3737,0.0904,-0.288,-1.3849,-2.2814,-2.7339,-3.6603,-4.295,-4.4572,-4.4172,-4.336,-4.2269,0.0,0.0,0.0,0.0,0.0,0.0,-3.9481,0.0,0.0,0.0,-4.0919,-4.1842,-4.2902,-4.3776,-4.4541,-4.4499,-4.4854,0.0,0.0,-4.5764,0.0,-4.6284,-4.7061,-4.8355,-4.8965,-4.8718,-4.8034,0.0,-4.5283,0.0,0.0,-3.9802,-3.7713,-3.5398,-3.2643,-2.9742,-2.7056,-2.4016,-2.1182,-1.9291,0.0,0.0,-1.3189,0.0,-1.0287,-0.9908,0.0,0.0,0.0,0.0,0.0,0.0,-0.6443,-0.6447,0.0,0.0,-0.6583,-0.7915,0.0,0.0,-0.591,-0.5778,-0.5646,-0.5646,-0.6579,-0.7114,-0.7388,-0.7381,-0.7379,-0.7653,-0.7514,-0.7646,-0.8184,-0.8535,-0.8844,-0.9233,-0.9738,-1.0471,-1.1298,-1.2047,-1.2835,-1.3674,-1.4157,-1.4634,-1.511,-1.5079,-1.5219,-1.5541,-1.515,-1.4818,-1.4382,-1.4065,-1.3087,-1.1901,3.7993,3.4832,3.2564,3.0727,0.0,0.0,0.0,0.0,1.8909,1.7003,1.607,1.3923,0.9195,-0.623,-1.8263,-2.3073,-3.8039,-4.7544,-4.8388,-4.7476,-4.623,-4.4661,-4.4051,-4.3557,0.0,0.0,0.0,0.0,0.0,0.0,0.0,0.0,-4.2012,-4.2889,-4.3951,-4.5081,-4.6016,0.0,-4.6462,-4.7073,-4.7058,-4.7488,-4.8012,-4.7291,-4.7819,-4.8949,-4.9356,-4.9113,-4.8438,-4.7261,-4.5796,0.0,-4.1847,-3.9752,-3.7583,-3.4947,-3.2199,-2.9291,-2.6591,0.0,0.0,0.0,0.0,0.0,0.0,0.0,0.0,0.0,0.0,0.0,0.0,0.0,-0.4567,-0.4431,0.0,-0.4707,0.0,-0.5111,0.0,-0.6581,0.0,0.0,0.0,-0.5243,-0.578,-0.618,-0.725,-0.7917,-0.8323,-0.8584,-0.8715,-0.8856,-0.8715,-0.8848,-0.9386,-0.9516,-0.9714,-1.01,-1.0472,-1.1203,-1.2147,-1.2928,-1.3794,-1.4873,-1.5348,-1.5709,-1.6183,-1.5897,-1.58,-1.5769,-1.5719,-1.5281,-1.4558,-1.4043,-1.3083,-1.1762,4.86,4.4026,3.9705,3.8014,3.7331,0.0,0.0,0.0,3.1559,2.9558,3.0767,3.0299,2.6378,0.2752,-1.3105,-1.378,-3.6115,-5.0393,-5.0874,-5.0187,-4.8873,-4.6785,-4.6269,-4.5917,-4.5573,0.0,0.0,0.0,0.0,0.0,0.0,0.0,0.0,0.0,-4.513,-4.6226,-4.7204,-4.7603,-4.8095,-4.8414,-4.8584,-4.9088,-4.9647,0.0,-4.9325,-4.9597,-4.9852,0.0,0.0,-4.8164,-4.6795,0.0,0.0,0.0,0.0,0.0,0.0,0.0,0.0,0.0,0.0,-1.7953,0.0,0.0,0.0,0.0,-0.2949,0.0,0.0,0.0,0.0,-0.1746,-0.2016,-0.2824,-0.2555,0.0,0.0,-0.3905,-0.417,-0.5778,-0.5647,0.0,0.0,-0.551,-0.6182,-0.6851,-0.792,-0.8717,-0.9117,-0.9788,-0.9927,-0.9661,-0.9927,-1.0193,-1.019,-1.0455,-1.0643,-1.049,-1.1239,-1.1956,-1.2517,-1.3889,-1.4873,-1.5601,-1.6183,-1.6431,-1.6442,-1.6144,-1.5693,-1.5189,-1.5217,-1.4552,-1.3352,-1.3734,-1.2816,-1.0965,3.8089,3.6296,3.6898,4.3387,4.4275,4.3972,4.3469,3.7812,3.1627,2.6218,1.8741,1.0834,0.2735,-1.4687,-2.7214,-3.0715,-4.5672,-5.5101,-5.5402,-5.4385,-5.2804,-5.0818,-5.0212,-4.9589,-4.876,0.0,0.0,0.0,0.0,0.0,0.0,0.0,0.0,0.0,0.0,-4.8635,0.0,0.0,0.0,0.0,0.0,-5.1122,-5.1467,0.0,-4.9789,-4.9979,-5.0042,-4.9963,0.0,-4.8594,-4.7342,-4.5723,-4.3529,-4.1301,-3.8993,-3.643,-3.3524,0.0,0.0,0.0,-2.0995,-1.8721,0.0,0.0,0.0,0.0,0.0,0.0,0.0,0.0,0.0,0.0,-0.0,0.0403,-0.0403,-0.1211,0.0,-0.2151,-0.3227,-0.4708,-0.471,-0.4575,0.0,0.0,-0.5915,-0.6585,-0.7786,-0.8856,-0.9525,-1.019,-1.0455,-1.0323,-1.0455,-1.0588,-1.0588,-1.0588,-1.0826,-1.1034,-1.1652,-1.2377,-1.3319,-1.4348,-1.5262,-1.5963,-1.6183,-1.6183,-1.6183,-1.5387,-1.4811,-1.4326,-1.3766,-1.3044,-1.2328,-1.2686,-1.1894,-1.0174,3.2652,3.2249,3.3985,4.0517,4.1466,4.1197,4.082,3.3945,2.6386,1.959,1.0239,0.119,-0.6707,-2.2139,-3.3165,-3.626,-4.9971,-5.8428,-5.8296,-5.7303,-5.588,-5.4112,-5.3599,-5.2889,-5.1899,-5.2017,0.0,0.0,0.0,-4.9483,0.0,0.0,0.0,0.0,0.0,-5.0778,-5.1115,-5.1443,-5.1767,0.0,0.0,-5.2769,0.0,0.0,-5.107,-5.1011,0.0,-5.0723,-5.04,-4.9343,-4.805,-4.6373,-4.4279,-4.2088,-3.9739,-3.7512,-3.488,-3.2199,-3.0238,-2.6618,0.0,-2.0194,-1.5435,0.0,-0.7469,0.0,-0.1478,0.0,0.0,0.0,0.0,0.0,0.1614,0.2555,0.1883,0.1211,0.0,-0.0403,-0.1883,-0.3228,-0.3902,-0.4441,-0.471,-0.5381,-0.6185,-0.6989,-0.8053,-0.9123,-0.9794,-1.0455,-1.0721,-1.0721,-1.0721,-1.0721,-1.0721,-1.0721,-1.0853,-1.1244,-1.1808,-1.2533,-1.3537,-1.4372,-1.5137,-1.5596,-1.5709,-1.558,-1.5213,-1.4316,-1.3608,-1.2982,-1.2243,-1.1502,-1.0856,-1.1392,-1.0435,-0.8443,3.1938,3.1202,3.0363,2.9515,2.971,2.9394,2.7672,2.2511,1.6499,1.0189,0.5078,0.0535,-0.3398,-2.0709,-3.1903,-3.1562,-4.9307,-6.0195,-5.9454,-5.8892,-5.7976,-5.6598,-5.6379,-5.5843,-5.5009,-5.5044,-5.4638,0.0,0.0,0.0,0.0,0.0,0.0,0.0,-5.2572,0.0,-5.2994,-5.3263,-5.3547,-5.3778,-5.3943,-5.4072,-5.4166,-5.3482,-5.3043,-5.2644,-5.2164,-5.1875,-5.1475,-5.026,-4.8841,-4.7115,-4.5226,-4.278,-4.0477,-3.8834,-3.6499,-3.409,-3.2571,-2.9108,-2.5254,-2.2238,-1.6892,0.0,0.0,0.0,-0.1879,0.0,0.0,0.0,0.0,0.0,0.0,0.3498,0.4038,0.4038,0.3094,0.1345,-0.0269,-0.1344,-0.3094,-0.4575,-0.5247,-0.6051,-0.6989,-0.8058,-0.872,-0.9386,0.0,-1.0455,-1.0721,-1.0721,-1.0721,-1.0721,-1.0721,-1.0721,-1.085,-1.1244,-1.1838,-1.2557,-1.3277,-1.4115,-1.452,-1.451,-1.4753,-1.4391,-1.3545,-1.2804,-1.2076,-1.1163,-1.0781,-0.9925,-0.916,-0.9849,-0.8443,-0.5906,1.5351,1.4422,1.3754,1.38,2.2554,2.8567,2.5593,0.0,0.0,0.0,-1.5489,-2.6287,-3.5457,-4.3251,-4.8508,-5.0113,-5.5885,-5.9417,-5.9398,-5.959,-5.9347,-5.8583,-5.8711,-5.8415,-5.7648,-5.7758,-5.7453,-5.6722,0.0,0.0,-5.5888,0.0,0.0,0.0,0.0,0.0,-5.508,-5.508,-5.5262,-5.5565,-5.549,-5.5627,-5.5762,0.0,-5.4695,-5.4293,-5.275,-5.202,-5.1475,-5.0025,-4.8368,-4.6666,-4.4691,-4.2614,-4.049,-3.908,-3.6965,-3.4792,-3.2943,-2.9985,-2.6627,-2.3417,-1.8849,-1.4248,0.0,0.0,0.0,0.0,0.0,0.0,0.0,0.0,0.0,0.5248,0.5383,0.4844,0.4037,0.2555,0.1345,0.0538,-0.1613,-0.3631,-0.4841,-0.5915,-0.6853,-0.765,-0.8584,-0.9386,-1.019,0.0,-1.0721,-1.0721,-1.0721,-1.0721,-1.0721,-1.0721,-1.0986,-1.1644,-1.1953,-1.2422,-1.3286,-1.3405,-1.3327,-1.3181,-1.2711,-1.2346,-1.1856,-1.0887,-1.0276,-0.9707,-0.8744,-0.7916,-0.7348,-0.8182,-0.6846,-0.4297,0.782,0.6544,0.5498,0.5083,1.0597,0.0,1.2814,0.3917,0.0,-1.7143,-2.7915,0.0,-4.7294,-5.0565,-5.3047,-5.5605,-5.7001,0.0,-5.8726,0.0,-5.962,-5.9604,-5.9856,-5.9845,-5.9484,-5.9491,-5.9283,-5.88,0.0,0.0,-5.8311,0.0,0.0,0.0,0.0,-5.7624,-5.7088,-5.674,-5.6786,-5.7043,-5.6888,-5.6903,0.0,-5.5954,-5.5324,-5.4735,-5.2745,-5.1741,-5.1067,-4.9091,-4.7216,-4.5302,-4.3547,-4.1868,-4.0243,-3.8951,-3.7228,-3.5356,-3.3519,-3.0597,-2.7262,-2.4055,-1.9783,-1.5713,-1.2338,-0.9323,-0.6949,0.0,-0.4554,-0.3486,0.0,0.0,0.0,0.5381,0.5515,0.4977,0.4441,0.3905,0.296,0.1075,-0.121,-0.3093,-0.417,-0.578,-0.7118,-0.7917,-0.8853,-0.9655,0.0,0.0,-1.0721,-1.0721,-1.0588,-1.0455,-1.0455,-1.0323,-1.0555,-1.1275,-1.1368,-1.1837,-1.2545,-1.2352,-1.2084,-1.1623,-1.114,-1.0532,-0.9926,-0.9076,-0.8459,-0.7883,-0.702,-0.6004,-0.5109,-0.5376,-0.4298,-0.2553,0.5652,0.4121,0.2415,0.0939,-0.1738,0.0,0.0,-1.0479,0.0,-2.7317,0.0,-3.9577,-4.6168,-4.808,-5.0105,-5.2959,-5.452,-5.5988,-5.7413,-5.8316,-5.9096,-5.9805,-6.0169,-6.0405,-6.0545,-6.0409,-6.0206,0.0,0.0,0.0,0.0,0.0,0.0,0.0,0.0,0.0,0.0,-5.8219,-5.8061,-5.8166,-5.8042,-5.7944,-5.7827,-5.6328,-5.5388,-5.4581,-5.2538,-5.1302,-5.0342,-4.7846,-4.5683,-4.3805,-4.2084,-4.0708,-3.9492,-3.8276,-3.6825,-3.5241,-3.3306,-3.0412,-2.7123,-2.3856,-2.001,-1.6234,-1.3683,-1.1208,-0.9368,-0.8565,-0.7633,-0.6162,0.0,0.0,0.0,0.0,0.0,0.0,0.0,0.4311,0.3771,0.1075,-0.121,0.0,-0.3632,-0.5646,-0.7386,-0.832,-0.9125,0.0,0.0,0.0,-1.0721,-1.0721,-1.0323,-1.0193,-1.0193,-0.9927,-0.9987,-1.049,-1.059,-1.0811,-1.1406,-1.1107,-1.0668,-1.0061,-0.9687,-0.8958,-0.7986,-0.7497,-0.6644,-0.5702,-0.5129,-0.4166,-0.2821,-0.2151,-0.1479,-0.0672,0.3931,0.2376,0.0928,-0.0804,-0.3739,-0.7167,-1.1196,-1.5145,-2.0081,-2.672,-3.087,-3.5017,-3.9745,-4.25,-4.5125,-4.8042,-5.0692,0.0,0.0,0.0,0.0,-5.897,-5.963,-6.008,-6.0265,-6.0016,-5.9727,0.0,0.0,0.0,0.0,0.0,0.0,0.0,0.0,0.0,-5.9409,-5.9203,0.0,-5.9185,-5.8557,-5.8348,-5.8249,-5.6981,-5.602,-5.504,-5.287,-5.1003,-4.9273,-4.7244,-4.5095,-4.305,-4.1186,-3.9503,-3.7917,-3.5912,-3.4189,-3.2306,-2.9507,-2.7229,-2.4858,-2.1882,-1.925,-1.6943,-1.4586,-1.2943,-1.1505,-1.0843,-0.9775,-0.8709,-0.7376,0.0,0.0,0.0,0.0,0.0,0.0,0.0,0.1075,0.121,-0.0806,-0.2824,-0.4038,-0.5647,-0.6719,-0.7252,-0.8451,0.0,0.0,0.0,-1.0721,0.0,-1.0323,0.0,0.0,0.0,-0.9987,-1.049,-1.0078,-1.0185,-1.0791,-1.0012,-0.9332,-0.872,-0.8113,-0.7255,-0.6274,-0.6158,-0.485,-0.2658,-0.2604,-0.1993,-0.1076,-0.0269,0.0942,0.2154,0.2853,0.1302,-0.0391,-0.2752,0.0,0.0,0.0,-1.7285,-2.1014,-2.5786,-2.8319,-3.1365,-3.5363,-3.8054,-4.0936,-4.4475,-4.7384,-4.9888,-5.2117,-5.4259,-5.6073,-5.7387,-5.8387,-5.9137,-5.9674,-5.9509,-5.9109,-5.8472,0.0,0.0,0.0,0.0,0.0,0.0,0.0,-5.9084,0.0,0.0,0.0,-5.937,-5.9051,-5.8682,-5.8209,-5.7086,-5.6169,-5.5296,-5.3182,-5.1122,-4.8865,-4.6181,-4.3805,-4.1635,-3.9623,-3.8152,-3.6702,-3.4302,-3.2349,-3.0348,-2.7196,-2.468,-2.2386,-1.9421,-1.7394,-1.5705,-1.392,-1.2934,-1.22,-1.2023,-1.125,-0.982,-0.7355,-0.3615,0.0,0.0,0.0,0.0,0.0,0.0,-0.121,-0.0538,-0.1479,-0.2555,-0.3636,-0.444,-0.5512,-0.6713,-0.8051,0.0,0.0,0.0,-1.0721,0.0,0.0,0.0,-0.9927,0.0,-0.9225,-0.9604,-0.9209,-0.9196,-0.9432,-0.8876,-0.8113,-0.738,-0.6648,-0.5663,-0.4559,-0.3736,-0.2517,-0.1147,-0.0656,-0.0134,0.0538,0.1481,0.2423,0.3231,0.192,0.0257,-0.1795,0.0,-0.7986,-1.1505,-1.5095,-1.7949,-2.0929,-2.4271,-2.6017,-2.8116,-3.1496,-3.4109,-3.7025,-4.0854,-4.3906,-4.6776,-4.9346,-5.1765,-5.3811,-5.534,-5.6713,-5.7737,-5.8474,-5.8396,-5.7844,0.0,0.0,0.0,0.0,0.0,0.0,0.0,0.0,0.0,0.0,0.0,-5.9541,-5.9003,-5.8858,-5.8428,-5.7779,-5.6736,-5.6013,-5.5343,-5.3604,-5.0926,-4.7672,-4.4369,-4.2139,-4.0419,-3.8366,-3.6471,-3.4504,-3.2174,-2.9947,-2.7549,-2.4515,-2.2009,-1.9574,-1.6997,-1.5448,-1.4246,-1.3039,-1.2552,-1.2345,-1.2479,-1.1861,-1.0211,-0.6905,-0.4799,0.0,0.0,0.0,0.0,0.0,0.0,-0.3496,-0.3092,-0.2957,-0.2958,-0.3097,-0.3633,-0.4707,-0.6044,0.0,0.0,-0.9383,0.0,0.0,0.0,0.0,-0.9649,-0.9618,0.0,-0.8601,-0.8701,-0.8472,-0.8358,-0.8233,-0.7869,-0.7261,-0.6405,-0.5669,-0.4436,-0.2838,-0.1258,-0.0254,0.0256,0.0926,0.1477,0.2019,0.2828,0.35,0.3901,0.0882,0.0,0.0,0.0,0.0,-1.2494,-1.5401,-1.7308,-1.9372,-2.2027,-2.3829,-2.5407,-2.6936,-3.0064,-3.3317,-3.6317,-3.9953,-4.3235,-4.5859,-4.9032,-5.1465,-5.289,-5.4633,-5.5735,-5.6116,-5.6026,-5.5195,0.0,0.0,-4.8341,0.0,0.0,0.0,0.0,0.0,0.0,0.0,-5.8214,-5.8137,-5.8058,-5.7209,-5.6849,-5.6747,-5.5843,-5.5327,-5.4963,-5.4168,-4.9843,-4.4011,-4.0991,-4.0135,-4.0067,-3.8233,-3.4414,-3.0218,-2.8575,-2.5239,-2.1843,-1.9883,-1.8188,-1.6623,-1.5054,-1.4142,-1.3468,-1.2901,-1.2561,-1.2312,-1.2328,-1.1307,-0.9809,-0.7995,-0.6845,-0.5826,0.0,0.0,0.0,0.0,0.0,-0.5914,-0.5644,-0.5508,-0.4702,-0.3089,-0.4437,0.0,0.0,-0.6451,0.0,0.0,0.0,0.0,-1.019,-0.9927,-0.9603,-0.9478,-0.9071,-0.8682,-0.8565,-0.8307,-0.8113,-0.7869,-0.7255,-0.6896,-0.6537,-0.5675,-0.3699,-0.1111,-0.0,0.1272,0.2452,0.2626,0.2795,0.3094,0.3499,0.417,0.4839,0.0,0.0,0.0,0.0,0.0,0.0,0.0,-1.6429,-1.8089,-1.9671,-2.1537,-2.3218,-2.4635,-2.7177,-2.9976,-3.2781,-3.6066,-3.9064,-4.1934,-4.4877,-4.7232,-4.8836,-5.0894,-5.2238,-5.2787,-5.3063,-5.2341,0.0,0.0,0.0,0.0,0.0,0.0,0.0,0.0,-5.4815,-5.6187,-5.6711,-5.6678,-5.6198,-5.5542,-5.4948,-5.4422,-5.3724,-5.3242,-5.2759,-5.1159,-4.2751,-3.2055,-2.9807,-2.8972,-2.8729,-2.7911,-2.2946,-1.7889,-1.9491,-1.7811,-1.5511,-1.5893,-1.5408,-1.4639,-1.3903,-1.3323,-1.2864,-1.2572,-1.2229,-1.202,-1.2117,-1.1343,-1.0287,-0.9181,-0.817,-0.7284,-0.6671,0.0,0.0,0.0,0.0,0.0,-0.5906,-0.5646,-0.5245,-0.4708,-0.4707,-0.4842,0.0,0.0,0.0,0.0,0.0,0.0,-0.9927,0.0,-0.9249,-0.9196,-0.8657,-0.8402,-0.8301,-0.7857,-0.7429,-0.7016,-0.6775,-0.5544,-0.3328,-0.2094,-0.0739,0.0618,0.1646,0.2439,0.2974,0.3043,0.3214,0.3632,0.417,0.4973,0.5908,-0.1109,0.0,-0.4676,0.0,-0.9397,-1.1429,-1.3387,-1.4861,-1.6192,-1.7179,-1.874,-2.0585,-2.2787,-2.4895,-2.7146,-2.9768,-3.2509,-3.5395,-3.8209,-4.0954,-4.3197,-4.4941,-4.7209,0.0,-4.929,-4.9876,-4.9335,-4.7575,-4.5748,0.0,0.0,0.0,0.0,0.0,-5.0038,-5.2254,-5.3632,-5.4257,-5.4221,-5.3609,-5.3068,-5.2371,-5.1566,-5.0936,-5.0218,-4.9239,-4.6764,-3.6691,-2.4172,-2.1281,-1.6046,-1.1122,-1.3299,-0.9393,-0.468,-0.8342,-0.8348,-0.7823,-1.0506,-1.1856,-1.256,-1.2955,-1.284,-1.2599,-1.2359,-1.2005,-1.1809,-1.1682,-1.1185,-1.0531,-0.9813,-0.8937,-0.8317,-0.8095,0.0,0.0,0.0,-0.7452,0.0,-0.6662,-0.6277,-0.6025,-0.5923,-0.5381,0.0,0.0,0.0,0.0,0.0,0.0,0.0,0.0,0.0,0.0,-0.8822,-0.8391,-0.816,-0.8,-0.7547,-0.7018,-0.6278,-0.5298,-0.3326,-0.0616,0.1109,0.1973,0.2225,0.3058,0.3355,0.3365,0.3593,0.3901,0.417,0.5108,0.6044,0.7109,-0.2097,-0.382,-0.5416,-0.7128,-0.8711,-1.0169,-1.1137,-1.2462,-1.355,-1.4515,-1.5591,-1.7428,-2.0976,-2.3047,-2.4895,-2.6734,-2.9678,-3.2457,-3.499,-3.76,-3.9907,0.0,0.0,-4.5269,-4.5764,-4.6672,-4.6234,-4.4403,0.0,0.0,-3.9468,0.0,-4.3583,-4.5437,-4.8139,-4.9814,-5.0662,-5.0503,-5.0364,-5.0171,-4.955,-4.8959,-4.8338,-4.7489,-4.6186,-4.4382,-4.1255,-3.3356,-2.3553,-1.7961,-0.2733,1.254,0.5041,0.5267,0.7595,0.4688,0.3289,0.1606,-0.3285,-0.6951,-0.9868,-1.2097,-1.2719,-1.2719,-1.2719,-1.2251,-1.1651,-1.0914,-1.0793,-1.0479,-0.9653,-0.9175,-0.8964,-0.8721,0.0,0.0,0.0,-0.8617,0.0,-0.8394,-0.8018,-0.7539,-0.6579,-0.6453,0.0,0.0,0.0,0.0,0.0,0.0,0.0,-0.841,-0.8674,0.0,-0.8557,-0.8551,-0.8361,-0.7875,-0.7508,-0.6893,-0.5784,-0.234,-0.0247,0.074,0.2961,0.3828,0.3836,0.4078,0.4128,0.4143,0.4656,0.4839,0.4975,0.6447,0.7381,0.8179,-0.1726,-0.3328,-0.4802,-0.6764,-0.7864,-0.8836,-0.9805,-1.0887,-1.1856,-1.2817,-1.4143,-1.5866,-1.7797,-2.0034,-2.223,0.0,-2.6343,-2.8711,0.0,-3.3407,-3.5478,-3.7339,-3.9516,-4.0942,-4.1694,-4.2737,-4.2781,-4.1738,0.0,0.0,0.0,-4.1747,-4.3007,-4.4323,-4.6095,-4.7137,-4.7655,-4.7597,-4.7315,-4.6683,-4.5319,-4.4307,-4.3355,-4.1851,-4.0632,-3.9463,-3.6196,-2.6111,-1.3652,-0.9917,0.3229,1.7725,1.6262,1.9661,2.3165,1.7903,1.5187,1.2593,0.6331,0.1969,-0.178,-0.5666,-0.7777,-0.915,-1.0389,-1.1269,-1.1651,-1.1277,-1.091,-1.0683,-1.0127,-0.9522,-0.917,-0.9094,-0.898,0.0,-0.8857,0.0,-0.8025,-0.7629,-0.7257,-0.6625,-0.5613,-0.6005,0.0,0.0,0.0,0.0,0.0,0.0,0.0,0.0,-0.7954,0.0,-0.7932,-0.7351,-0.7047,-0.6893,-0.6031,-0.4802,-0.3203,-0.0863,0.1109,0.259,0.3701,0.4588,0.5136,0.5367,0.5562,0.5741,0.5867,0.5917,0.6055,0.7534,0.8742,0.9685,-0.1603,-0.2958,-0.431,-0.5906,-0.6646,-0.738,-0.8227,-0.9198,-1.0286,-1.137,-1.2817,-1.4257,-1.5688,-1.767,0.0,-2.1926,-2.3933,-2.59,-2.8038,-2.9881,-3.1805,-3.373,-3.5668,-3.7077,-3.7989,-3.9223,0.0,-3.9244,-3.9741,-4.0087,-4.0313,-4.1187,-4.2064,-4.2937,-4.399,-4.4607,-4.4888,-4.4433,-4.3802,-4.2848,-4.1091,-3.9718,-3.8646,-3.7009,-3.578,-3.4408,-3.1164,-2.2539,-1.2117,-0.8859,0.1707,1.3783,1.5299,2.0818,2.6505,2.5489,2.4767,2.3055,1.6491,1.1401,0.666,0.2103,-0.1186,-0.4326,-0.8038,-1.0162,-1.1402,-1.1277,-1.1031,-1.0668,-1.0304,-0.9822,-0.9457,-0.9457,-0.9339,-0.9249,-0.9338,0.0,-0.8276,0.0,0.0,0.0,0.0,-0.631,-0.6182,0.0,0.0,0.0,0.0,0.0,0.0,-0.7402,-0.7589,-0.7536,-0.7366,-0.6555,-0.628,-0.6407,-0.4803,-0.3202,-0.148,0.0493,0.2342,0.3946,0.4928,0.5836,0.6547,0.7033,0.7119,0.694,0.7201,0.7121,0.7254,0.8742,1.0089,1.1168,-0.1726,-0.2712,-0.3696,0.0,-0.5421,0.0,-0.6766,-0.7622,-0.8714,-0.9926,-1.1249,-1.2697,-1.4267,-1.593,-1.7923,-2.0256,0.0,0.0,0.0,-2.721,-2.8916,-3.0792,-3.2353,-3.3644,-3.4788,-3.6113,-3.6807,-3.6951,-3.7717,-3.8277,-3.8805,-3.9899,-4.0746,-4.1406,-4.1913,-4.221,-4.2114,-4.1022,-3.9984,-3.8869,-3.6962,-3.5419,-3.4234,-3.2966,-3.1458,-2.9558,-2.6449,-2.2292,-1.7671,-1.3823,-0.6144,0.211,0.3914,1.0432,1.8999,2.7417,3.1411,3.1908,2.63,2.0845,1.5624,1.1228,0.6531,0.1292,-0.5189,-0.8663,-1.066,-1.1148,-1.1031,-1.0668,-1.0425,-1.0061,-0.9822,-0.9822,-0.9822,-0.9822,-0.9822,-0.9457,-0.9261,0.0,0.0,0.0,-0.7681,-0.7061,-0.6549,0.0,0.0,0.0,0.0,0.0,-0.7138,-0.6913,-0.7291,-0.7242,-0.6891,-0.6031,-0.5788,-0.6166,-0.3696,-0.1847,-0.0493,0.1603,0.3452,0.5049,0.6405,0.7452,0.8312,0.8698,0.8551,0.8123,0.853,0.8579,0.8435,1.0206,1.1548,1.2616,0.0,0.0,-0.3082,-0.4315,-0.5053,-0.5669,-0.6037,-0.6768,-0.75,-0.8355,-1.0048,-1.1611,-1.3062,-1.4852,-1.652,-1.8175,-2.058,-2.2741,-2.43,-2.5735,-2.7346,-2.9137,-3.0151,-3.1159,-3.2297,-3.3261,-3.4364,-3.5581,-3.6339,-3.6913,-3.7481,-3.7886,-3.8402,-3.8822,-3.8973,-3.8932,-3.8701,-3.7676,-3.6539,-3.5297,-3.3406,-3.2062,-3.0901,-2.9505,-2.8618,-2.7795,-2.5918,-2.4038,-2.2012,-1.9412,-1.5759,-1.1882,-0.922,-0.2217,0.7621,2.0877,2.7834,3.0819,2.8816,2.8263,2.7002,2.2155,1.4126,0.5965,0.0352,-0.4554,-0.8418,-1.0532,-1.091,-1.0789,-1.0668,-1.0183,-0.9822,-0.9822,-0.9822,-0.9822,-0.9822,-0.9457,-0.9105,0.0,-0.8158,-0.768,-0.7093,-0.6974,-0.685,0.0,0.0,0.0,-0.6192,-0.671,-0.6836,-0.6562,-0.619,-0.6183,-0.6657,-0.4436,-0.2834,-0.1971,-0.1355,-0.037,0.0986,0.2837,0.4193,0.5423,0.6848,0.8321,0.9839,0.9989,1.0257,1.0373,1.0296,1.0316,1.0581,1.1825,1.3005,1.4002,-0.0864,-0.185,-0.2836,-0.3944,-0.4684,-0.5302,-0.5794,-0.616,-0.6771,-0.7505,-0.8961,-1.0528,-1.2105,-1.378,-1.5332,-1.6767,-1.9319,-2.138,-2.2749,-2.4317,-2.5744,-2.7257,-2.8106,-2.8936,-2.9964,-3.0657,-3.1759,-3.3296,-3.4169,-3.4848,-3.5365,-3.5531,-3.5779,-3.6213,-3.6013,-3.5799,-3.5598,-3.445,-3.3389,-3.2219,-3.0543,-2.9347,-2.8436,-2.7618,-2.7215,-2.6899,-2.6127,-2.5551,-2.4855,-2.378,-2.2224,-2.0521,-1.8425,-1.3392,-0.6045,0.4434,1.8609,3.1004,3.1119,3.4133,3.5779,2.9452,2.1653,1.3853,0.7972,0.1752,-0.3713,-0.7037,-0.916,-1.0301,-1.0304,-1.0304,-1.0061,-0.97,-0.9579,-0.9579,-0.946,-0.9217,-0.8973,-0.8726,-0.8363,-0.8,-0.7635,-0.7268,-0.7023,-0.69,-0.6775,0.0,-0.616,-0.6285,-0.6407,-0.616,-0.5667,-0.5546,-0.6046,-0.3206,-0.1233,-0.0,0.0616,0.148,0.259,0.3947,0.5298,0.665,0.8237,0.9867,1.1288,1.1585,1.1754,1.1637,1.1512,1.1512,1.1784,1.2877,1.3923,1.5057,-0.1111,-0.1851,-0.2836,-0.3698,-0.4439,-0.5056,-0.5671,-0.5916,-0.6285,-0.7141,-0.8111,-0.9444,-1.139,-1.2711,-1.4143,-1.5822,-1.8033,-2.0005,-2.1388,-2.2862,-2.4223,-2.5459,-2.6218,-2.7079,-2.7912,-2.8406,-2.9337,-3.07,-3.1578,-3.2387,-3.2898,-3.2798,-3.3063,-3.3412,-3.2929,-3.273,-3.263,-3.1444,-3.0596,-2.9754,-2.833,-2.7437,-2.7066,-2.6866,-2.6729,-2.6683,-2.6683,-2.6637,-2.6591,-2.6591,-2.6127,-2.5432,-2.4718,-2.2497,-1.9197,-1.4437,0.5006,2.5663,2.9043,3.5922,4.0832,3.5042,2.92,2.3167,1.6882,0.9528,0.2801,-0.1668,-0.5796,-0.8784,-0.9559,-1.0301,-1.0547,-0.9822,-0.9457,-0.9335,-0.9095,0.0,-0.8854,-0.8854,-0.8613,-0.8369,-0.8369,-0.7755,-0.7263,-0.7023,-0.665,-0.6283,-0.6039,-0.5916,-0.5794,-0.5794,-0.5423,-0.493,-0.4564,-0.1849,-0.0,0.0987,0.2097,0.3083,0.395,0.493,0.6285,0.8025,0.9754,1.1279,1.2467,1.3041,1.2954,1.2568,1.2441,1.2441,1.2572,1.3647,1.4566,1.5468,-0.1727,-0.2221,-0.2836,-0.3698,-0.4439,-0.5056,-0.5421,-0.5669,-0.6162,-0.6898,-0.7872,-0.9086,-1.0789,-1.2113,-1.3555,-1.511,-1.6638,-1.8383,-2.0687,-2.1964,-2.3336,-2.4898,-2.511,-2.5551,-2.6445,-2.7276,-2.8009,-2.8638,-2.9031,-2.9526,-3.0026,-2.9829,-2.9818,-3.0109,-2.9818,-2.9516,-2.9326,-2.8926,-2.8418,-2.7895,-2.7723,-2.7512,-2.725,-2.7468,-2.737,-2.7086,-2.7086,-2.6875,-2.6591,-2.6591,-2.6791,-2.7088,-2.7473,-2.7242,-2.6338,-2.3211,-1.4012,-0.1865,1.1764,2.5501,3.6969,4.1177,3.7592,3.1646,2.6433,1.939,1.2068,0.5272,0.0117,-0.4425,-0.828,-0.9916,-1.091,-1.1394,-1.0425,-0.97,-0.97,0.0,-0.8854,-0.8491,-0.8491,-0.8244,-0.7994,-0.763,-0.7385,-0.7385,-0.7021,-0.6653,-0.628,-0.6039,-0.5673,-0.5056,-0.4438,-0.3081,-0.0864,0.0741,0.1728,0.2221,0.2466,0.2959,0.3944,0.4681,0.6071,0.8146,0.9774,1.1453,1.305,1.3492,1.3718,1.3617,1.3367,1.3235,1.3367,1.4033,1.466,1.5139,-0.1975,-0.2467,-0.296,-0.3821,-0.4439,-0.5056,-0.5546,-0.5794,-0.6164,-0.6778,-0.763,-0.872,-1.0304,-1.1514,-1.284,-1.4162,-1.5698,-1.7337,-1.9061,-2.0923,-2.2652,-2.4016,-2.4359,-2.4804,-2.5366,-2.599,-2.6418,-2.6853,-2.7257,-2.7678,-2.8106,-2.8124,-2.8221,-2.8319,-2.8353,-2.8248,-2.8148,-2.7826,-2.7512,-2.7349,-2.7255,-2.7146,-2.7079,-2.7422,-2.7437,-2.7273,-2.7612,-2.7604,-2.7521,-2.7619,-2.8071,-2.8741,-2.9661,-3.0476,-3.095,-2.9934,-2.0145,-0.6914,0.5575,1.9373,3.088,3.3573,3.721,3.8918,3.4324,2.7283,1.8905,0.9019,0.1921,-0.4674,-1.1438,-1.3699,-1.4435,-1.4084,-1.2671,0.0,-1.0887,-0.9812,-0.8973,-0.8491,-0.8244,-0.8119,-0.7872,-0.763,-0.7385,-0.7143,-0.6655,-0.6162,-0.5912,-0.5548,-0.5179,-0.4685,-0.3822,-0.2343,-0.0,0.1728,0.2468,0.2467,0.2838,0.3453,0.4192,0.5418,0.6943,0.8801,1.0696,1.2258,1.3731,1.4191,1.4272,1.4141,1.3617,1.3231,1.3104,1.3643,1.4141,1.4758,-0.2099,-0.2716,-0.333,-0.4066,-0.4685,-0.5302,-0.5916,-0.6039,-0.6285,-0.69,-0.7508,-0.848,-1.0061,-1.1152,-1.2359,-1.3569,-1.4992,-1.6425,-1.7762,-1.9986,-2.182,-2.3247,-2.4041,-2.453,-2.4829,-2.5146,-2.5412,-2.5731,-2.6158,-2.649,-2.6728,-2.7021,-2.7158,-2.7167,-2.7268,-2.729,-2.729,-2.707,-2.7009,-2.6973,-2.6982,-2.692,-2.6999,-2.7356,-2.7427,-2.7567,-2.814,-2.8303,-2.8399,-2.8939,-2.9669,-3.0712,-3.2015,-3.3566,-3.5051,-3.5878,-2.692,-1.4155,-0.2438,0.8738,1.7433,1.8884,2.6183,3.2076,2.8673,2.2748,1.5074,0.4791,-0.2581,-0.9432,-1.6718,-1.8704,-1.8849,-1.7834,0.0,0.0,0.0,-1.0993,-0.9451,-0.8732,-0.8241,-0.7872,-0.775,-0.7508,-0.7143,-0.6775,-0.6162,-0.5669,-0.5421,-0.5054,-0.4564,-0.4193,-0.3454,-0.1974,-0.0,0.1974,0.2838,0.259,0.3331,0.3947,0.4562,0.6179,0.7725,0.9224,1.1385,1.2961,1.418,1.4865,1.48,1.4403,1.3744,1.3091,1.2572,1.2984,1.3494,1.4128,-0.2221,-0.2961,-0.3701,-0.4681,-0.5421,-0.5916,-0.6283,-0.6403,-0.6648,-0.7263,-0.7627,-0.848,-1.0061,-1.1152,-1.2359,-1.3569,-1.4639,-1.591,-1.7799,-1.9134,-2.0667,-2.2456,-2.3697,-2.4527,-2.4855,-2.5213,-2.5497,-2.5857,-2.5964,-2.5964,-2.5964,-2.5998,-2.6007,-2.6007,-2.6041,-2.605,-2.605,-2.638,-2.6472,-2.6566,-2.7164,-2.7375,-2.7434,-2.7811,-2.7946,-2.7975,-2.8547,-2.8765,-2.8878,-3.0359,-3.1716,-3.3132,-3.5146,-3.7544,-3.983,-4.1368,-4.2284,-3.8867,-2.0539,-1.3349,-0.9301,-0.2109,-0.1147,-0.2138,-0.281,-0.5544,-0.9167,-1.334,-1.7022,-2.052,-2.3744,-2.3861,-2.3445,-2.2868,0.0,0.0,-1.5754,-1.2967,-1.0627,-0.9332,-0.8482,-0.775,-0.7508,-0.7143,-0.6775,-0.6403,-0.579,-0.5421,-0.5421,-0.4807,-0.4193,-0.3579,-0.3208,-0.1974,-0.0,0.1974,0.2961,0.2961,0.3576,0.4192,0.4937,0.6127,0.7594,0.9484,1.1038,1.2629,1.4385,1.5192,1.5066,1.4403,1.401,1.3091,1.1912,1.2312,1.2433,1.2684,-0.1973,-0.2838,-0.3825,-0.5051,-0.579,-0.6403,-0.7258,-0.7138,-0.7138,-0.7627,-0.7872,-0.8358,-0.9576,-1.0638,-1.1804,-1.2908,-1.4118,-1.5447,-1.6747,-1.8458,-2.0578,-2.3301,-2.4466,-2.5107,-2.5242,-2.5481,-2.5788,-2.5934,-2.5934,-2.5934,-2.5943,-2.6174,-2.6277,-2.6285,-2.6533,-2.6645,-2.6645,-2.6755,-2.6841,-2.685,-2.7099,-2.7177,-2.7297,-2.753,-2.7674,-2.7899,-2.9315,-3.0017,-3.0586,-3.2692,-3.4297,-3.5939,-3.8674,-4.1044,-4.3478,-4.6577,-4.8517,-4.8168,-4.1169,-2.9822,-1.9384,-1.6758,-0.9933,-0.4043,-0.4906,-0.7143,-1.0953,-1.7534,-2.1081,-2.4604,-2.9943,-3.0165,-2.9033,-2.7668,0.0,-2.163,-1.9728,-1.6437,-1.3456,-1.1599,-1.0051,-0.8848,-0.8363,-0.763,-0.7021,-0.6403,-0.5546,-0.5054,-0.4807,-0.4318,-0.3948,-0.3455,-0.3579,-0.2467,-0.037,0.148,0.2714,0.3332,0.3946,0.4584,0.5377,0.6408,0.7772,0.9239,1.0844,1.2527,1.4141,1.4805,1.4936,1.467,1.3875,1.296,1.2045,1.1776,1.1776,1.2169,-0.1726,-0.296,-0.4193,-0.5544,-0.6403,-0.7258,-0.8238,-0.7994,-0.7872,-0.8238,-0.8273,-0.8541,-0.9403,-1.0649,-1.1619,-1.2494,-1.3729,-1.4957,-1.6013,-1.8202,-2.0639,-2.3464,-2.4392,-2.4918,-2.5159,-2.5646,-2.5939,-2.6176,-2.6176,-2.6294,-2.6302,-2.6551,-2.667,-2.6679,-2.6953,-2.7073,-2.7073,-2.7073,-2.7073,-2.7073,-2.7073,-2.7194,-2.7306,-2.753,-2.7882,-2.8352,-3.0128,-3.1255,-3.2292,-3.4926,-3.6835,-3.8554,-4.1469,-4.4225,-4.6941,-5.0311,-5.1769,-5.2378,-5.3017,-4.3356,-3.3239,-3.3914,-2.6685,-1.9608,-2.033,-2.1806,-2.4526,-2.9909,-3.1685,-3.3406,-3.7071,-3.6044,-3.3863,-3.1784,-2.8456,-2.5459,-2.3243,-1.9435,-1.6038,-1.3851,-1.1487,-0.9815,-0.9089,-0.7872,-0.7016,-0.628,-0.53,-0.4564,-0.4316,-0.4073,-0.3826,-0.358,-0.3703,-0.2838,-0.0986,0.074,0.222,0.3455,0.409,0.4868,0.5421,0.6613,0.774,0.8926,1.0404,1.2053,1.3613,1.4403,1.48,1.467,1.3875,1.296,1.2045,1.1247,1.1118,1.1383,-0.1727,-0.3329,-0.4807,-0.6158,-0.7261,-0.8238,-0.9217,-0.8848,-0.8601,-0.9217,-0.9211,-0.9296,-0.9925,-1.1069,-1.1929,-1.2308,-1.3564,-1.4649,-1.561,-1.8389,-2.0835,-2.2445,-2.3219,-2.3849,-2.4579,-2.5555,-2.6217,-2.6571,-2.6952,-2.7073,-2.7073,-2.7073,-2.7073,-2.7073,-2.7073,-2.7073,-2.7073,-2.7073,-2.7073,-2.7073,-2.7073,-2.7297,-2.7521,-2.7891,-2.8609,-2.9658,-3.1149,-3.2499,-3.3946,-3.6907,-3.898,-4.0746,-4.3385,-4.6918,-5.0475,-5.2375,-5.2672,-5.2695,-5.3872,-5.3909,-5.3817,-5.4762,-5.5445,-5.5865,-5.5743,-5.5602,-5.5115,-5.3792,-5.1393,-4.8592,-4.5287,-4.1339,-3.7663,-3.5077,-3.1545,-2.8182,-2.5757,-2.1616,-1.7902,-1.574,-1.2791,-1.0407,-0.9441,-0.7861,-0.6646,-0.5916,-0.4931,-0.4193,-0.3951,-0.3951,-0.3951,-0.3951,-0.3703,-0.3085,-0.1973,-0.0247,0.1603,0.3333,0.4135,0.4792,0.5173,0.6369,0.7498,0.8413,0.9717,1.1233,1.2816,1.4006,1.4403,1.4403,1.4006,1.3091,1.178,1.0986,1.0455,1.0326,-0.1726,-0.3082,-0.4681,-0.6399,-0.7447,-0.8496,-0.9611,-0.9568,-0.9506,-0.9632,-0.9415,-0.9444,-0.9823,-1.0721,-1.1588,-1.2102,-1.3122,-1.4253,-1.5713,-1.7205,-1.8593,-2.0065,-2.2305,-2.3848,-2.4577,-2.5319,-2.5984,-2.6571,-2.67,-2.6822,-2.7073,-2.7073,-2.7073,-2.7073,-2.7073,-2.7073,-2.7073,-2.7073,-2.7073,-2.7073,-2.7073,-2.7297,-2.7521,-2.7891,-2.8498,-2.944,-3.1381,-3.3138,-3.5187,-3.8503,-4.0789,-4.2903,-4.631,-4.9079,-5.1313,-5.2677,-5.3492,-5.4135,-5.4742,-5.4755,-5.4641,-5.4881,-5.5353,-5.5768,-5.5838,-5.5633,-5.5015,-5.359,-5.1375,-4.8614,-4.5213,-4.1777,-3.8626,-3.5771,-3.312,-3.0543,-2.8288,-2.4665,-2.1459,-1.932,-1.6088,-1.3512,-1.22,-1.0158,-0.8346,-0.7008,-0.5419,-0.4193,-0.3951,-0.3951,-0.3951,-0.3951,-0.3826,-0.3455,-0.2961,-0.1109,0.0743,0.2879,0.4153,0.5102,0.5593,0.6558,0.741,0.8273,0.9099,1.0309,1.1773,1.282,1.3613,1.4006,1.3875,1.335,1.2429,1.138,1.0721,1.0193,-0.174,-0.3233,-0.4731,-0.6627,-0.7694,-0.8755,-1.0141,-1.0089,-1.0143,-1.0397,-1.0193,-1.0098,-1.0483,-1.1138,-1.1758,-1.2149,-1.2906,-1.4019,-1.5438,-1.6089,-1.699,-1.8402,-2.0436,-2.2215,-2.3611,-2.4471,-2.5341,-2.6214,-2.6449,-2.6822,-2.7073,-2.7073,-2.7073,-2.7073,-2.7073,-2.7073,-2.7073,-2.7073,-2.7073,-2.7073,-2.7073,-2.7306,-2.7762,-2.837,-2.9194,-3.0353,-3.2519,-3.4593,-3.6717,-3.9765,-4.2393,-4.4798,-4.7782,-4.9867,-5.1401,-5.2918,-5.3973,-5.4811,-5.5444,-5.5448,-5.5322,-5.5262,-5.5482,-5.5742,-5.588,-5.5653,-5.5012,-5.3497,-5.1318,-4.8626,-4.5176,-4.1995,-3.8918,-3.5866,-3.3552,-3.1531,-2.9431,-2.6263,-2.331,-2.1412,-1.8087,-1.53,-1.388,-1.1362,-0.8952,-0.7006,-0.554,-0.4685,-0.4319,-0.4319,-0.4196,-0.4071,-0.4071,-0.3948,-0.3332,-0.2097,-0.0371,0.2,0.3416,0.4504,0.5517,0.6086,0.6797,0.7655,0.8454,0.9383,1.0714,1.1769,1.2561,1.3091,1.3354,1.3091,1.2297,1.138,1.0588,0.9927,-0.1891,-0.3409,-0.5068,-0.6924,-0.7978,-0.9142,-1.0551,-1.0565,-1.0576,-1.1209,-1.1074,-1.116,-1.1549,-1.208,-1.2309,-1.2309,-1.2972,-1.3761,-1.467,-1.5052,-1.5954,-1.7249,-1.7893,-1.9431,-2.1727,-2.3208,-2.4463,-2.5488,-2.6214,-2.67,-2.7073,-2.7073,-2.7073,-2.7073,-2.7073,-2.7073,-2.7073,-2.7073,-2.7073,-2.7073,-2.7073,-2.7427,-2.814,-2.9066,-3.0344,-3.1947,-3.4112,-3.6185,-3.8416,-4.1067,-4.3815,-4.6462,-4.8072,-4.952,-5.0967,-5.3011,-5.4122,-5.4898,-5.5984,-5.6099,-5.5925,-5.5983,-5.5959,-5.5899,-5.5879,-5.5664,-5.5014,-5.346,-5.1254,-4.8512,-4.4967,-4.177,-3.8564,-3.5581,-3.3365,-3.1451,-2.9797,-2.6868,-2.4241,-2.2469,-1.9021,-1.6362,-1.5074,-1.1964,-0.8952,-0.6394,-0.5786,-0.5421,-0.5056,-0.4933,-0.481,-0.4561,-0.4562,-0.4195,-0.358,-0.2977,-0.1615,0.0868,0.2166,0.3374,0.4721,0.52,0.6044,0.6985,0.7789,0.872,0.9782,1.0714,1.138,1.178,1.2441,1.2309,1.1648,1.0982,1.0323,0.9661,-0.231,-0.3464,-0.4876,-0.6807,-0.7915,-0.9018,-1.0317,-1.0548,-1.0757,-1.1148,-1.1176,-1.1329,-1.1728,-1.2022,-1.2309,-1.2309,-1.2972,-1.3503,-1.3761,-1.4277,-1.4922,-1.5448,-1.6359,-1.7647,-1.9304,-2.1461,-2.323,-2.4857,-2.548,-2.6092,-2.6692,-2.6952,-2.7073,-2.7073,-2.7073,-2.7073,-2.7073,-2.7073,-2.7073,-2.7073,-2.7073,-2.7427,-2.814,-2.9066,-3.0344,-3.1947,-3.4112,-3.6499,-3.9096,-4.2999,-4.5158,-4.6462,-4.7934,-4.9181,-5.0563,-5.2307,-5.3908,-5.5415,-5.6541,-5.6802,-5.6982,-5.7529,-5.7516,-5.7058,-5.5993,-5.554,-5.4809,-5.2969,-5.0556,-4.7612,-4.3944,-4.0936,-3.8028,-3.5029,-3.3289,-3.179,-3.037,-2.799,-2.5809,-2.4267,-2.1556,-1.9047,-1.7307,-1.3632,-1.0525,-0.8708,-0.7617,-0.6766,-0.6158,-0.5669,-0.5423,-0.53,-0.4937,-0.4445,-0.4074,-0.3618,-0.2351,-0.0255,0.1416,0.2615,0.3342,0.4967,0.5917,0.6585,0.725,0.8187,0.9262,0.9785,1.0581,1.138,1.178,1.1912,1.1648,1.0975,1.0316,0.9661,-0.2473,-0.3518,-0.4827,-0.6947,-0.8052,-0.9019,-1.0336,-1.067,-1.085,-1.1383,-1.1516,-1.1644,-1.2177,-1.2441,-1.2572,-1.2572,-1.284,-1.3235,-1.3371,-1.3757,-1.4281,-1.4931,-1.5583,-1.6748,-1.8285,-2.0195,-2.2097,-2.4108,-2.498,-2.5847,-2.6571,-2.6822,-2.6952,-2.7073,-2.7073,-2.7073,-2.7073,-2.7073,-2.7073,-2.7073,-2.7185,-2.7659,-2.837,-2.9658,-3.1139,-3.284,-3.498,-3.7654,-4.0754,-4.3815,-4.537,-4.6284,-4.7664,-4.8953,-5.0304,-5.2004,-5.3755,-5.5396,-5.6546,-5.7207,-5.7587,-5.7976,-5.8135,-5.7901,-5.6562,-5.6193,-5.5504,-5.3386,-5.103,-4.8241,-4.4662,-4.1719,-3.883,-3.5949,-3.4068,-3.2499,-3.1187,-2.8754,-2.6608,-2.5067,-2.2484,-1.9693,-1.7025,-1.4395,-1.2256,-1.038,-0.9277,-0.827,-0.7614,-0.7022,-0.6542,-0.6417,-0.5794,-0.5333,-0.5024,-0.4245,-0.3207,-0.1712,-0.0,0.1195,0.2153,0.3363,0.4708,0.6051,0.6579,0.7512,0.8587,0.8984,0.9516,1.0316,1.085,1.0986,1.0721,1.0309,0.9649,0.8859,-0.264,-0.3571,-0.504,-0.71,-0.8051,-0.912,-1.0452,-1.0721,-1.0986,-1.1648,-1.178,-1.2045,-1.2704,-1.2704,-1.2836,-1.2836,-1.2836,-1.2972,-1.3235,-1.3371,-1.3761,-1.467,-1.5183,-1.6224,-1.7905,-1.931,-2.1215,-2.3487,-2.4479,-2.5472,-2.6571,-2.6571,-2.6822,-2.7073,-2.7073,-2.7073,-2.7073,-2.7073,-2.7073,-2.7073,-2.7409,-2.7882,-2.8719,-3.0128,-3.1832,-3.3733,-3.5847,-3.8914,-4.2235,-4.4059,-4.5095,-4.5912,-4.7306,-4.8692,-5.0025,-5.1822,-5.3608,-5.5227,-5.6438,-5.7449,-5.8109,-5.8147,-5.8597,-5.872,-5.7578,-5.7262,-5.6616,-5.4424,-5.216,-4.9532,-4.6305,-4.3213,-4.0209,-3.752,-3.5332,-3.345,-3.2214,-2.9707,-2.7366,-2.571,-2.2769,-1.9539,-1.6326,-1.5248,-1.3967,-1.2004,-1.0894,-0.9972,-0.9123,-0.8453,-0.7986,-0.7722,-0.6852,-0.6302,-0.6061,-0.498,-0.3903,-0.3098,-0.175,-0.0404,0.0808,0.175,0.323,0.5248,0.564,0.6573,0.7779,0.8184,0.8584,0.8984,0.9655,0.9791,0.9658,0.9652,0.8987,0.8058,-0.2951,-0.3755,-0.4959,-0.7111,-0.8051,-0.912,-1.0452,-1.0721,-1.0853,-1.1251,-1.1516,-1.1912,-1.2309,-1.2572,-1.2836,-1.2836,-1.2836,-1.2836,-1.284,-1.3235,-1.3625,-1.401,-1.4922,-1.6089,-1.7507,-1.9176,-2.0963,-2.2738,-2.3984,-2.5218,-2.6197,-2.6449,-2.6822,-2.7073,-2.7073,-2.7073,-2.7073,-2.7073,-2.7073,-2.7073,-2.7409,-2.7882,-2.86,-2.9912,-3.1526,-3.3438,-3.553,-3.8613,-4.198,-4.379,-4.4741,-4.5475,-4.6857,-4.821,-4.9647,-5.1589,-5.3443,-5.5232,-5.6632,-5.7812,-5.8702,-5.9121,-5.9731,-6.0054,-5.9248,-5.8587,-5.7719,-5.6323,-5.3812,-5.1017,-4.7965,-4.4394,-4.1274,-3.917,-3.6801,-3.4982,-3.4107,-3.1687,-2.9297,-2.73,-2.3497,-2.0475,-1.8941,-1.71,-1.5499,-1.4034,-1.2536,-1.1362,-1.052,-0.9787,-0.9199,-0.9258,-0.8029,-0.7218,-0.6862,-0.5376,-0.4434,-0.3633,-0.2828,-0.175,-0.0404,0.1346,0.2424,0.3231,0.4973,0.6046,0.6719,0.7111,0.7648,0.8189,0.8323,0.872,0.9117,0.9117,0.872,0.8058,-0.3094,-0.3764,-0.497,-0.7114,-0.8051,-0.912,-1.0452,-1.0721,-1.0853,-1.1115,-1.138,-1.1648,-1.2177,-1.2572,-1.2836,-1.2836,-1.2836,-1.2836,-1.2836,-1.2968,-1.3363,-1.3879,-1.4665,-1.5964,-1.7507,-1.9176,-2.0836,-2.2355,-2.3604,-2.4857,-2.5839,-2.6205,-2.6449,-2.6822,-2.7073,-2.7073,-2.7073,-2.7073,-2.7073,-2.7073,-2.7409,-2.8002,-2.8966,-3.0138,-3.1862,-3.4,-3.7026,-3.9481,-4.1584,-4.33,-4.434,-4.5173,-4.6609,-4.7973,-4.9423,-5.1255,-5.3045,-5.4807,-5.6419,-5.7692,-5.8743,-5.9307,-5.997,-6.0442,-6.0224,-5.9986,-5.9285,-5.7396,-5.5319,-5.2988,-5.0283,-4.7059,-4.4228,-4.2148,-3.9441,-3.7196,-3.6319,-3.3532,-3.0309,-2.6761,-2.3764,-2.1484,-2.0189,-1.8593,-1.7035,-1.565,-1.4382,-1.3079,-1.2017,-1.0928,-1.0303,-1.0133,-0.9053,-0.8182,-0.7925,-0.6717,-0.5513,-0.4713,-0.3907,-0.2828,-0.1481,-0.0269,0.0808,0.1616,0.3094,0.417,0.4975,0.591,0.6577,0.7116,0.7386,0.7789,0.8189,0.8189,0.7922,0.7522]},{"header":{"parameterUnit":"m.s-1","parameterCategory":1,"la1":30.6,"la2":28.766,"lo1":-90.7593,"lo2":-88.6598,"dy":0.0162,"dx":0.0183,"nx":116,"ny":114,"refTime":"2024-02-24T06:00:00:Z","depth":0,"parameterNumber":3,"parameterNumberName":"V-component_of_WINDS"},"data":[0.0,0.0,0.0,0.0,0.0,0.0,0.0,0.0,0.0,0.0,0.0,0.0,0.0,0.0,0.0,0.0,0.0,0.0,0.0,0.0,0.0,0.0,0.0,0.0,0.0,0.0,0.0,0.0,0.0,0.0,0.0,0.0,0.0,0.0,0.0,0.0,0.0,0.0,0.0,0.0,0.0,0.0,0.0,0.0,0.0,0.0,0.0,0.0,0.0,0.0,0.0,0.0,0.0,0.0,0.0,0.0,0.0,0.0,0.0,0.0,0.0,0.0,0.0,0.0,0.0,0.0,0.0,0.0,0.0,0.0,0.0,0.0,0.0,0.0,0.0,0.0,0.0,0.0,0.0,0.0,0.0,0.0,0.0,0.0,0.0,0.0,0.0,0.0,0.0,0.0,0.0,0.0,0.0,0.0,0.0,0.0,0.0,0.0,0.0,0.0,0.0,0.0,0.0,0.0,0.0,0.0,0.0,0.0,0.0,0.0,0.0,0.0,0.0,0.0,0.0,0.0,0.0,0.0,0.0,0.0,0.0,0.0,0.0,0.0,0.0,0.0,0.0,0.0,0.0,0.0,0.0,0.0,0.0,0.0,0.0,0.0,0.0,0.0,0.0,0.0,0.0,0.0,0.0,0.0,0.0,0.0,0.0,0.0,0.0,0.0,0.0,0.0,0.0,0.0,0.0,0.0,0.0,0.0,0.0,0.0,0.0,0.0,0.0,0.0,0.0,0.0,0.0,0.0,0.0,0.0,0.0,0.0,0.0,0.0,0.0,0.0,0.0,0.0,0.0,0.0,0.0,0.0,0.0,0.0,0.0,0.0,0.0,0.0,0.0,0.0,0.0,0.0,0.0,0.0,0.0,0.0,0.0,0.0,0.0,0.0,0.0,0.0,0.0,0.0,0.0,0.0,0.0,0.0,0.0,0.0,0.0,0.0,0.0,0.0,0.0,0.0,0.0,0.0,0.0,0.0,0.0,0.0,0.0,0.0,0.0,0.0,0.0,0.0,0.0,0.0,0.0,0.0,0.0,0.0,0.0,0.0,0.0,0.0,0.0,0.0,0.0,0.0,0.0,0.0,0.0,0.0,0.0,0.0,0.0,0.0,0.0,0.0,0.0,0.0,0.0,0.0,0.0,0.0,0.0,0.0,0.0,0.0,0.0,0.0,0.0,0.0,0.0,0.0,0.0,0.0,0.0,0.0,0.0,0.0,0.0,0.0,0.0,0.0,0.0,0.0,0.0,0.0,0.0,0.0,0.0,0.0,0.0,0.0,0.0,0.0,0.0,0.0,0.0,0.0,0.0,0.0,0.0,0.0,0.0,0.0,0.0,0.0,0.0,0.0,0.0,0.0,0.0,0.0,0.0,0.0,0.0,0.0,0.0,0.0,0.0,0.0,0.0,0.0,0.0,0.0,0.0,0.0,0.0,0.0,0.0,0.0,0.0,0.0,0.0,0.0,0.0,0.0,0.0,0.0,0.0,0.0,0.0,0.0,0.0,0.0,0.0,0.0,0.0,0.0,0.0,0.0,0.0,0.0,0.0,0.0,0.0,0.0,0.0,0.0,0.0,0.0,0.0,0.0,0.0,0.0,0.0,0.0,0.0,0.0,0.0,0.0,0.0,0.0,0.0,0.0,0.0,0.0,0.0,0.0,0.0,0.0,0.0,0.0,0.0,0.0,0.0,0.0,0.0,0.0,0.0,0.0,0.0,0.0,0.0,0.0,0.0,0.0,0.0,0.0,0.0,0.0,0.0,0.0,0.0,0.0,0.0,0.0,0.0,0.0,0.0,0.0,0.0,0.0,0.0,0.0,0.0,0.0,0.0,0.0,0.0,0.0,0.0,0.0,0.0,0.0,0.0,0.0,0.0,0.0,0.0,0.0,0.0,0.0,0.0,0.0,0.0,0.0,0.0,0.0,0.0,0.0,0.0,0.0,0.0,0.0,0.0,0.0,0.0,0.0,0.0,0.0,0.0,0.0,0.0,0.0,0.0,0.0,0.0,0.0,0.0,0.0,0.0,0.0,0.0,0.0,0.0,0.0,0.0,0.0,0.0,0.0,0.0,0.0,0.0,0.0,0.0,0.0,0.0,0.0,0.0,0.0,0.0,0.0,0.0,0.0,0.0,0.0,0.0,0.0,0.0,0.0,0.0,0.0,0.0,0.0,0.0,0.0,0.0,0.0,0.0,0.0,0.0,0.0,0.0,0.0,0.0,0.0,0.0,0.0,0.0,0.0,0.0,0.0,0.0,0.0,0.0,0.0,0.0,0.0,0.0,0.0,0.0,0.0,0.0,0.0,0.0,0.0,0.0,0.0,0.0,0.0,0.0,0.0,0.0,0.0,0.0,0.0,0.0,0.0,0.0,0.0,0.0,0.0,0.0,0.0,0.0,0.0,0.0,0.0,0.0,0.0,0.0,0.0,0.0,0.0,0.0,0.0,0.0,0.0,0.0,0.0,0.0,0.0,0.0,0.0,0.0,0.0,0.0,0.0,0.0,0.0,0.0,0.0,0.0,0.0,0.0,0.0,0.0,0.0,0.0,0.0,0.0,0.0,0.0,0.0,0.0,0.0,0.0,0.0,0.0,0.0,0.0,0.0,0.0,0.0,0.0,0.0,0.0,0.0,0.0,0.0,0.0,0.0,0.0,0.0,0.0,0.0,0.0,0.0,0.0,0.0,0.0,0.0,0.0,0.0,0.0,0.0,0.0,0.0,0.0,0.0,0.0,0.0,0.0,0.0,0.0,0.0,0.0,0.0,0.0,0.0,0.0,0.0,0.0,0.0,0.0,0.0,0.0,0.0,0.0,0.0,0.0,0.0,0.0,0.0,0.0,0.0,0.0,0.0,0.0,0.0,0.0,0.0,0.0,0.0,0.0,0.0,0.0,0.0,0.0,0.0,0.0,0.0,0.0,0.0,0.0,0.0,0.0,0.0,0.0,0.0,0.0,0.0,0.0,0.0,0.0,0.0,0.0,0.0,0.0,0.0,0.0,0.0,0.0,0.0,0.0,0.0,0.0,0.0,0.0,0.0,0.0,0.0,0.0,0.0,0.0,0.0,0.0,0.0,0.0,0.0,0.0,0.0,0.0,0.0,0.0,0.0,0.0,0.0,0.0,0.0,0.0,0.0,0.0,0.0,0.0,0.0,0.0,0.0,0.0,0.0,0.0,0.0,0.0,0.0,0.0,0.0,0.0,0.0,0.0,0.0,0.0,0.0,0.0,0.0,0.0,0.0,0.0,0.0,0.0,0.0,0.0,0.0,0.0,0.0,0.0,0.0,0.0,0.0,0.0,0.0,0.0,0.0,0.0,0.0,0.0,0.0,0.0,0.0,0.0,0.0,0.0,0.0,0.0,0.0,0.0,0.0,0.0,0.0,0.0,0.0,0.0,0.0,0.0,0.0,0.0,0.0,0.0,0.0,0.0,0.0,0.0,0.0,0.0,0.0,0.0,0.0,0.0,0.0,0.0,0.0,0.0,0.0,0.0,0.0,0.0,0.0,0.0,0.0,0.0,0.0,0.0,0.0,0.0,0.0,0.0,0.0,0.0,0.0,0.0,0.0,0.0,0.0,0.0,0.0,0.0,0.0,0.0,0.0,0.0,0.0,0.0,0.0,0.0,0.0,0.0,0.0,0.0,0.0,0.0,0.0,0.0,0.0,0.0,0.0,0.0,0.0,0.0,0.0,0.0,0.0,0.0,0.0,0.0,0.0,0.0,0.0,0.0,0.0,0.0,0.0,0.0,0.0,0.0,0.0,0.0,0.0,0.0,0.0,0.0,0.0,0.0,0.0,0.0,0.0,0.0,0.0,0.0,0.0,0.0,0.0,0.0,0.0,0.0,0.0,0.0,0.0,0.0,0.0,0.0,0.0,0.0,0.0,0.0,0.0,0.0,0.0,0.0,0.0,0.0,0.0,0.0,0.0,0.0,0.0,0.0,0.0,0.0,0.0,0.0,0.0,0.0,0.0,0.0,0.0,0.0,0.0,0.0,0.0,0.0,0.0,0.0,0.0,0.0,0.0,0.0,0.0,0.0,0.0,0.0,0.0,0.0,0.0,0.0,0.0,0.0,0.0,0.0,0.0,0.0,0.0,0.0,0.0,0.0,0.0,0.0,0.0,0.0,0.0,0.0,0.0,0.0,0.0,0.0,0.0,0.0,0.0,0.0,0.0,0.0,0.0,0.0,0.0,0.0,0.0,0.0,0.0,0.0,0.0,0.0,0.0,0.0,0.0,0.0,0.0,0.0,0.0,0.0,0.0,0.0,0.0,0.0,0.0,0.0,0.0,0.0,0.0,0.0,0.0,0.0,0.0,0.0,0.0,0.0,0.0,0.0,0.0,0.0,0.0,0.0,0.0,0.0,0.0,0.0,0.0,0.0,0.0,0.0,0.0,0.0,0.0,0.0,0.0,0.0,0.0,0.0,0.0,0.0,0.0,0.0,0.0,0.0,0.0,0.0,0.0,0.0,0.0,0.0,0.0,0.0,0.0,0.0,0.0,0.0,0.0,0.0,0.0,0.0,0.0,0.0,0.0,0.0,0.0,0.0,0.0,0.0,0.0,0.0,0.0,0.0,0.0,0.0,0.0,0.0,0.0,0.0,0.0,0.0,0.0,0.0,0.0,0.0,0.0,0.0,0.0,0.0,0.0,0.0,0.0,0.0,0.0,0.0,0.0,0.0,0.0,0.0,0.0,0.0,0.0,0.0,0.0,0.0,0.0,0.0,0.0,0.0,0.0,0.0,0.0,0.0,0.0,0.0,0.0,0.0,0.0,0.0,0.0,0.0,0.0,0.0,0.0,0.0,0.0,0.0,0.0,0.0,0.0,0.0,0.0,0.0,0.0,0.0,0.0,0.0,0.0,0.0,0.0,0.0,0.0,0.0,0.0,0.0,0.0,0.0,0.0,0.0,0.0,0.0,0.0,0.0,0.0,0.0,0.0,0.0,0.0,0.0,0.0,0.0,0.0,0.0,0.0,0.0,0.0,0.0,0.0,0.0,0.0,0.0,0.0,0.0,0.0,0.0,0.0,0.0,0.0,0.0,0.0,0.0,0.0,0.0,0.0,0.0,0.0,0.0,0.0,0.0,0.0,0.0,0.0,0.0,0.0,0.0,0.0,0.0,0.0,0.0,0.0,0.0,0.0,0.0,0.0,0.0,0.0,0.0,0.0,0.0,0.0,0.0,0.0,0.0,0.0,0.0,0.0,0.0,0.0,0.0,0.0,0.0,0.0,0.0,0.0,0.0,0.0,0.0,0.0,0.0,0.0,0.0,0.0,0.0,0.0,0.0,0.0,0.0,0.0,0.0,0.0,0.0,0.0,0.0,0.0,0.0,0.0,0.0,0.0,0.0,0.0,0.0,0.0,0.0,0.0,0.0,0.0,0.0,0.0,0.0,0.0,0.0,0.0,0.0,0.0,0.0,0.0,0.0,0.0,0.0,0.0,0.0,0.0,0.0,0.0,0.0,0.0,0.0,0.0,0.0,0.0,0.0,0.0,0.0,0.0,0.0,0.0,0.0,0.0,0.0,0.0,0.0,0.0,0.0,0.0,0.0,0.0,0.0,0.0,0.0,0.0,0.0,0.0,0.0,0.0,0.0,0.0,0.0,0.0,0.0,0.0,0.0,0.0,0.0,0.0,0.0,0.0,0.0,0.0,0.0,0.0,0.0,0.0,0.0,0.0,0.0,0.0,0.0,0.0,0.0,0.0,0.0,0.0,0.0,0.0,0.0,0.0,0.0,0.0,0.0,0.0,0.0,0.0,0.0,0.0,0.0,0.0,0.0,0.0,0.0,0.0,0.0,0.0,0.0,0.0,0.0,0.0,0.0,0.0,0.0,0.0,0.0,0.0,0.0,0.0,0.0,0.0,0.0,0.0,0.0,0.0,0.0,0.0,0.0,0.0,0.0,0.0,0.0,0.0,0.0,0.0,0.0,0.0,0.0,0.0,0.0,0.0,0.0,0.0,0.0,0.0,0.0,0.0,0.0,0.0,0.0,0.0,0.0,0.0,0.0,0.0,0.0,0.0,0.0,0.0,0.0,0.0,0.0,0.0,0.0,0.0,0.0,0.0,0.0,0.0,0.0,0.0,0.0,0.0,-5.5242,-5.5156,0.0,0.0,0.0,0.0,0.0,0.0,0.0,0.0,0.0,0.0,0.0,0.0,0.0,0.0,0.0,0.0,0.0,0.0,0.0,0.0,0.0,0.0,0.0,0.0,0.0,0.0,-4.3218,-4.3328,-4.3642,-4.4021,-4.4181,-4.4355,-4.4926,-4.5216,-4.5032,-4.511,-4.4911,-4.4555,-4.4712,-4.5024,-4.5421,-4.5345,-4.4918,-4.4312,0.0,0.0,0.0,0.0,0.0,0.0,0.0,0.0,0.0,0.0,0.0,0.0,0.0,0.0,0.0,0.0,0.0,0.0,0.0,0.0,0.0,0.0,0.0,0.0,0.0,0.0,0.0,0.0,0.0,0.0,0.0,0.0,0.0,0.0,0.0,0.0,0.0,0.0,0.0,0.0,0.0,0.0,0.0,0.0,0.0,0.0,0.0,0.0,0.0,0.0,0.0,0.0,0.0,0.0,0.0,0.0,0.0,0.0,0.0,0.0,0.0,0.0,0.0,0.0,0.0,0.0,0.0,0.0,0.0,0.0,-5.4852,-5.4948,0.0,0.0,0.0,0.0,0.0,0.0,0.0,0.0,0.0,0.0,0.0,0.0,0.0,0.0,0.0,0.0,0.0,0.0,0.0,0.0,0.0,0.0,0.0,-4.3396,-4.3695,-4.4261,-4.4261,-4.4369,-4.4597,-4.4876,-4.506,-4.5124,-4.5685,-4.5956,-4.5837,-4.5927,-4.5927,-4.5761,-4.6226,-4.6783,-4.7613,-4.805,-4.7428,-4.5885,-4.6107,0.0,0.0,0.0,0.0,0.0,0.0,0.0,0.0,0.0,0.0,0.0,0.0,0.0,0.0,0.0,0.0,0.0,0.0,0.0,0.0,0.0,0.0,0.0,0.0,0.0,0.0,0.0,0.0,0.0,0.0,0.0,0.0,0.0,0.0,0.0,0.0,0.0,0.0,0.0,0.0,0.0,0.0,0.0,0.0,0.0,0.0,0.0,0.0,0.0,0.0,0.0,0.0,0.0,0.0,0.0,0.0,0.0,0.0,0.0,0.0,0.0,0.0,0.0,-5.3466,-5.3567,-5.3634,-5.3849,-5.4045,-5.4175,-5.4575,-5.4717,-5.4717,-5.4575,0.0,0.0,0.0,0.0,0.0,0.0,0.0,0.0,0.0,0.0,0.0,0.0,0.0,0.0,0.0,0.0,0.0,0.0,0.0,0.0,0.0,-4.4755,-4.494,-4.5307,-4.5475,-4.5475,-4.5321,-4.5609,-4.57,-4.5504,-4.615,-4.6403,-4.6121,-4.6565,-4.6814,-4.6944,-4.8133,-4.8957,-4.9519,-4.9931,-4.9915,-4.9503,-4.8331,-4.7828,-4.7828,0.0,0.0,0.0,0.0,0.0,0.0,0.0,0.0,0.0,0.0,0.0,0.0,0.0,0.0,0.0,0.0,0.0,0.0,0.0,0.0,0.0,0.0,0.0,0.0,0.0,0.0,0.0,0.0,0.0,0.0,0.0,0.0,0.0,0.0,0.0,0.0,0.0,0.0,0.0,0.0,0.0,-5.3156,-5.2605,0.0,0.0,0.0,0.0,0.0,0.0,0.0,0.0,0.0,0.0,0.0,0.0,0.0,-5.1541,-5.2307,-5.2213,-5.2224,-5.2503,-5.2817,-5.311,-5.3247,-5.3783,-5.398,-5.4045,-5.4385,0.0,-5.4512,-5.4512,0.0,0.0,0.0,0.0,0.0,0.0,0.0,0.0,0.0,0.0,0.0,0.0,0.0,0.0,0.0,0.0,0.0,0.0,0.0,0.0,0.0,-4.5685,-4.6046,-4.6299,-4.6491,-4.6565,-4.6299,-4.6314,-4.6239,-4.6135,-4.6417,-4.6683,-4.6858,-4.7351,-4.8088,-4.8856,-4.9583,-5.0167,-5.0771,-5.1075,-5.1151,-5.1059,-5.0477,-4.9915,-4.9358,-4.9439,0.0,0.0,0.0,0.0,0.0,0.0,0.0,0.0,0.0,0.0,0.0,0.0,0.0,0.0,0.0,0.0,0.0,0.0,0.0,0.0,0.0,0.0,0.0,0.0,0.0,0.0,0.0,0.0,0.0,0.0,0.0,0.0,0.0,0.0,0.0,0.0,0.0,0.0,0.0,-5.3065,-5.2299,-5.1746,-5.1633,-5.1601,0.0,0.0,0.0,0.0,0.0,0.0,0.0,0.0,0.0,-4.9922,-5.0069,-5.0473,-5.1203,-5.1145,-5.1327,-5.1835,-5.2466,-5.2886,-5.3247,-5.3783,-5.4045,-5.411,-5.4239,-5.4367,-5.4512,-5.4512,-5.4512,-5.4512,0.0,0.0,0.0,0.0,-5.4512,-5.4512,0.0,0.0,0.0,0.0,0.0,0.0,0.0,0.0,0.0,0.0,0.0,0.0,-4.621,-4.6653,-4.7004,-4.7264,-4.7452,-4.7538,-4.7178,-4.7004,-4.6756,-4.6668,-4.6771,-4.6946,-4.7381,-4.8271,-4.9325,-5.0338,-5.0755,-5.1167,-5.1663,-5.1868,-5.1924,-5.1924,-5.1924,-5.145,-5.0647,-5.0647,-5.057,-5.0338,0.0,0.0,0.0,0.0,0.0,0.0,0.0,0.0,0.0,0.0,0.0,0.0,0.0,0.0,0.0,0.0,0.0,0.0,0.0,0.0,0.0,0.0,0.0,0.0,0.0,0.0,0.0,0.0,0.0,0.0,0.0,0.0,0.0,0.0,0.0,0.0,0.0,-5.2177,-5.1601,-5.0999,-5.0893,-5.0768,0.0,0.0,0.0,0.0,0.0,0.0,-4.8198,-4.8324,-4.8518,-4.8811,-4.9174,-4.9674,-5.0276,-5.0432,-5.0832,-5.1466,-5.2307,-5.2886,-5.3247,-5.3783,-5.411,-5.4222,-5.4239,-5.4367,-5.4512,-5.4512,-5.4512,-5.4512,-5.4512,-5.4512,-5.4512,-5.4512,-5.4512,-5.4512,0.0,0.0,0.0,0.0,0.0,0.0,0.0,0.0,0.0,0.0,0.0,-4.6373,-4.7031,-4.7563,-4.7919,-4.8202,-4.8453,-4.8355,-4.7904,-4.7664,-4.7336,-4.6916,-4.7121,-4.7381,-4.7578,-4.9213,-5.0338,-5.08,-5.1614,-5.203,-5.2102,-5.2318,-5.2373,-5.2373,-5.2373,-5.2214,-5.1875,-5.1875,-5.1802,-5.1565,-5.1401,0.0,0.0,0.0,0.0,0.0,0.0,0.0,0.0,0.0,0.0,0.0,0.0,0.0,0.0,0.0,0.0,0.0,0.0,0.0,0.0,0.0,0.0,0.0,0.0,0.0,0.0,0.0,0.0,0.0,0.0,0.0,0.0,0.0,0.0,0.0,0.0,0.0,0.0,-5.0341,-5.008,0.0,0.0,0.0,0.0,-4.8709,-4.8094,-4.7752,-4.7837,-4.7802,-4.8083,-4.8467,-4.9014,-4.939,-4.9677,-5.0214,-5.08,-5.1401,-5.2378,-5.3025,-5.3433,-5.3963,-5.4158,-5.4222,-5.4367,-5.4512,-5.4512,-5.4512,-5.4512,-5.4512,-5.4512,-5.4512,-5.4512,-5.4512,-5.4512,-5.4512,0.0,0.0,0.0,0.0,0.0,0.0,0.0,0.0,-4.5941,-4.6328,-4.6829,-4.7234,-4.7649,-4.8187,-4.8635,-4.8733,-4.8949,-4.8949,-4.8635,-4.8286,-4.7934,-4.7578,-4.7679,-4.8157,-4.9213,-5.0182,-5.0892,-5.1614,-5.1941,-5.2175,-5.2318,-5.239,-5.2373,-5.2373,-5.2373,-5.2357,-5.2412,-5.2412,-5.2252,-5.2092,-5.2004,-5.1581,0.0,0.0,0.0,0.0,0.0,0.0,0.0,0.0,0.0,0.0,0.0,0.0,0.0,0.0,0.0,0.0,0.0,0.0,0.0,0.0,0.0,0.0,0.0,0.0,0.0,0.0,0.0,0.0,0.0,0.0,0.0,0.0,0.0,0.0,0.0,0.0,0.0,-4.9615,-4.9624,0.0,-4.9017,-4.8815,-4.856,-4.8266,-4.7577,-4.6962,-4.6529,-4.7114,-4.7356,-4.7305,-4.8302,-4.901,-4.9426,-4.963,-5.051,-5.1973,-5.2644,-5.3247,-5.3783,-5.4239,-5.4367,-5.4367,-5.4448,-5.4512,-5.4512,-5.4512,-5.4512,-5.4512,-5.4512,-5.4512,-5.4512,-5.4512,-5.4512,-5.4512,0.0,0.0,0.0,0.0,0.0,0.0,0.0,0.0,-4.6565,-4.6916,-4.7422,-4.8003,-4.8339,-4.8867,-4.9225,-4.9306,-4.9452,-4.9452,-4.9225,-4.8883,-4.8521,-4.8423,-4.8573,-4.9213,-5.0338,-5.0892,-5.145,-5.2102,-5.2175,-5.2302,-5.2445,-5.2445,-5.2499,-5.2587,-5.2516,-5.2553,-5.2644,-5.2664,-5.2561,-5.2474,-5.2527,-5.2291,-5.1794,0.0,0.0,0.0,0.0,0.0,0.0,0.0,0.0,0.0,0.0,0.0,0.0,0.0,0.0,0.0,0.0,0.0,0.0,0.0,0.0,0.0,0.0,0.0,0.0,0.0,0.0,0.0,0.0,0.0,0.0,0.0,0.0,0.0,0.0,-5.0571,-4.9853,-4.8978,-4.8916,-4.8687,-4.8183,-4.7934,-4.7662,-4.7308,-4.6957,-4.6566,-4.6218,-4.7014,-4.7415,-4.7419,-4.841,-4.9155,-4.9505,-4.9769,-5.0596,-5.2004,-5.2683,-5.3382,-5.398,-5.4321,-5.4512,-5.4512,-5.4512,-5.4512,-5.4512,-5.4512,-5.4512,-5.4512,-5.4512,-5.4512,-5.4512,-5.4512,-5.4512,-5.4512,0.0,0.0,0.0,0.0,0.0,0.0,0.0,-4.6653,-4.7091,-4.7578,-4.8019,-4.862,-4.9275,-4.9517,-4.9677,-4.9916,-4.9916,-4.9836,-4.9597,-4.9437,-4.9275,-4.9356,-4.99,-5.0416,-5.08,-5.145,-5.1868,-5.2102,-5.2318,-5.2445,-5.2553,-5.2624,-5.2711,-5.2903,-5.2694,-5.2644,-5.2683,-5.2739,-5.2724,-5.2707,-5.301,-5.2841,-5.2438,0.0,0.0,0.0,0.0,0.0,0.0,0.0,0.0,0.0,0.0,0.0,0.0,0.0,0.0,0.0,0.0,0.0,0.0,0.0,0.0,0.0,0.0,0.0,0.0,0.0,0.0,0.0,0.0,0.0,0.0,0.0,0.0,0.0,-5.1037,-5.0562,-4.963,-4.8383,-4.7868,-4.7455,-4.7183,-4.6807,-4.6317,-4.5807,-4.6202,-4.6667,-4.6904,-4.7617,-4.8314,-4.8996,-4.9372,-4.9677,-4.9916,-5.0755,-5.1229,-5.1586,-5.2654,-5.3397,-5.398,-5.4385,-5.4512,-5.4512,-5.4512,-5.4512,-5.4512,-5.4512,-5.4512,-5.4512,-5.4512,-5.4512,-5.4512,-5.4512,-5.4512,-5.4512,0.0,0.0,0.0,0.0,0.0,0.0,0.0,-4.7249,-4.7749,-4.8034,-4.8604,-4.9113,-4.9517,-4.9677,-4.9836,-4.9931,-4.9916,-4.9836,-4.9836,-4.9597,-4.9597,-4.9757,-5.0276,-5.0816,-5.1317,-5.1631,-5.1868,-5.2102,-5.2175,-5.2214,-5.2395,-5.2694,-5.2903,-5.311,-5.3008,-5.2992,-5.2977,-5.2859,-5.2687,-5.2541,-5.3396,-5.3558,-5.3169,0.0,0.0,0.0,0.0,0.0,0.0,0.0,0.0,0.0,0.0,0.0,0.0,0.0,0.0,0.0,0.0,0.0,0.0,0.0,0.0,0.0,0.0,0.0,0.0,0.0,0.0,0.0,0.0,0.0,0.0,0.0,-5.0492,-4.9842,-4.9744,-4.9041,-4.8294,-4.7605,-4.7283,-4.692,-4.65,-4.5921,-4.5539,-4.5374,-4.6119,-4.7028,-4.8106,-4.8638,-4.9171,-4.9637,-4.9787,-5.001,-5.0418,-5.121,-5.1975,-5.262,-5.3263,-5.3768,-5.4175,-5.4367,-5.4512,-5.4512,-5.4512,-5.4512,-5.4512,-5.4512,-5.4512,-5.4512,-5.4512,-5.4512,-5.4512,-5.4512,-5.4512,-5.4512,0.0,0.0,0.0,0.0,0.0,0.0,0.0,-4.7934,-4.8453,-4.8702,-4.9113,-4.9517,-4.9677,-4.9836,-4.9916,-4.9916,-5.001,-5.0089,-5.0089,-5.0089,-5.0168,-5.0324,-5.0848,-5.1226,-5.1647,-5.1704,-5.1868,-5.2102,-5.2102,-5.2214,-5.2449,-5.287,-5.3179,-5.3365,-5.3397,-5.3345,-5.3273,-5.2847,-5.3095,-5.381,-5.4652,-5.4895,-5.4737,-5.4727,-5.4968,-5.5349,-5.5529,-5.6104,-5.6729,-5.648,0.0,0.0,0.0,0.0,0.0,0.0,0.0,0.0,0.0,0.0,0.0,0.0,0.0,0.0,0.0,0.0,0.0,0.0,0.0,0.0,0.0,0.0,0.0,0.0,-4.975,-4.9135,-4.8639,-4.8015,-4.7406,-4.6984,-4.6668,-4.631,-4.6072,-4.5608,-4.5363,-4.5485,-4.6297,-4.7138,-4.8151,-4.8872,-4.9374,-4.9656,-4.9836,-5.0089,-5.0589,-5.1134,-5.1827,-5.2615,-5.3209,-5.3788,-5.435,-5.4274,-5.4397,-5.4512,-5.4512,-5.4512,-5.4512,-5.4512,-5.4512,0.0,0.0,0.0,0.0,0.0,-5.4512,-5.4512,0.0,0.0,0.0,0.0,0.0,0.0,0.0,-4.8635,-4.9144,-4.9356,-4.9597,-4.9757,-4.9916,-4.9931,-4.9931,-4.9931,-5.0168,-5.0324,-5.0402,-5.0804,-5.1048,-5.0972,-5.1424,-5.1704,-5.1851,-5.1851,-5.1924,-5.2102,-5.2102,-5.2285,-5.259,-5.3094,-5.3447,-5.354,-5.3768,-5.3805,-5.3576,-5.3008,-5.3879,-5.5683,-5.6283,-5.6464,-5.6496,-5.6484,-5.6486,-5.654,-5.7,-5.7178,-5.7219,-5.7173,0.0,0.0,0.0,0.0,0.0,0.0,0.0,0.0,0.0,0.0,0.0,0.0,0.0,0.0,0.0,0.0,0.0,0.0,0.0,0.0,0.0,0.0,0.0,0.0,-4.8978,-4.8386,-4.777,-4.7355,-4.6987,-4.6512,-4.6087,-4.5753,-4.5807,-4.5651,-4.5653,-4.585,-4.6594,-4.7212,-4.7654,-4.8739,0.0,0.0,0.0,-5.0168,-5.0589,-5.082,-5.1258,-5.2036,-5.2707,-5.3516,-5.4444,-5.4196,-5.4235,-5.4512,-5.4512,-5.4512,-5.4512,-5.4512,-5.4512,-5.4512,-5.4512,-5.4512,-5.4512,-5.4494,-5.4477,-5.4557,0.0,0.0,0.0,0.0,0.0,0.0,0.0,-4.9291,-4.9773,-4.9757,-5.0168,-5.0418,-5.0418,-5.034,-5.0262,-5.0262,-5.0386,-5.0679,-5.1177,-5.1565,-5.1712,-5.1582,-5.2092,-5.2307,-5.2181,-5.2164,-5.2109,-5.2053,-5.2086,-5.2214,-5.2378,-5.2892,-5.3343,-5.3751,-5.4155,-5.4364,-5.4305,-5.4722,-5.5402,-5.6283,-5.6795,-5.7065,-5.7065,-5.7047,-5.7065,-5.7065,-5.7173,-5.7208,-5.7275,-5.7597,-5.7765,-5.7886,-5.8338,-5.8777,0.0,0.0,0.0,0.0,0.0,0.0,0.0,0.0,0.0,0.0,0.0,0.0,0.0,0.0,0.0,0.0,0.0,0.0,0.0,-4.8917,-4.8433,-4.7934,-4.7538,-4.705,-4.6636,-4.6356,-4.6032,-4.5719,-4.5589,-4.5853,-4.5986,-4.5881,-4.7059,-4.7834,-4.7893,-4.8916,-4.9517,-4.9517,-5.001,-5.034,-5.0589,-5.0972,-5.1392,-5.2036,0.0,0.0,-5.3954,-5.4264,-5.4471,-5.4512,-5.4512,-5.4512,-5.4512,-5.4512,-5.4512,-5.4512,-5.4512,-5.4512,-5.4494,-5.4516,-5.4465,-5.451,0.0,0.0,0.0,0.0,0.0,0.0,0.0,-4.9773,-5.0089,-5.023,-5.048,-5.082,-5.0848,-5.0771,-5.0695,-5.0695,-5.1043,-5.1459,-5.2082,-5.2258,-5.2416,-5.2416,-5.2557,-5.2714,-5.2714,-5.252,-5.2378,-5.2307,-5.2324,-5.2329,-5.232,-5.3078,-5.3532,-5.3714,-5.46,-5.4972,-5.5062,-5.5666,-5.6117,-5.6418,-5.7012,-5.7207,-5.7203,-5.7183,-5.7216,-5.7216,-5.7304,-5.7369,-5.7515,-5.8042,-5.8286,-5.8461,-5.9046,-5.9449,-5.9766,0.0,0.0,0.0,0.0,0.0,0.0,0.0,0.0,0.0,0.0,0.0,0.0,0.0,0.0,-4.9612,-4.9411,0.0,-4.8543,-4.8258,-4.7869,-4.7538,-4.7354,-4.7114,-4.6804,-4.6381,-4.6294,-4.615,-4.5853,-4.6387,-4.678,-4.6919,-4.7586,-4.8208,-4.8615,-4.9249,-4.9677,-4.9757,-5.0089,-5.0418,-5.0743,-5.0972,-5.1258,-5.1778,-5.2324,-5.2886,-5.345,-5.4,-5.4308,-5.4512,-5.4512,-5.4512,-5.4512,-5.4592,-5.47,-5.4745,-5.479,-5.4745,-5.4637,-5.4631,-5.472,-5.487,0.0,0.0,0.0,0.0,0.0,0.0,0.0,-5.0168,-5.048,-5.0663,-5.094,-5.1167,-5.1343,-5.1268,-5.1343,-5.1401,-5.1915,-5.247,-5.3009,-5.3094,-5.3179,-5.3315,-5.3179,-5.3179,-5.3247,-5.2991,-5.28,-5.2731,-5.2661,-5.258,-5.2366,-5.3275,-5.3668,-5.3573,-5.4933,-5.5583,-5.5729,-5.6194,-5.6401,-5.6474,-5.6956,-5.7183,-5.7188,-5.7188,-5.7188,-5.7206,-5.7411,-5.7626,-5.7847,-5.8338,-5.8684,-5.8986,-5.9575,-5.9956,-6.0265,-6.0676,-5.9711,0.0,0.0,0.0,0.0,0.0,0.0,0.0,0.0,-5.0154,-4.9595,-4.918,-4.8776,-4.845,-4.8289,-4.8229,-4.8133,-4.7835,-4.7748,-4.7694,-4.759,-4.7603,-4.7405,-4.6829,-4.6881,-4.6843,-4.6481,-4.7029,-4.759,-4.8022,-4.8177,-4.8633,-4.9405,-4.9597,-4.9836,-5.001,-5.0262,-5.0589,-5.0912,-5.0912,-5.1124,-5.1515,-5.1964,-5.252,-5.306,-5.3751,-5.4162,-5.4448,-5.4512,-5.4575,-5.4575,-5.478,-5.4886,-5.5035,-5.5199,-5.5139,-5.507,-5.4992,-5.5139,-5.5437,0.0,0.0,0.0,0.0,0.0,0.0,0.0,0.0,-5.0956,-5.1252,-5.1655,-5.1964,-5.2164,-5.2004,-5.2059,-5.2433,-5.2767,-5.3247,-5.3832,-5.4158,-5.4222,-5.4059,-5.4222,-5.4175,-5.3915,-5.37,-5.3433,-5.311,-5.2972,-5.2771,-5.2674,-5.3171,-5.3479,-5.3558,-5.4881,-5.5782,-5.6294,-5.638,-5.6384,-5.6454,-5.6987,-5.7213,-5.7188,-5.7188,-5.7188,-5.7206,-5.7411,-5.7704,-5.8042,-5.8455,-5.8868,-5.9364,-5.9893,-6.0256,-6.0545,-6.0942,-5.9941,-5.8638,-5.8474,-5.6172,-5.3564,-5.2541,-5.1567,-5.0645,0.0,-4.9308,-4.8748,-4.8433,-4.8065,-4.782,-4.7754,-4.7996,-4.8217,-4.8148,-4.8491,-4.8858,-4.8787,-4.8578,-4.8317,-4.8237,-4.7747,-4.7431,-4.7462,-4.7856,-4.8214,-4.8292,-4.8998,-4.9519,-4.9836,-5.0089,-5.034,-5.0512,-5.0743,-5.082,-5.0912,-5.1048,-5.1275,-5.1499,-5.1835,-5.2324,-5.2972,-5.3804,-5.4185,-5.4239,-5.4575,-5.4797,-5.478,-5.4948,-5.5035,-5.5199,-5.5343,-5.5636,-5.594,-5.568,-5.572,-5.6035,0.0,0.0,0.0,0.0,0.0,0.0,0.0,0.0,0.0,-5.1696,-5.2236,-5.2607,-5.2817,-5.2853,-5.2974,-5.3349,-5.36,-5.3994,-5.4557,-5.4683,-5.479,-5.4755,-5.479,-5.47,-5.4448,-5.4158,-5.3881,-5.3651,-5.3584,-5.3279,-5.2867,-5.3668,-5.4277,-5.4669,-5.5215,-5.5861,-5.6422,-5.6418,-5.6546,-5.6919,-5.7077,-5.7195,-5.7206,-5.7325,-5.7375,-5.7437,-5.7619,-5.7886,0.0,-5.8728,-5.914,-5.9578,-6.011,-6.0444,-6.0753,-6.1058,-5.9959,-5.8202,-5.6252,-5.4264,-5.2432,-5.1298,-5.032,-4.9453,-4.8635,-4.8225,-4.7985,-4.8029,-4.7939,-4.8001,-4.8409,-4.8578,-4.8631,-4.8631,-4.8819,-4.903,-4.903,-4.9036,-4.9085,-4.9085,-4.8887,-4.8592,-4.8231,-4.8718,-4.903,-4.903,-4.936,-4.9773,-5.0089,-5.0262,-5.0434,-5.0743,-5.0836,-5.0988,-5.1048,-5.1183,-5.1258,-5.1333,-5.1891,-5.2378,-5.2747,-5.3618,-5.4162,-5.4575,-5.4747,-5.4896,-5.5052,-5.5003,-5.5349,-5.5865,-5.6166,-5.6438,-5.6706,-5.6221,-5.633,-5.674,0.0,0.0,0.0,0.0,0.0,0.0,0.0,0.0,0.0,0.0,-5.28,-5.3179,-5.3382,-5.355,-5.3732,-5.411,-5.4286,0.0,0.0,-5.5113,-5.5174,-5.5277,-5.5174,-5.507,-5.4886,-5.4523,-5.4269,-5.4158,-5.4042,-5.3751,-5.3364,-5.3939,-5.4652,-5.5501,-5.5517,-5.5851,-5.6428,-5.6545,-5.6831,-5.7187,-5.7216,-5.7228,-5.7325,-5.7528,-5.7686,-5.7792,-5.7839,-5.8097,-5.8492,-5.9005,-5.9381,-5.9796,-6.0311,-6.0652,-6.0846,-6.0824,-5.9377,-5.7153,-5.4239,-5.2647,-5.152,-5.0209,-4.9428,-4.8782,-4.8117,-4.7947,-4.7969,-4.8242,-4.8285,-4.8431,-4.8933,-4.9192,-4.9321,-4.9321,-4.9483,-4.9629,-4.9629,-4.9785,-4.9897,-4.9805,-4.9788,-4.9568,-4.9017,-4.933,-4.9677,-4.9757,-4.9757,-5.001,-5.0418,-5.0512,-5.065,-5.0972,-5.0972,-5.1048,-5.1183,-5.1275,-5.1333,-5.1317,-5.202,-5.252,-5.28,-5.3632,-5.4397,-5.5,-5.5129,-5.5349,-5.556,-5.5455,-5.579,-5.6403,-5.6753,-5.713,-5.7419,-5.7051,-5.7102,-5.7437,0.0,0.0,0.0,0.0,0.0,0.0,0.0,0.0,0.0,0.0,0.0,0.0,0.0,-5.4076,-5.4269,-5.4448,-5.4807,-5.5035,-5.5199,-5.5371,-5.5507,-5.5507,-5.5507,-5.5371,-5.5199,-5.4834,-5.471,-5.471,-5.4109,-5.4052,-5.4435,-5.381,-5.4231,-5.549,-5.5511,-5.5842,-5.6418,-5.6922,-5.7169,-5.7216,-5.7192,-5.7343,-5.7528,-5.7788,-5.8005,-5.8152,-5.8042,-5.8312,-5.8739,-5.9158,-5.9575,-5.9973,-6.0512,-6.0845,-6.0834,-6.0073,-5.7926,-5.5302,-5.3148,-5.1777,-5.0753,-4.9546,-4.9241,-4.9161,-4.8606,-4.8887,-4.9196,-4.8997,-4.8997,-4.8997,-4.903,-4.9596,-5.0066,-5.0066,-5.0665,-5.1118,-5.1118,-5.1,-5.0804,-5.0557,-5.0402,-5.0168,-4.99,-4.9661,-4.9773,-5.0262,-5.0262,-5.0434,-5.0836,-5.0896,-5.0972,-5.1183,-5.1183,-5.1183,-5.1183,-5.1424,-5.1557,-5.1712,-5.2291,-5.28,-5.3179,-5.411,-5.4814,-5.5487,-5.5871,-5.6255,-5.6537,-5.6563,-5.6579,-5.6599,-5.6804,-5.7357,-5.8105,-5.8268,-5.8197,-5.8042,0.0,0.0,0.0,0.0,0.0,0.0,0.0,0.0,0.0,0.0,0.0,0.0,0.0,0.0,0.0,0.0,-5.5079,-5.5217,-5.5371,-5.5448,-5.5507,-5.5507,-5.5507,-5.5371,-5.5096,-5.4834,-5.4676,-5.4544,-5.4333,-5.4337,-5.4513,-5.4717,-5.5268,-5.6082,-5.6088,-5.6381,-5.6957,-5.7474,-5.759,-5.7424,-5.7533,-5.7674,-5.7875,-5.8088,-5.8388,-5.8688,0.0,-5.8984,-5.914,-5.9505,-5.9924,-6.0374,-6.077,-6.0604,-5.9888,-5.7865,-5.6149,-5.4559,-5.2953,-5.1635,-5.0614,-5.0126,-4.9658,-4.9239,-4.8871,-4.8995,-4.9231,-4.9645,-4.9742,-4.9888,-5.0374,-5.0649,-5.0811,-5.0811,-5.1021,-5.1183,-5.1183,-5.1048,-5.0896,-5.082,-5.0589,-5.0418,-5.034,-5.0184,-5.0105,-5.0262,-5.0418,-5.0589,-5.0912,-5.0912,-5.0972,-5.1183,-5.1183,-5.1258,-5.1424,-5.1573,-5.1835,-5.2092,-5.2939,-5.3617,-5.4205,-5.471,-5.5234,-5.566,-5.6194,-5.6617,-5.6992,-5.7587,-5.7862,-5.7995,-5.807,-5.8326,-5.8725,-5.894,-5.8982,-5.8908,0.0,0.0,0.0,0.0,0.0,0.0,0.0,0.0,0.0,0.0,0.0,0.0,0.0,0.0,0.0,0.0,0.0,-5.5396,-5.5507,-5.5431,-5.5413,-5.5413,-5.5312,-5.5113,-5.4913,-5.4648,-5.4551,-5.4641,-5.4676,-5.473,-5.486,-5.5268,-5.5799,-5.6374,-5.638,-5.6778,-5.7478,-5.7771,-5.7774,-5.7624,-5.7747,-5.7912,-5.8088,-5.8412,-5.8769,0.0,-5.9467,-5.9666,-5.9776,-5.9912,-6.0245,-6.0654,-6.0942,-6.032,-5.9075,-5.708,-5.5505,-5.4162,-5.2854,-5.1662,-5.0663,-5.0326,-4.9937,-4.9652,-4.9418,-4.9613,-4.9936,-5.039,-5.0487,-5.0633,-5.1086,-5.1183,-5.1183,-5.1183,-5.1183,-5.1183,-5.1183,-5.1124,-5.0972,-5.0912,-5.082,-5.0666,-5.0589,-5.0589,-5.0496,-5.0496,-5.0666,-5.082,-5.0972,-5.0972,-5.1048,-5.1183,-5.1258,-5.1408,-5.1688,-5.1964,-5.2449,-5.306,-5.3749,-5.4397,-5.4974,-5.5217,-5.5572,-5.6049,-5.6528,-5.6969,-5.7411,-5.8055,-5.8501,-5.8721,-5.8688,-5.8921,-5.9271,-5.9553,-5.9623,-5.9559,0.0,0.0,0.0,0.0,0.0,0.0,0.0,0.0,0.0,0.0,0.0,0.0,0.0,0.0,0.0,0.0,0.0,0.0,-5.5507,-5.5336,-5.5199,-5.5199,-5.4896,-5.471,-5.4648,-5.4397,-5.435,-5.478,-5.4901,-5.5139,-5.5504,-5.549,-5.5808,-5.6365,-5.6383,-5.6992,-5.7952,-5.7728,-5.7678,-5.7795,-5.7781,-5.7997,-5.8268,-5.8769,-5.914,-5.9505,-5.9985,-6.0352,-6.0599,-6.0386,-6.0538,-6.0825,-6.0959,-5.9902,-5.844,-5.7544,-5.582,-5.3985,-5.2787,-5.1843,-5.0892,-5.0185,-5.0255,-5.04,-5.0237,-5.0697,-5.1183,-5.1183,-5.1183,-5.1183,-5.1183,-5.1183,-5.1183,-5.1183,-5.1108,-5.1108,-5.1108,-5.1108,-5.1032,-5.0912,-5.082,-5.082,-5.0666,-5.082,-5.0896,-5.0912,0.0,-5.0972,-5.1183,-5.1183,-5.1183,-5.1183,-5.1424,-5.1688,-5.1987,-5.254,-5.3466,-5.4512,-5.4665,-5.5035,-5.5507,-5.5507,-5.5954,-5.6653,-5.6899,-5.7338,-5.7839,-5.8168,-5.8492,-5.8721,-5.874,-5.914,-5.9771,-6.0169,-6.0183,-5.9994,0.0,0.0,0.0,0.0,0.0,0.0,0.0,0.0,0.0,0.0,0.0,0.0,0.0,0.0,0.0,0.0,0.0,0.0,-5.5666,-5.5396,-5.5139,-5.5035,-5.4852,-5.454,-5.4175,-5.4346,-5.4364,-5.4175,-5.4463,-5.4954,-5.5479,-5.5487,-5.5819,-5.6392,-5.6418,-5.676,-5.7448,-5.7751,-5.7868,-5.7847,-5.8015,-5.8338,-5.8684,-5.9121,-5.9605,-6.0112,-6.0438,-6.0727,-6.0937,-6.0741,-6.0761,-6.0709,-5.9821,-5.8784,-5.757,-5.608,-5.4471,-5.318,-5.2753,-5.1961,-5.122,-5.1306,-5.1149,-5.0983,-5.0908,-5.1054,-5.1183,-5.1183,-5.1048,-5.0972,-5.0972,-5.0711,-5.0448,-5.0448,-5.0308,-5.023,-5.023,-5.023,-5.023,-5.0386,-5.037,-5.048,-5.082,-5.0912,-5.0972,-5.1124,-5.1108,-5.1108,-5.1183,-5.1183,-5.1183,-5.1183,-5.1557,-5.1908,-5.2236,-5.3315,-5.4188,-5.4869,-5.5191,-5.5431,-5.5666,-5.6011,-5.6383,-5.6794,-5.7302,-5.7784,-5.8231,-5.8642,-5.8966,-5.9197,-5.9003,-5.9341,-6.002,-6.0373,-6.0465,-6.037,0.0,0.0,0.0,0.0,0.0,0.0,0.0,0.0,0.0,0.0,0.0,0.0,0.0,0.0,0.0,0.0,0.0,0.0,0.0,-5.5336,-5.5035,-5.4852,-5.454,-5.4158,-5.3783,-5.3853,-5.3819,-5.3615,-5.3983,-5.4493,-5.505,-5.5339,-5.5731,-5.618,-5.6455,-5.6865,-5.7355,-5.7686,-5.7836,0.0,0.0,-5.8317,-5.8689,-5.9166,-5.969,-6.0261,-6.0654,-6.1001,-6.1189,-6.0646,-6.0505,-6.0416,-5.9383,-5.8386,-5.7367,-5.6259,-5.4973,-5.3775,-5.3318,-5.2453,-5.1696,-5.1729,-5.1424,-5.1183,-5.1183,-5.1183,-5.1183,-5.1124,-5.0972,-5.082,-5.0634,-5.037,-5.012,-4.9979,-4.9821,-4.9757,-4.9566,-4.9566,-4.9661,-4.99,-4.9979,-5.023,-5.0711,-5.082,-5.0972,-5.1183,-5.1183,-5.1183,-5.1183,-5.1183,-5.1258,-5.135,-5.1762,-5.2449,-5.3365,-5.4316,-5.4974,-5.5396,-5.559,-5.5782,-5.5954,-5.6328,-5.6689,-5.7087,-5.7642,-5.815,-5.8558,-5.9005,-5.9308,-5.9521,-5.9422,-5.9722,-6.0237,-6.0542,-6.0633,-6.0604,0.0,0.0,0.0,0.0,0.0,0.0,0.0,0.0,0.0,0.0,0.0,0.0,0.0,0.0,0.0,0.0,0.0,0.0,0.0,0.0,0.0,0.0,-5.4286,-5.3832,-5.3433,-5.323,-5.3163,-5.3079,-5.3598,-5.4171,-5.4658,-5.5284,-5.5764,-5.612,-5.6618,-5.7111,-5.7574,-5.7692,-5.7867,-5.8139,-5.8153,-5.8325,-5.8648,0.0,0.0,-6.0301,-6.078,-6.1113,-6.1221,-6.0351,-6.0065,-5.9958,-5.9273,-5.8382,-5.7485,-5.7012,-5.5918,-5.4763,-5.3957,-5.2994,-5.2129,-5.1638,-5.1366,-5.1183,-5.1183,-5.1183,-5.1108,-5.0896,-5.082,-5.065,-5.0214,-5.012,-4.9884,-4.9517,-4.9437,-4.9259,-4.9066,-4.8969,-4.9066,-4.934,-4.9597,-4.9916,-5.037,-5.0634,-5.0896,-5.1183,-5.1183,-5.1183,-5.1183,-5.1183,-5.1333,-5.1647,-5.2181,-5.3179,-5.471,-5.5252,-5.5607,-5.5918,-5.5918,-5.6049,-5.6253,-5.6546,-5.6951,-5.7486,-5.7969,-5.8455,-5.8926,-5.9326,-5.9609,-5.9791,-5.9935,-6.0132,-6.0387,-6.0674,-6.0776,-6.0734,0.0,0.0,0.0,0.0,0.0,0.0,0.0,0.0,0.0,0.0,-5.8006,-5.7886,0.0,0.0,0.0,0.0,0.0,0.0,0.0,0.0,0.0,0.0,0.0,0.0,-5.3433,-5.3196,-5.3129,-5.3079,-5.3955,-5.4703,-5.5338,-5.5957,-5.6502,-5.6991,-5.7064,-5.7402,-5.7927,-5.8198,-5.8497,-5.8768,-5.8849,-5.9157,-5.9608,0.0,0.0,0.0,-6.1093,-6.0942,-6.0632,-6.0409,-5.9931,-5.9398,-5.8989,-5.8197,-5.7221,-5.5936,-5.4886,-5.3836,-5.3039,-5.239,-5.1811,-5.135,-5.1258,-5.1183,-5.1183,-5.1183,-5.1108,-5.0896,-5.0557,-5.0214,-4.9995,-4.9533,-4.9128,-4.8785,-4.8453,-4.8202,-4.7949,-4.7694,-4.7779,-4.8157,-4.8438,-4.8934,-4.9916,-5.0214,-5.0541,-5.1183,-5.1183,-5.1183,-5.1183,-5.1183,-5.1598,-5.2378,-5.2922,-5.3781,-5.493,-5.5312,-5.5607,-5.5918,-5.6067,-5.6235,-5.6401,-5.6899,-5.732,-5.7671,-5.8442,0.0,-5.9326,-5.9796,-6.0042,-6.0132,-6.0319,-6.0482,-6.0641,-6.0772,-6.0819,-6.0869,0.0,0.0,0.0,0.0,0.0,0.0,0.0,-5.8548,-5.859,-5.8614,-5.8486,-5.8356,-5.8249,-5.8133,0.0,0.0,0.0,0.0,0.0,0.0,0.0,0.0,0.0,0.0,0.0,-5.3634,-5.3566,-5.3696,0.0,-5.5033,-5.5683,-5.6202,-5.6741,-5.7223,-5.7351,-5.7656,-5.8079,-5.8397,-5.8805,-5.9192,-5.9682,-6.0083,0.0,0.0,0.0,0.0,0.0,-5.9068,-5.8547,-5.832,-5.7809,-5.7325,-5.7895,-5.7427,-5.6433,-5.5207,-5.4119,-5.3196,-5.2383,-5.1809,-5.1475,-5.1242,-5.1183,-5.1183,-5.1183,-5.1183,-5.1092,-5.0634,-5.037,-5.0042,-4.9533,-4.9306,-4.8965,-4.8537,-4.8286,-4.7964,-4.7553,-4.7207,-4.7193,-4.7523,-4.7849,-4.8521,-4.9677,-5.0058,-5.0448,-5.1183,-5.1183,-5.1183,-5.1183,-5.1524,-5.2164,-5.2991,-5.3715,-5.4506,-5.5354,-5.5724,-5.5954,-5.6162,-5.6328,-5.6492,-5.6653,-5.722,-5.7671,-5.8094,-5.8852,-5.9325,-5.9692,-6.0061,-6.0246,-6.0365,-6.0527,-6.069,-6.08,-6.0846,-6.0894,-6.096,0.0,0.0,0.0,0.0,0.0,0.0,0.0,-5.8758,-5.8781,-5.8781,-5.8781,-5.8721,-5.8638,-5.8381,-5.8179,0.0,0.0,0.0,0.0,0.0,0.0,0.0,0.0,0.0,0.0,0.0,0.0,-5.4488,-5.4948,0.0,0.0,0.0,0.0,0.0,-5.7679,-5.7987,-5.8307,-5.8656,-5.9081,0.0,0.0,-6.0778,0.0,0.0,0.0,0.0,0.0,-5.748,-5.6708,-5.6443,-5.6029,-5.5747,-5.6711,-5.651,-5.5724,-5.4606,-5.3662,-5.2788,-5.2048,-5.1557,-5.1278,-5.1226,-5.1183,-5.1183,-5.1183,-5.1183,-5.094,-5.037,-5.012,-4.9821,-4.9144,-4.9047,-4.8949,-4.8453,-4.8286,-4.8034,-4.7452,-4.7106,-4.7019,-4.7207,-4.7609,-4.8256,-4.9421,-4.9884,-5.0448,-5.1183,-5.1258,-5.1317,-5.1317,-5.1948,-5.2714,-5.3466,-5.4316,-5.5079,-5.5706,-5.6011,-5.629,-5.6437,-5.66,-5.6742,-5.6984,-5.7558,-5.812,-5.8591,-5.9252,-5.9725,-6.0042,-6.0293,-6.0449,-6.0578,-6.0666,-6.08,-6.0911,-6.0914,-6.096,-6.1041,0.0,0.0,0.0,0.0,0.0,0.0,0.0,-5.8942,-5.8945,-5.8945,-5.8945,-5.8945,-5.8945,-5.8679,-5.8406,0.0,0.0,0.0,0.0,0.0,0.0,0.0,0.0,0.0,0.0,0.0,0.0,-5.5484,-5.5794,0.0,0.0,0.0,0.0,0.0,0.0,-5.8642,-5.9006,-5.9215,0.0,0.0,0.0,0.0,0.0,0.0,0.0,0.0,0.0,-5.7818,-5.6554,-5.6636,-5.6525,-5.6293,-5.5806,-5.5716,-5.5483,-5.4236,-5.3294,-5.2602,-5.2098,-5.1745,-5.1408,-5.1258,-5.1183,-5.1183,-5.1183,-5.1048,-5.0804,-5.0276,-4.9741,-4.9275,-4.9078,-4.88,-4.8604,-4.8604,0.0,-4.8118,-4.7679,-4.7163,-4.6916,-4.6931,-4.7366,-4.8019,-4.9132,-4.9661,-5.0308,-5.1108,-5.1508,-5.1639,-5.1639,-5.2186,-5.2819,-5.3634,-5.4488,-5.5122,-5.5706,-5.6011,-5.6346,-5.66,-5.6707,-5.7036,-5.7534,-5.8113,-5.8632,-5.9159,-5.9777,-6.0169,0.0,-6.0591,-6.071,-6.0757,-6.08,-6.0885,-6.0968,-6.0916,-6.1021,-6.1191,0.0,0.0,0.0,0.0,0.0,0.0,-5.904,-5.9139,-5.9178,-5.9234,-5.929,-5.929,-5.9234,-5.9102,-5.8926,0.0,0.0,0.0,0.0,0.0,0.0,0.0,0.0,0.0,0.0,0.0,-5.6037,-5.6367,-5.6807,0.0,0.0,0.0,0.0,0.0,0.0,-5.9083,-5.9556,-5.9773,0.0,0.0,0.0,0.0,0.0,0.0,0.0,0.0,0.0,0.0,-5.4526,-5.5058,-5.4871,-5.4595,-5.5074,-5.4861,-5.4367,-5.3861,-5.3213,-5.2544,-5.202,-5.1631,-5.1275,-5.1183,-5.1183,-5.1183,-5.1183,-5.1048,-5.0666,-4.9995,-4.9517,-4.9113,-4.8469,-4.8552,0.0,0.0,0.0,0.0,-4.8271,-4.7834,-4.7493,-4.7493,-4.7779,-4.837,-4.9325,-4.9821,-5.0464,-5.135,-5.1655,-5.2059,-5.2557,-5.2974,-5.3516,-5.4269,-5.5,-5.5572,-5.6011,-5.6273,-5.6546,-5.6742,-5.7105,-5.7498,-5.7959,-5.8591,-5.914,-5.9654,-6.0102,-6.0395,0.0,-6.071,-6.0777,-6.08,-6.0808,-6.0875,-6.0999,-6.0964,-6.1092,-6.1274,0.0,0.0,0.0,0.0,0.0,-5.8819,-5.9271,-5.9455,-5.9543,-5.9594,-5.9643,-5.9677,-5.9609,-5.9594,-5.9453,-5.9158,0.0,0.0,0.0,0.0,0.0,0.0,0.0,0.0,0.0,0.0,-5.7015,-5.7297,-5.7729,-5.8113,0.0,0.0,-5.8926,-5.9197,0.0,0.0,0.0,0.0,0.0,0.0,0.0,0.0,0.0,0.0,0.0,0.0,0.0,0.0,0.0,0.0,0.0,-5.3323,-5.4417,-5.4158,-5.35,-5.35,-5.2991,-5.2307,-5.1835,-5.1483,-5.1183,-5.1183,-5.1183,-5.1183,-5.1108,-5.0864,-5.048,-4.9677,-4.9178,-4.8687,-4.8133,-4.8202,0.0,0.0,0.0,-4.9062,-4.8949,-4.8521,-4.8256,-4.824,-4.8355,-4.88,-4.9597,-5.0292,-5.0908,-5.1614,-5.2148,-5.268,-5.3348,-5.3864,-5.4397,-5.4834,-5.5455,-5.5936,-5.6253,-5.6546,-5.6794,-5.7036,-5.7534,-5.7996,-5.8531,-5.9103,-5.962,-6.0053,-6.0349,-6.0572,0.0,-6.0777,-6.08,-6.08,-6.0811,-6.088,-6.1002,-6.1018,-6.1167,-6.1343,0.0,0.0,0.0,0.0,0.0,0.0,-5.953,-5.9847,-6.0026,-6.0068,-6.0099,-6.0099,-6.0099,-6.0026,-5.9912,-5.973,0.0,0.0,0.0,0.0,0.0,0.0,0.0,0.0,0.0,0.0,-5.7859,-5.8319,-5.8479,-5.8728,-5.8984,-5.9271,-5.9505,-5.9677,0.0,0.0,0.0,0.0,0.0,0.0,0.0,0.0,0.0,0.0,0.0,0.0,0.0,0.0,0.0,0.0,0.0,0.0,0.0,-5.3617,-5.2956,-5.306,-5.254,-5.1931,-5.1557,-5.1333,-5.1183,-5.1183,-5.1183,-5.1108,-5.0848,-5.0509,-5.0042,-4.9437,-4.8589,-4.7919,-4.7964,-4.7934,0.0,0.0,0.0,0.0,-4.9597,-4.9225,-4.8965,-4.8903,-4.8949,-4.9225,-4.9852,-5.1,-5.1835,-5.1987,-5.2836,0.0,-5.4038,-5.4782,-5.5199,-5.5182,-5.5671,-5.6032,-5.6383,-5.6635,-5.7054,-5.7601,-5.7941,-5.8461,-5.9196,-5.9605,-6.0011,-6.0403,-6.0616,-6.0753,0.0,-6.08,-6.08,-6.08,-6.0811,-6.088,-6.1002,-6.1072,-6.123,-6.1417,0.0,0.0,0.0,0.0,0.0,0.0,0.0,-5.9729,-6.0246,-6.037,-6.0433,-6.046,-6.0398,-6.0342,-6.0237,-5.9988,0.0,0.0,0.0,0.0,0.0,0.0,0.0,0.0,0.0,-5.8484,-5.8628,-5.8868,-5.9197,-5.938,-5.9489,-5.9817,-6.0025,-6.0198,-6.0407,-6.0654,0.0,0.0,0.0,0.0,0.0,0.0,-5.8566,0.0,0.0,0.0,0.0,0.0,0.0,0.0,0.0,0.0,0.0,0.0,0.0,-5.1769,-5.1696,-5.1582,-5.1372,-5.1037,-5.082,-5.082,-5.082,-5.0695,-5.0258,-4.9994,-4.9582,-4.8949,-4.8256,-4.7679,-4.7538,-4.7764,0.0,0.0,0.0,0.0,0.0,-4.9995,-4.9805,-4.9789,-5.0026,-5.0416,-5.0876,-5.1639,-5.2307,-5.2697,-5.3482,-5.4119,-5.4641,-5.5242,-5.5572,-5.5671,-5.5936,-5.6273,-5.6653,-5.6951,-5.7388,-5.7941,-5.8418,-5.9008,-5.9605,-5.9981,-6.0293,-6.0616,-6.071,-6.0777,-6.08,-6.08,-6.08,-6.0804,-6.0803,-6.0887,-6.1018,-6.123,-6.1386,-6.1558,0.0,0.0,0.0,0.0,0.0,0.0,0.0,-5.9546,-6.013,-6.0597,-6.071,-6.0753,-6.0704,-6.0635,-6.0533,-6.0256,0.0,0.0,0.0,0.0,0.0,0.0,0.0,0.0,-5.9178,-5.9178,-5.9271,-5.9434,-5.9777,-5.995,-5.9973,-6.0313,-6.0501,-6.0627,-6.0813,-6.0962,0.0,0.0,0.0,0.0,0.0,0.0,-5.7616,0.0,0.0,0.0,0.0,0.0,0.0,0.0,0.0,0.0,0.0,0.0,0.0,0.0,-5.0723,-5.0602,-5.081,-5.0607,-5.034,-5.034,-5.0292,-5.0073,-4.9773,-4.9519,-4.9178,-4.8537,-4.7864,-4.7437,-4.7381,-4.7764,-4.824,0.0,0.0,0.0,-5.0666,-5.048,-5.0386,-5.0464,-5.0892,-5.1252,-5.1606,-5.2274,-5.2905,-5.3415,-5.4119,-5.4703,-5.5224,-5.5689,-5.5993,-5.6144,-5.6273,-5.6546,-5.6951,-5.727,-5.7766,-5.8418,-5.8891,-5.943,-6.0042,-6.0321,-6.0572,-6.0777,-6.0823,-6.0823,0.0,-6.08,-6.0804,-6.0789,-6.0788,-6.0846,-6.0971,-6.135,-6.1549,-6.1651,0.0,0.0,0.0,0.0,0.0,0.0,0.0,0.0,-5.9753,-6.0754,-6.0891,-6.0914,-6.0997,-6.0891,-6.0738,-6.0559,0.0,0.0,0.0,0.0,0.0,0.0,0.0,0.0,-5.9823,-5.9777,-5.9861,-6.0057,-6.0237,-6.0372,-6.0449,-6.0772,-6.0963,-6.1031,-6.1144,-6.1168,-6.1074,-6.0488,-5.9925,-5.936,-5.8015,-5.7455,0.0,0.0,0.0,0.0,0.0,0.0,0.0,0.0,0.0,0.0,0.0,0.0,0.0,0.0,0.0,0.0,0.0,-4.9963,-4.9836,-4.9821,-4.9631,-4.9488,-4.9325,-4.9031,0.0,-4.8133,-4.7639,-4.7396,-4.7553,-4.7934,-4.8475,-4.9259,-4.99,-5.0464,-5.0896,-5.082,-5.0743,-5.0972,-5.145,-5.1842,-5.2059,-5.2957,-5.3698,-5.4119,-5.4844,-5.5437,-5.5918,-5.6123,-5.6346,-5.6564,-5.6617,-5.6811,-5.722,-5.7671,-5.8289,-5.893,-5.9342,-5.9849,-6.043,-6.0616,-6.0777,0.0,-6.0911,-6.0846,-6.08,-6.08,-6.0808,-6.0798,-6.079,-6.0803,-6.0845,-6.1406,-6.1646,-6.169,0.0,0.0,0.0,0.0,0.0,0.0,0.0,0.0,0.0,0.0,-6.0939,-6.0981,-6.1001,-6.0962,-6.0941,0.0,0.0,0.0,0.0,0.0,0.0,0.0,0.0,0.0,-6.0246,-6.0246,-6.0283,-6.036,-6.065,-6.0788,-6.0861,-6.111,-6.1207,-6.1227,-6.1162,-6.0853,-6.0316,-5.9775,-5.9101,-5.8312,-5.7391,-5.6269,0.0,0.0,0.0,0.0,-5.2259,-5.2253,0.0,0.0,0.0,0.0,0.0,0.0,0.0,0.0,-4.9622,-4.9084,-4.8629,0.0,-4.9194,-4.8988,-4.9166,-4.9309,0.0,-4.8718,-4.837,-4.8049,-4.7639,-4.7381,-4.7794,-4.8339,-4.8969,-4.9884,-5.0386,-5.0956,-5.1483,-5.1557,-5.154,-5.1745,-5.2092,-5.2574,-5.3043,-5.3747,-5.4391,-5.4922,-5.542,-5.5861,-5.6123,-5.6492,-5.6617,-5.6437,-5.698,-5.7236,-5.72,-5.7859,-5.8568,-5.9267,-5.9635,-6.0102,-6.0641,-6.0734,-6.0823,-6.0911,-6.0911,-6.0846,-6.08,-6.0789,-6.08,-6.0808,-6.0805,-6.0798,-6.0864,-6.1403,-6.1631,-6.1706,0.0,0.0,0.0,0.0,0.0,0.0,0.0,0.0,0.0,0.0,0.0,0.0,0.0,0.0,0.0,0.0,0.0,0.0,0.0,0.0,0.0,0.0,0.0,-6.0553,-6.0633,-6.0613,-6.0676,-6.0762,-6.0942,-6.1084,-6.1188,-6.1295,-6.1308,-6.1182,-6.072,-6.0099,-5.9417,-5.8765,-5.8012,-5.7158,-5.5989,0.0,0.0,0.0,0.0,0.0,-5.2129,-5.2134,0.0,-5.2197,-5.2142,-5.1868,0.0,0.0,0.0,0.0,-4.897,-4.837,-4.784,-4.8133,-4.8604,-4.861,-4.8903,-4.9128,-4.8883,-4.8552,-4.8202,-4.788,-4.7639,-4.7639,-4.8202,-4.8836,-4.9614,-5.0338,-5.0924,-5.1408,-5.1835,-5.198,-5.2109,-5.2395,-5.28,-5.3332,0.0,-5.4408,-5.4983,-5.5496,-5.5861,-5.6106,-5.6401,-5.6653,-5.6739,-5.666,-5.7339,-5.7685,-5.7593,-5.8177,-5.882,-5.9521,-5.9866,-6.0245,-6.0762,-6.0846,-6.0911,-6.0955,-6.0955,-6.0891,-6.0808,-6.0795,-6.0787,-6.0789,-6.0806,-6.0942,-6.1206,-6.1526,-6.166,-6.1699,0.0,0.0,0.0,0.0,0.0,0.0,0.0,0.0,0.0,0.0,0.0,0.0,0.0,0.0,0.0,0.0,0.0,0.0,0.0,0.0,0.0,0.0,-6.0432,-6.0877,-6.0963,-6.0944,-6.1022,-6.1157,-6.1187,-6.1277,-6.1377,-6.1323,-6.114,-6.0808,-6.0009,-5.9197,-5.8446,-5.7602,-5.6834,-5.6006,-5.4425,0.0,0.0,0.0,0.0,0.0,0.0,0.0,0.0,-5.1688,-5.1737,-5.1622,-5.1232,0.0,0.0,0.0,0.0,0.0,-4.7396,-4.7779,-4.837,-4.8552,-4.8816,-4.898,-4.8867,-4.862,-4.8286,-4.788,-4.7794,-4.7964,-4.862,-4.9405,-5.0182,-5.0816,-5.145,-5.1924,-5.2036,-5.2252,-5.2537,-5.2972,-5.35,0.0,-5.4454,-5.4983,-5.5437,-5.5918,-5.6123,-5.6346,-5.66,-5.6794,-5.6978,-5.7006,-5.7684,-5.8157,-5.8381,-5.8669,-5.9166,-5.9817,-6.0056,-6.0367,-6.0814,-6.0938,-6.1017,-6.0997,0.0,0.0,-6.0798,-6.0804,-6.0829,-6.0893,-6.0909,-6.1203,-6.1627,-6.168,-6.1699,-6.1699,0.0,0.0,0.0,0.0,0.0,0.0,0.0,0.0,0.0,0.0,0.0,0.0,0.0,0.0,0.0,0.0,0.0,0.0,0.0,0.0,0.0,-6.004,-6.0683,-6.1113,-6.1236,-6.123,-6.127,-6.1342,-6.131,-6.1301,-6.1315,-6.1026,-6.0478,-5.9707,-5.915,-5.8326,-5.7394,-5.6525,-5.5671,-5.48,-5.3802,0.0,0.0,0.0,0.0,0.0,0.0,0.0,0.0,-5.1118,-5.1237,-5.1218,-5.0906,0.0,0.0,0.0,0.0,0.0,-4.7396,-4.787,-4.8607,-4.8903,-4.914,-4.9356,-4.9597,-4.9437,-4.9031,-4.8769,-4.8718,-4.8898,-4.9113,-4.99,-5.0602,-5.1258,-5.1941,-5.2285,-5.2252,-5.2607,-5.3041,-5.3517,0.0,-5.4379,-5.5,-5.5396,-5.5764,-5.6123,-5.6383,-5.66,-5.6742,-5.7188,-5.74,-5.717,-5.8067,-5.8924,-5.9609,-5.9401,-5.9643,-6.036,-6.036,-6.054,-6.088,-6.0978,-6.1018,-6.1099,0.0,-6.0924,-6.0808,-6.0809,-6.1007,-6.1311,-6.1437,-6.1558,-6.1687,-6.1693,-6.1705,-6.1696,0.0,0.0,0.0,0.0,0.0,0.0,0.0,0.0,0.0,0.0,0.0,0.0,0.0,0.0,0.0,0.0,0.0,0.0,0.0,0.0,-6.0219,-6.0164,-6.0943,-6.1383,-6.1401,-6.1358,-6.1358,-6.1347,-6.1203,-6.1067,-6.0963,-6.0368,-5.9669,-5.8877,-5.811,-5.7243,-5.6241,-5.5285,-5.4492,-5.373,0.0,0.0,0.0,0.0,0.0,0.0,0.0,0.0,0.0,0.0,-5.0389,-5.0232,-4.9915,0.0,0.0,0.0,0.0,0.0,-4.7482,-4.7925,-4.8545,-4.9221,-4.9499,-4.9677,-4.9979,-4.9821,-4.9597,-4.9356,-4.9275,-4.9452,-4.9741,-5.0354,-5.1059,-5.1851,-5.223,-5.2445,-5.2607,-5.2939,-5.3416,-5.4045,0.0,-5.4939,-5.5555,-5.5822,-5.6123,-5.6383,-5.66,-5.6847,-5.7105,-5.7504,-5.7656,-5.7652,-5.8373,-5.9175,-5.9901,-5.9794,-5.9906,-6.0274,-6.0514,-6.0695,-6.0862,-6.0997,-6.1057,-6.1099,0.0,-6.1022,-6.0964,-6.1074,-6.1283,-6.153,-6.1627,-6.167,-6.1699,-6.1705,-6.1701,-6.1694,0.0,0.0,0.0,0.0,0.0,0.0,0.0,0.0,0.0,0.0,0.0,0.0,0.0,0.0,0.0,0.0,0.0,0.0,0.0,-6.0592,-6.0568,-6.0504,-6.1172,-6.154,-6.1505,-6.1423,-6.133,-6.1205,-6.0961,-6.0653,-6.0294,-5.953,-5.8743,-5.7998,-5.7084,-5.6078,-5.5024,-5.4132,-5.3331,-5.2697,0.0,0.0,0.0,0.0,0.0,0.0,0.0,0.0,0.0,0.0,0.0,0.0,0.0,0.0,0.0,-4.7995,-4.7609,-4.7309,-4.7467,-4.788,-4.8453,-4.9194,-4.9677,-5.0058,-5.037,-5.0308,-5.0152,-4.99,-4.99,-5.0058,-5.0354,-5.0892,-5.1598,-5.2302,-5.2445,-5.257,-5.2903,-5.3281,-5.3815,-5.4557,-5.4974,-5.5437,-5.5918,-5.6123,-5.6346,-5.6653,-5.6847,-5.7087,-5.7486,-5.7774,-5.7986,-5.814,-5.8654,-5.9253,-5.9965,-5.9969,-6.0025,-6.0173,-6.0578,-6.0762,-6.0803,-6.1017,-6.1097,-6.1099,-6.1099,-6.1099,-6.1115,-6.1314,-6.1486,-6.1615,-6.1673,-6.1699,-6.1705,-6.1696,-6.1709,-6.1697,0.0,0.0,0.0,0.0,0.0,0.0,0.0,0.0,0.0,0.0,0.0,0.0,0.0,0.0,0.0,0.0,0.0,0.0,0.0,-6.1502,-6.1477,-6.1411,-6.1413,-6.1433,-6.1498,-6.1373,-6.1169,-6.0922,-6.0612,-5.9989,-5.9122,-5.8498,-5.7749,-5.6888,-5.5986,-5.5007,-5.384,-5.2959,-5.2312,-5.1786,-5.1258,0.0,0.0,0.0,0.0,0.0,0.0,0.0,0.0,0.0,0.0,0.0,0.0,0.0,-4.7402,-4.7387,-4.7291,-4.7309,-4.7309,-4.7794,-4.837,-4.862,-4.9405,-5.037,-5.1016,-5.1108,-5.1016,-5.08,-5.0876,-5.0968,-5.1043,-5.1614,-5.2086,-5.2373,-5.2499,-5.2694,-5.311,-5.3651,-5.4239,-5.4869,-5.5252,-5.5683,-5.6123,-5.629,-5.6492,-5.6742,-5.7138,-5.7504,-5.7745,-5.8097,-5.8394,-5.8654,-5.8798,-5.9306,-6.0153,-6.0015,-6.0065,-6.0384,-6.0559,-6.0666,-6.0803,-6.1017,-6.1098,-6.1099,-6.1097,-6.1109,-6.1112,-6.1305,-6.1489,-6.1615,-6.166,-6.1705,-6.1696,-6.1701,-6.1701,-6.1701,0.0,0.0,0.0,0.0,0.0,0.0,0.0,0.0,0.0,0.0,0.0,0.0,0.0,0.0,0.0,0.0,0.0,0.0,0.0,-6.1495,-6.1431,-6.1318,-6.1206,-6.1065,-6.0887,-6.0943,-6.0806,-6.0411,-5.9614,-5.8878,-5.8221,-5.7507,-5.675,-5.5931,-5.4947,-5.3905,-5.2959,-5.201,-5.1515,-5.1334,-5.0749,-5.0548,0.0,0.0,0.0,0.0,0.0,0.0,0.0,0.0,-4.7719,-4.7754,0.0,0.0,-4.7321,-4.7321,-4.7264,-4.7381,-4.7639,-4.8049,-4.8453,-4.8949,-4.9501,-5.0152,-5.0618,-5.1016,-5.1183,-5.1242,-5.1392,-5.1598,-5.1688,-5.1941,-5.2175,-5.2373,-5.2499,-5.2764,-5.311,-5.3815,-5.4506,-5.5079,-5.559,-5.6028,-5.629,-5.6492,-5.6742,-5.7054,-5.7388,-5.7774,-5.8097,-5.8381,-5.8642,-5.8812,-5.8953,-5.9354,-6.0013,-6.0017,-6.0158,-6.0399,-6.0633,-6.075,-6.0803,-6.1017,-6.1099,-6.1097,-6.1092,-6.1158,-6.1308,-6.1452,-6.1568,-6.1662,-6.1699,-6.1696,-6.1701,-6.1701,-6.1701,-6.1701,0.0,0.0,0.0,0.0,0.0,0.0,0.0,0.0,0.0,0.0,0.0,0.0,0.0,0.0,0.0,0.0,0.0,0.0,-6.1432,-6.1311,-6.1169,-6.1021,-6.0806,-6.0535,-6.0177,-6.0121,-6.0,-5.979,-5.8663,-5.7886,-5.737,-5.6526,-5.5706,-5.4904,-5.384,-5.3026,-5.228,-5.134,-5.0778,-5.0453,-4.9946,-4.9846,0.0,0.0,0.0,0.0,0.0,0.0,0.0,0.0,-4.7321,0.0,0.0,0.0,0.0,0.0,-4.7309,-4.7381,-4.7794,-4.8049,-4.8286,-4.8867,-4.9356,-4.9836,-5.0214,-5.0848,-5.1333,-5.1573,-5.1794,-5.2013,-5.2175,-5.2175,-5.2247,-5.239,-5.257,-5.2834,-5.3315,-5.3977,-5.4738,-5.5319,-5.5879,-5.6253,-5.6455,-5.6707,-5.7003,-5.7289,-5.7697,-5.807,-5.8406,-5.8656,-5.8843,-5.9065,-5.9176,-5.9507,-6.0004,-6.0208,-6.0379,-6.0517,-6.0704,-6.0792,-6.0824,-6.1018,-6.1119,-6.1092,-6.1178,-6.1294,-6.1473,-6.1567,-6.1645,-6.1693,-6.171,-6.1701,-6.1701,-6.1701,-6.1701,-6.1701,0.0,0.0,0.0,0.0,0.0,0.0,0.0,0.0,0.0,0.0,0.0,0.0,0.0,0.0,0.0,0.0,0.0,0.0,-6.1303,-6.1037,-6.0804,-6.0608,-6.0223,-5.984,-5.9507,-5.8896,-5.874,-5.9065,-5.7886,-5.6997,-5.6474,-5.5507,-5.4651,-5.3727,-5.289,-5.2241,-5.1804,-5.1037,-5.0057,-4.8926,-4.8723,-4.8453,-4.8286,0.0,0.0,0.0,0.0,0.0,0.0,0.0,-4.7309,0.0,0.0,0.0,0.0,-4.7309,-4.7309,-4.7294,-4.7553,-4.7794,-4.8049,-4.8286,-4.8785,-4.9437,-4.9836,-5.0711,-5.1573,-5.1778,-5.2158,-5.2373,-5.2373,-5.2373,-5.2373,-5.2373,-5.2711,-5.311,-5.3651,-5.4269,-5.4957,-5.5648,-5.6011,-5.629,-5.66,-5.6847,-5.7188,-5.7583,-5.7997,-5.8375,-5.8716,-5.8859,-5.9061,-5.9399,-5.9518,-5.9811,-6.0198,-6.0609,-6.0795,-6.08,-6.0811,-6.0798,-6.0824,-6.1021,-6.1098,-6.1103,-6.1313,-6.1486,-6.1597,-6.1606,-6.1641,-6.1701,-6.1701,-6.1701,-6.1701,-6.1701,-6.1701,-6.1701,0.0,0.0,0.0,0.0,0.0,0.0,0.0,0.0,0.0,0.0,0.0,0.0,0.0,0.0,0.0,0.0,0.0,0.0,-6.0887,-6.0589,-6.0288,-5.9987,-5.9611,-5.9195,-5.8737,-5.7758,-5.737,-5.7543,-5.6825,-5.6111,-5.5367,-5.4465,-5.3713,-5.3078,-5.2379,-5.1544,-5.0669,-4.9834,-4.9093,-4.8444,-4.808,-4.7828,-4.7588,0.0,0.0,0.0,0.0,0.0,0.0,0.0,0.0,0.0,0.0,0.0,0.0,-4.7309,-4.7309,-4.7396,-4.781,-4.7964,-4.8049,-4.8453,-4.8949,-4.9437,-4.9836,-5.0602,-5.1376,-5.2069,-5.2302,-5.2373,-5.2373,-5.2373,-5.2445,-5.2499,-5.2834,-5.3315,-5.3849,-5.4586,-5.5199,-5.5648,-5.6162,-5.6546,-5.6742,-5.7138,-5.7583,-5.7941,-5.8338,-5.8698,-5.9022,-5.9196,-5.9345,-5.9609,-5.9899,-6.0103,-6.0123,-6.0594,-6.0804,-6.0811,-6.0798,-6.0804,-6.0808,-6.1002,-6.1186,-6.1313,-6.1467,-6.1557,-6.1607,-6.1646,-6.1679,-6.1701,-6.1701,-6.1701,-6.1701,-6.1701,-6.1701,-6.1701,0.0,0.0,0.0,0.0,0.0,0.0,0.0,0.0,0.0,0.0,-6.1681,-6.1645,0.0,0.0,0.0,0.0,0.0,0.0,0.0,-6.0075,-5.9709,-5.9248,-5.8932,-5.8405,-5.758,-5.6703,-5.6148,-5.589,-5.5658,-5.5147,-5.4391,-5.37,-5.3056,-5.2418,-5.1636,-5.0749,-4.9724,-4.9011,-4.8385,-4.7843,-4.7603,-4.7433,-4.7276,0.0,0.0,0.0,0.0,0.0,0.0,0.0,0.0,0.0,0.0,0.0,0.0,-4.7309,-4.7309,-4.7396,-4.7709,-4.7794,-4.7964,-4.8286,-4.8702,-4.9194,-4.9979,-5.0755,-5.1598,-5.223,-5.2373,-5.2373,-5.2373,-5.2373,-5.2445,-5.257,-5.2956,-5.3483,-5.4076,-5.4817,-5.542,-5.5936,-5.6365,-5.6794,-5.6984,-5.7455,-5.7821,-5.8213,-5.8535,-5.8884,-5.9272,-5.9417,-5.9643,-5.9937,-6.0246,-6.0412,-6.0388,-6.0702,-6.0882,-6.0918,-6.0847,-6.0848,-6.0924,-6.1133,-6.131,-6.1493,-6.1588,-6.1634,-6.1631,-6.1673,-6.1691,-6.1701,-6.1701,-6.1701,-6.1701,-6.1701,-6.1701,-6.1701,0.0,0.0,-5.9007,-5.9007,0.0,0.0,0.0,0.0,0.0,0.0,-6.1637,-6.1558,0.0,0.0,0.0,0.0,0.0,0.0,0.0,0.0,-5.9084,-5.8471,-5.8094,-5.7413,-5.6257,-5.5716,-5.5112,-5.4345,-5.4551,-5.4235,-5.3566,-5.314,-5.2528,-5.1739,-5.0669,-4.982,-4.9104,-4.8408,-4.7794,-4.7317,-4.7336,-4.7309,-4.7309,-4.7309,0.0,0.0,0.0,0.0,0.0,0.0,0.0,0.0,-4.7309,-4.7309,-4.7309,-4.7309,-4.7309,-4.7294,-4.7553,-4.7624,-4.7624,-4.7964,-4.8286,-4.8934,-5.0198,-5.1075,-5.1851,-5.223,-5.2373,-5.2373,-5.2373,-5.2373,-5.2445,-5.264,-5.3076,-5.3715,-5.4345,-5.5026,-5.5711,-5.6328,-5.6707,-5.7003,-5.7388,-5.7697,-5.8051,-5.8511,-5.8743,-5.9044,-5.9434,-5.9662,-5.9937,-6.0321,-6.054,-6.0712,-6.0827,-6.0964,-6.106,-6.1119,-6.0923,-6.0935,-6.1139,-6.1314,-6.1478,-6.1604,-6.1666,-6.1699,-6.1699,-6.1696,-6.1701,-6.1701,-6.1701,-6.1701,-6.1701,-6.1701,-6.1701,-6.1701,0.0,0.0,-5.8987,-5.9004,0.0,0.0,0.0,0.0,0.0,0.0,0.0,0.0,0.0,-6.1111,0.0,0.0,0.0,0.0,0.0,0.0,-5.8332,-5.7914,-5.7098,-5.633,-5.5618,-5.5009,-5.4391,-5.3881,-5.3994,-5.3751,-5.319,-5.2352,-5.154,-5.0586,-4.9726,-4.8953,-4.8484,-4.7804,-4.7377,-4.7264,-4.7294,-4.7309,-4.7309,-4.7309,-4.7309,0.0,0.0,0.0,0.0,0.0,0.0,0.0,-4.7309,-4.7309,-4.7309,-4.7309,-4.7309,-4.7294,-4.7553,-4.7624,-4.7624,-4.7964,-4.8453,-4.9015,-4.9884,-5.057,-5.1194,-5.1762,-5.2013,-5.2175,-5.2175,-5.2373,-5.2694,-5.3041,-5.3517,-5.4093,-5.479,-5.5378,-5.5957,-5.6492,-5.7003,-5.7406,-5.7697,-5.8097,-5.8492,-5.8865,-5.9121,-5.9453,-5.9847,-6.0061,-6.033,-6.0681,-6.088,-6.1002,-6.1029,-6.1171,-6.1268,-6.1333,-6.1128,-6.1138,-6.1347,-6.1383,-6.1498,-6.1673,-6.1693,-6.1705,-6.1696,-6.1696,-6.1701,-6.1701,-6.1701,-6.1701,-6.1701,-6.1701,-6.1701,-6.1701,0.0,0.0,0.0,0.0,0.0,0.0,0.0,0.0,0.0,0.0,0.0,0.0,0.0,-6.0764,0.0,0.0,-5.9644,0.0,0.0,-5.8201,-5.7719,-5.7065,-5.6221,-5.5502,-5.4948,-5.4345,-5.3832,-5.3382,-5.3298,-5.3058,-5.2561,-5.1786,-5.0871,-4.9868,-4.8994,-4.8291,-4.7789,-4.7463,-4.7321,-4.7309,-4.7309,-4.7309,-4.7309,-4.7309,-4.7309,-4.7309,-4.7309,0.0,0.0,0.0,0.0,0.0,0.0,0.0,-4.7309,-4.7309,-4.7309,-4.7309,-4.7467,-4.7467,-4.7553,-4.788,-4.8469,-4.9128,-4.9661,-5.0214,-5.0848,-5.1258,-5.1721,-5.2102,-5.2102,-5.2357,-5.2694,-5.311,-5.37,-5.4333,-5.5035,-5.5653,-5.6274,-5.6829,-5.7289,-5.7726,-5.8115,-5.8425,-5.8743,-5.9159,-5.9417,-5.9711,-6.011,-6.0403,-6.0681,-6.0941,-6.1133,-6.1264,-6.1278,-6.1362,-6.1421,-6.1493,-6.1394,-6.1379,-6.1509,-6.1539,-6.1595,-6.1699,-6.1705,-6.1691,-6.1701,-6.1701,-6.1701,-6.1701,-6.1701,-6.1676,-6.1652,-6.1652,-6.1646,-6.164,0.0,0.0,0.0,0.0,0.0,0.0,0.0,0.0,0.0,0.0,0.0,0.0,0.0,0.0,-5.9965,0.0,0.0,0.0,0.0,-5.7624,-5.7015,-5.609,-5.5402,-5.4799,-5.4281,-5.3815,-5.3433,-5.302,-5.2744,-5.234,-5.1964,-5.1394,-5.0442,-4.9296,-4.8624,-4.7897,-4.7317,-4.7264,-4.7309,-4.7309,-4.7309,-4.7309,-4.7309,-4.7309,-4.7309,-4.7309,-4.7309,-4.7309,-4.7309,-4.7309,0.0,0.0,0.0,0.0,-4.7309,-4.7309,-4.7309,-4.7381,-4.7381,-4.7396,-4.7553,-4.7964,-4.8552,-4.9062,-4.9533,-5.0089,-5.065,-5.0896,-5.1499,-5.203,-5.2086,-5.2357,-5.2834,-5.3247,-5.3881,-5.4568,-5.5242,-5.5922,-5.6582,-5.7239,-5.7649,-5.8024,-5.8511,-5.8698,-5.8964,-5.9417,-5.9643,-5.9969,-6.0349,-6.0681,-6.0942,-6.1154,-6.1308,-6.1452,-6.1537,-6.152,-6.1549,-6.1607,-6.1607,-6.1623,-6.1621,-6.1658,-6.1693,-6.1705,-6.1696,-6.1701,-6.1701,-6.1701,-6.1701,-6.1701,-6.1696,-6.1652,-6.1621,-6.1595,-6.1582,-6.1588,0.0,0.0,0.0,0.0,0.0,0.0,0.0,0.0,0.0,0.0,-6.0924,-6.0661,0.0,0.0,0.0,-5.9027,-5.8545,0.0,-5.7388,0.0,0.0,-5.5217,-5.4738,-5.4281,-5.3815,-5.3382,-5.3004,-5.2657,-5.2516,-5.223,-5.1851,-5.1343,-5.0272,-4.8724,-4.8615,-4.8072,-4.7279,-4.7294,-4.7309,-4.7309,-4.7309,-4.7309,-4.7309,-4.7309,-4.7309,-4.7309,-4.7309,-4.7309,-4.7309,-4.7309,-4.7309,0.0,0.0,0.0,-4.7309,-4.7309,-4.7381,-4.7538,-4.7538,-4.7709,-4.7964,-4.8202,-4.862,-4.9031,-4.9517,-5.0058,-5.0618,-5.1108,-5.1483,-5.1851,-5.1964,-5.2483,-5.311,-5.3783,-5.4286,-5.4939,-5.5883,-5.6384,-5.6984,-5.7649,-5.7997,-5.8286,-5.8614,-5.8942,-5.9272,-5.9628,-5.9937,-6.0274,-6.0633,-6.0901,-6.1152,-6.1356,-6.1445,-6.1559,-6.1678,-6.1627,-6.1627,-6.1685,-6.1685,-6.1699,-6.1693,-6.1693,-6.1705,-6.1696,-6.1701,-6.1701,-6.1701,-6.1701,-6.1701,-6.1696,-6.1646,-6.164,-6.1673,-6.1627,-6.1556,-6.1519,0.0,0.0,0.0,0.0,0.0,0.0,0.0,0.0,0.0,0.0,0.0,-6.0411,0.0,0.0,0.0,0.0,0.0,0.0,-5.5981,-5.5367,0.0,-5.4218,-5.3895,-5.3516,-5.311,-5.2797,-5.2587,-5.2499,-5.2445,-5.2125,-5.1696,-5.145,-5.0538,-4.9168,-4.8872,-4.8271,-4.7467,-4.7396,-4.7309,-4.7309,-4.7309,-4.7309,-4.7309,-4.7309,-4.7309,-4.7309,-4.7309,-4.7309,-4.7309,-4.7309,-4.7309,-4.7309,-4.7309,0.0,0.0,0.0,-4.7467,-4.7639,-4.7964,-4.837,-4.8785,-4.8867,-4.934,-4.9884,-5.0058,-5.0618,-5.1167,-5.145,-5.1818,-5.2109,-5.2181,-5.2677,-5.3315,-5.4028,-5.4568,-5.5301,-5.6108,-5.6758,-5.7356,-5.7839,-5.8268,-5.8614,-5.8942,-5.9196,-5.9489,-5.9893,-6.0208,-6.0514,-6.0839,-6.1133,-6.1327,-6.1445,-6.1558,-6.1646,-6.1706,-6.1679,-6.1666,-6.1705,-6.1705,-6.1705,-6.1691,-6.1696,-6.1696,-6.1701,-6.1701,-6.1701,-6.1701,-6.1701,-6.1676,-6.1632,-6.1601,-6.1576,-6.1537,-6.15,-6.1448,-6.1376,0.0,0.0,0.0,0.0,0.0,0.0,0.0,0.0,0.0,0.0,0.0,0.0,0.0,0.0,0.0,0.0,0.0,0.0,-5.4641,0.0,0.0,0.0,0.0,-5.2727,-5.2428,-5.2302,-5.223,-5.2302,-5.2302,-5.2109,-5.168,-5.1614,-5.0864,-4.9677,-4.9147,-4.8423,-4.7553,-4.7396,-4.7309,-4.7309,-4.7309,-4.7309,-4.7309,-4.7309,-4.7309,-4.7309,-4.7309,-4.7309,-4.7309,-4.7309,-4.7309,-4.7309,-4.7309,-4.7309,0.0,0.0,0.0,-4.788,-4.837,-4.8949,-4.9437,-4.9501,-5.0058,-5.0586,-5.0739,-5.1226,-5.1704,0.0,-5.2291,-5.2574,-5.2784,-5.3145,-5.3617,-5.4425,-5.5044,-5.5694,-5.6528,-5.712,-5.7697,-5.8115,-5.8486,-5.8862,-5.9196,-5.94,-5.9677,-6.014,-6.0456,-6.075,-6.1022,-6.1294,-6.1456,-6.151,-6.1646,-6.1699,-6.1705,-6.1696,-6.1701,-6.1681,-6.0822,-6.0393,-6.0393,-6.0393,-6.0393,-6.0393,-6.0393,-6.0393,-6.0471,-6.133,-6.1652,-6.1601,-6.1563,-6.1498,-6.1401,-6.1362,-6.1308,-6.1239,0.0,0.0,0.0,0.0,0.0,0.0,0.0,0.0,0.0,0.0,0.0,0.0,-5.959,-5.8872,-5.812,-5.7413,-5.6438,0.0,0.0,0.0,0.0,0.0,0.0,0.0,-5.1802,-5.1835,-5.1942,-5.2102,-5.2053,-5.1964,-5.1778,-5.1778,-5.1075,-4.9852,-4.9228,-4.8423,-4.7553,-4.7396,-4.7309,-4.7309,-4.7309,-4.7309,-4.7309,-4.7309,-4.7309,-4.7309,-4.7309,-4.7309,-4.7309,-4.7309,-4.7309,-4.7309,-4.7309,-4.7309,-4.7309,0.0,0.0,0.0,-4.9031,-4.9437,-4.9677,-5.0042,-5.0493,-5.0876,-5.1236,0.0,-5.2109,-5.2694,-5.2939,-5.3247,-5.3977,-5.3977,-5.42,-5.5349,-5.583,-5.6402,-5.737,-5.7697,-5.7978,-5.8572,-5.8716,-5.8884,-5.9345,-5.9594,-5.9874,-6.0349,-6.0704,-6.0963,-6.1184,-6.1376,-6.1529,-6.1595,-6.166,-6.1705,-6.1696,-6.1701,-6.1701,-6.1661,-5.8421,-5.6875,-5.6875,-5.6879,-5.6879,-5.6879,-5.6875,-5.6875,-5.7109,-6.028,-6.1607,-6.1601,-6.1461,-6.1401,-6.1375,-6.1259,-6.1169,-6.1099,0.0,0.0,0.0,0.0,0.0,0.0,0.0,0.0,0.0,0.0,0.0,0.0,0.0,-5.8595,-5.7749,-5.6685,-5.5144,0.0,0.0,0.0,0.0,0.0,0.0,0.0,0.0,-5.0972,-5.1167,-5.1516,-5.1598,-5.1557,-5.1408,-5.121,-5.0586,-4.9517,-4.9228,-4.8656,-4.7794,-4.7467,-4.7309,-4.7309,-4.7309,-4.7309,-4.7309,-4.7121,-4.7019,-4.7019,-4.6858,-4.6858,-4.6858,-4.6858,-4.6858,-4.6858,-4.7019,-4.7019,-4.7106,-4.7639,-4.8187,-4.8836,-4.9356,-5.0073,-5.0695,-5.0876,-5.1401,-5.1858,-5.2307,-5.2644,-5.306,-5.35,-5.3781,-5.4136,-5.4844,-5.4826,-5.4931,-5.5791,-5.6384,-5.6964,-5.7631,-5.796,-5.8275,-5.8656,-5.8902,-5.9158,-5.9559,-5.9842,-6.016,-6.0564,-6.0862,-6.1131,-6.1308,-6.1479,-6.1603,-6.166,-6.1679,-6.1344,-6.0627,-6.133,-6.0607,-5.8402,-5.7192,-5.6606,-5.6606,-5.6606,-5.6602,-5.6592,-5.6592,-5.6592,-5.684,-6.0119,-6.1463,-6.1461,-6.137,-6.1311,-6.1252,-6.1115,-6.1022,-6.0959,0.0,0.0,0.0,0.0,0.0,0.0,0.0,0.0,0.0,-5.9777,0.0,0.0,0.0,0.0,-5.7219,-5.5649,-5.4213,-5.2905,-5.1802,-5.1582,0.0,0.0,0.0,0.0,0.0,-4.9962,-5.029,-5.0795,-5.0968,-5.1016,-5.0848,-5.0586,-5.0026,-4.9194,-4.9,-4.8506,-4.7794,-4.7467,-4.7309,-4.7309,-4.7207,-4.7121,-4.7033,-4.6756,-4.6653,-4.6476,-4.6388,-4.6314,-4.6314,-4.6314,-4.6314,-4.6403,-4.6668,-4.6931,-4.7279,-4.788,-4.8521,-4.9147,-4.9741,-5.0602,-5.1376,-5.1623,-5.2131,-5.2714,-5.3145,-5.3533,-5.3847,-5.4333,-5.4614,-5.4991,-5.5618,-5.583,-5.6037,-5.6474,-5.7,-5.7498,-5.796,-5.8294,-5.8553,-5.8821,-5.9081,-5.94,-5.9796,-6.0091,-6.0403,-6.075,-6.1022,0.0,-6.1428,-6.1539,-6.1634,-6.1705,-6.1696,-6.1154,-6.0002,-6.0373,-5.9222,-5.6606,-5.6606,-5.6602,-5.6597,-5.6597,-5.6606,-5.6589,-5.6459,-5.7083,-5.8383,-6.0512,-6.1383,-6.1359,-6.1278,-6.1217,-6.1118,-6.0981,-6.0875,-6.0823,0.0,0.0,0.0,0.0,0.0,0.0,0.0,0.0,-6.0014,-6.0599,0.0,0.0,0.0,0.0,0.0,-5.4259,-5.3632,-5.2922,-5.1851,-5.1359,0.0,0.0,0.0,0.0,0.0,-4.8848,-4.9296,-4.9868,-5.0042,-5.0198,-5.0198,-4.9963,-4.9486,-4.8852,-4.8453,-4.8049,-4.7553,-4.7381,-4.7309,-4.7294,-4.7019,-4.6756,-4.6594,-4.621,-4.6016,-4.5747,-4.5732,-4.5732,-4.5747,-4.5747,-4.5747,-4.5837,-4.6403,-4.7019,-4.7709,-4.8118,-4.8785,-4.9517,0.0,0.0,0.0,-5.2148,-5.2714,-5.3315,-5.3847,-5.4218,-5.4596,-5.5122,-5.5443,-5.5773,-5.6257,-5.6915,-5.7406,-5.7437,-5.7649,-5.7978,-5.8425,-5.8614,-5.8821,-5.9157,-5.9327,-5.9575,-6.0068,-6.0284,-6.0559,-6.088,-6.1152,-6.1361,-6.1503,-6.1576,-6.1634,-6.1701,-6.1701,-6.1134,-5.9983,-5.887,-5.7738,-5.6606,-5.6606,-5.6597,-5.6606,-5.6606,-5.6589,-5.6566,-5.6154,-5.8033,-6.135,-6.1344,-6.132,-6.1272,-6.122,-6.1099,-6.0982,-6.085,-6.0753,-6.0685,0.0,0.0,0.0,0.0,0.0,0.0,-5.8952,-5.9435,-5.9801,0.0,0.0,0.0,-5.9212,-5.7236,-5.5168,-5.3298,-5.2524,-5.1786,-5.0956,-5.0743,-5.0498,-5.0153,-4.939,0.0,-4.8984,-4.8821,-4.8887,-4.9213,-4.9213,-4.9293,-4.9228,-4.9081,-4.8687,-4.8218,-4.7964,-4.7624,-4.7381,-4.7309,-4.7207,-4.7019,-4.6756,-4.6403,-4.5927,-4.5355,-4.5081,-4.4911,-4.4634,-4.4648,-4.4769,-4.4769,-4.4769,-4.494,-4.5747,-4.6653,-4.7467,-4.8118,-4.9,-4.9884,-5.057,0.0,0.0,0.0,0.0,0.0,-5.4844,-5.5129,-5.5367,-5.5751,-5.6164,-5.6546,-5.6758,-5.7289,-5.7792,-5.7987,-5.8186,-5.8381,-5.8614,-5.8758,-5.8961,-5.9308,-5.9524,-5.9777,-6.0208,-6.0482,-6.0731,0.0,-6.1252,-6.1434,-6.1568,-6.1641,-6.1671,-6.1701,-6.1701,-6.0939,-5.9358,-5.8656,-5.7734,-5.6592,-5.6592,-5.6595,-5.6608,-5.6549,-5.6402,-5.6145,-5.59,-5.7371,-5.9957,-5.9949,-6.0375,-6.1014,-6.1003,-6.096,-6.0894,-6.0781,-6.0729,-6.0685,0.0,0.0,0.0,0.0,0.0,0.0,-5.972,-6.0035,-6.0224,0.0,0.0,0.0,-5.8423,-5.6696,-5.4922,-5.3197,-5.2636,-5.1999,-5.1085,-5.0746,-5.0389,-5.0216,-4.958,-4.9178,-4.914,-4.8733,-4.8687,-4.8738,-4.8738,-4.8754,0.0,0.0,-4.8118,-4.7794,-4.7553,-4.7381,-4.7121,-4.7121,-4.7019,-4.6756,-4.6314,-4.5656,-4.4975,-4.4326,-4.3857,-4.3586,-4.3286,-4.3314,-4.3423,-4.3533,-4.4007,-4.4648,-4.5384,-4.6476,-4.7553,-4.8202,-4.9163,-5.0182,-5.0951,-5.1971,-5.2974,-5.3813,0.0,0.0,-5.5716,-5.6055,-5.633,-5.6617,-5.6982,-5.732,-5.7516,-5.7914,-5.8294,-5.8577,-5.8702,-5.8803,-5.8902,-5.9022,-5.9215,-5.954,-5.9777,-6.008,-6.0422,-6.0657,-6.0862,-6.1131,-6.1298,-6.1464,-6.1592,-6.166,-6.1701,-6.1701,-6.1701,-6.0861,-5.9124,-5.8788,-5.7938,-5.6567,-5.655,-5.6569,-5.6569,-5.6465,-5.6319,-5.611,-5.5883,-5.6571,-5.7906,-5.8642,-5.9726,-6.0905,-6.0901,-6.0872,-6.08,-6.0704,-6.0635,-6.061,0.0,0.0,-6.1381,-6.1458,-6.142,-6.1344,-6.1205,-6.108,-6.0955,0.0,-6.036,-5.9284,-5.7394,-5.6509,-5.5332,-5.3567,-5.3241,-5.2649,-5.1502,-5.0855,-5.0515,-5.0485,-4.9642,0.0,0.0,0.0,0.0,0.0,0.0,0.0,0.0,-4.8034,-4.7794,-4.7553,-4.7309,-4.7121,-4.6829,-4.6829,-4.6668,-4.6417,-4.5776,-4.4819,-4.3748,-4.3204,-4.2528,-4.1828,-4.1842,-4.173,-4.1828,-4.2248,-4.3396,-4.4698,-4.5216,-4.6388,-4.7709,-4.837,-4.9405,-5.0493,-5.1549,-5.254,-5.3499,-5.4596,-5.5308,0.0,-5.6492,-5.7,-5.737,-5.7558,-5.784,-5.8086,-5.8326,-5.8577,-5.8843,-5.9063,-5.9196,-5.9253,-5.9272,-5.9364,-5.954,-5.9791,-6.0061,-6.036,-6.0685,-6.0856,-6.1003,-6.12,-6.1336,-6.1479,-6.1588,-6.1666,-6.1696,-6.1696,-6.1696,-6.0915,-5.9256,-5.9143,-5.822,-5.6478,-5.6457,-5.6455,-5.6446,-5.6314,-5.6265,-5.6226,-5.599,-5.5807,-5.5826,-5.7461,-5.9158,-6.0764,-6.0834,-6.08,-6.0685,-6.0629,-6.0552,-6.0525,-6.0201,-6.071,-6.1123,-6.1236,0.0,0.0,0.0,-6.0999,-6.0856,-6.066,-6.0004,-5.8953,-5.7452,-5.6653,-5.5529,-5.3788,-5.2158,-5.0978,-5.0278,-4.9931,-4.9707,-4.9531,-4.9035,0.0,0.0,0.0,0.0,0.0,0.0,0.0,0.0,0.0,-4.7523,-4.7294,-4.6946,-4.6683,-4.6683,-4.6403,-4.6121,-4.5685,-4.5307,-4.4448,-4.3204,-4.236,-4.1458,-4.0718,-4.0554,-4.0453,-4.0541,-4.1471,-4.2736,-4.3979,-4.4648,-4.6016,-4.7553,-4.8339,-4.9614,-5.0919,-5.2175,-5.3298,-5.4419,-5.5645,-5.6185,0.0,-5.7462,-5.7766,-5.7969,-5.8201,-5.8484,-5.8732,-5.8791,-5.9045,-5.9326,-5.9449,-5.959,-5.9662,-5.9526,-5.9578,-5.9744,-6.008,-6.0293,-6.0533,-6.0746,-6.1002,-6.1169,-6.1274,-6.1448,-6.1567,-6.1603,-6.1667,-6.1679,-6.1628,-6.1679,-6.1211,-6.0158,-5.9404,-5.8126,-5.6338,-5.629,-5.6193,-5.6102,-5.6005,-5.5982,-5.5977,-5.575,-5.5671,-5.578,-5.671,-5.8135,-5.9842,-6.0488,-6.071,-6.0704,-6.0559,-6.0552,-6.0578,-5.9384,-5.9913,-6.04,-6.0702,0.0,0.0,0.0,-6.1065,-6.0982,-6.0789,-6.0053,-5.9233,-5.8403,-5.6653,-5.4722,-5.2711,-5.1096,-5.0025,-4.9515,-4.8903,-4.8661,-4.8743,-4.8677,0.0,0.0,0.0,0.0,0.0,0.0,0.0,0.0,0.0,-4.7508,-4.7106,-4.658,-4.6225,-4.5851,-4.5851,-4.5398,-4.4769,-4.4862,-4.4087,-4.2749,-4.198,-4.0857,-3.9815,-3.9544,-3.9544,-3.9725,-4.0844,-4.2306,-4.3748,-4.4727,-4.627,-4.7764,-4.879,-5.0087,-5.1565,-5.2943,-5.4207,-5.5338,-5.6456,-5.7043,0.0,0.0,-5.8526,-5.8791,-5.897,-5.9232,-5.9465,-5.9553,-5.9687,-5.983,-5.9973,-6.0044,-6.0103,-6.0102,-6.0072,-6.015,-6.0414,-6.0603,-6.0773,-6.0982,-6.1154,-6.1287,-6.1383,-6.1489,-6.1549,-6.1549,-6.1612,-6.1627,-6.1545,-6.1627,-6.1229,-6.032,-5.9825,-5.8695,-5.6878,-5.6388,-5.6059,-5.591,-5.5764,-5.5654,-5.559,-5.5564,-5.5451,-5.5375,-5.5817,-5.676,-5.8036,-5.9409,-6.0176,-6.046,-6.0453,-6.0472,-6.0525,-5.7974,-5.8709,-5.9298,-5.9791,0.0,0.0,0.0,0.0,-6.0856,-6.0879,-6.0297,-5.9745,-5.9423,-5.6742,-5.3869,-5.1128,-4.9837,-4.8898,-4.824,-4.7637,-4.7477,-4.7905,0.0,-4.8438,0.0,0.0,0.0,0.0,0.0,0.0,0.0,-4.7988,-4.7407,-4.6741,-4.6195,-4.5566,-4.4926,-4.5124,-4.4662,-4.3926,-4.4397,-4.3723,-4.236,-4.1782,-4.0567,-3.9117,-3.8724,-3.8828,-3.9324,-4.0401,-4.1959,-4.3707,-4.5095,-4.6624,-4.8141,-4.9327,-5.0698,-5.2324,-5.3772,-5.5073,-5.6205,-5.7229,-5.7831,-5.8325,0.0,0.0,0.0,-5.9715,-5.9985,-6.0199,-6.0293,0.0,0.0,-6.0495,0.0,0.0,0.0,-6.0618,0.0,-6.0714,-6.0858,-6.1022,-6.1191,-6.1271,-6.1361,-6.1491,-6.1476,-6.1468,-6.1487,-6.1529,-6.152,-6.148,-6.152,-6.1179,-6.0425,-6.0222,-5.9329,-5.7674,-5.673,-5.6091,-5.575,-5.5554,-5.5404,-5.5279,-5.5358,-5.5236,-5.4969,-5.5075,-5.5437,-5.6197,-5.829,-5.9463,-5.9979,-6.0256,-6.0389,-6.0472,-5.5322,-5.6734,-5.7574,-5.8219,0.0,0.0,0.0,0.0,-5.9894,-6.0711,-6.0617,-6.0326,-5.9799,-5.7339,-5.3987,-4.9813,-4.7978,-4.6524,-4.5361,-4.5608,-4.6197,-4.6974,0.0,0.0,-4.7377,0.0,0.0,0.0,0.0,0.0,0.0,0.0,-4.6959,-4.621,-4.5264,-4.4606,-4.4167,-4.4167,-4.379,-4.3314,-4.3614,-4.3136,-4.2079,-4.1285,-4.0045,-3.8699,-3.7998,-3.821,-3.9037,0.0,-4.1861,-4.3409,-4.5003,-4.6697,-4.8377,-4.9694,-5.1304,-5.3011,-5.4512,-5.5877,-5.7057,-5.7978,-5.8526,-5.9028,-5.9553,0.0,-6.0142,-6.0288,0.0,-6.0708,-6.0727,0.0,0.0,0.0,0.0,0.0,-6.1131,-6.1167,-6.1115,-6.0901,-6.1041,-6.1184,-6.12,-6.1308,-6.1415,-6.1503,-6.1396,-6.135,-6.1408,-6.135,-6.135,-6.1408,-6.135,-6.1278,-6.1177,-6.0363,-5.9407,-5.8368,-5.7371,-5.6459,-5.5621,-5.5418,-5.5269,-5.521,-5.5094,-5.5,-5.4893,-5.4784,-5.4805,-5.5139,-5.7742,-5.89,-5.9139,-5.9881,-6.0323,-6.0585,-5.2186,-5.3905,-5.4758,-5.5524,0.0,0.0,0.0,0.0,-5.8586,-5.9005,-5.8983,-5.9192,-5.995,-5.4035,-4.8647,-4.5276,-4.3429,-4.184,-4.0486,-4.1553,-4.2983,-4.4542,0.0,0.0,0.0,0.0,0.0,0.0,-4.7261,0.0,0.0,0.0,-4.6048,-4.5264,-4.4233,-4.3396,-4.2639,-4.2598,-4.2195,0.0,0.0,-4.1206,0.0,-4.0769,-3.984,-3.8291,-3.7572,-3.7892,-3.8724,0.0,-4.1677,0.0,0.0,-4.7016,-4.8708,-5.032,-5.1988,-5.3656,-5.5168,-5.6579,-5.7804,-5.8503,0.0,0.0,-6.0113,0.0,-6.0657,-6.0839,0.0,0.0,0.0,0.0,0.0,0.0,-6.1303,-6.1342,0.0,0.0,-6.1347,-6.115,0.0,0.0,-6.1376,-6.1408,-6.144,-6.144,-6.1308,-6.1248,-6.1275,-6.1217,-6.1197,-6.1223,-6.12,-6.1164,-6.1134,-6.0731,-6.0075,-5.9127,-5.8195,-5.7194,-5.616,-5.5484,-5.5047,-5.4844,-5.4742,-5.4616,-5.4486,-5.4373,-5.4416,-5.4649,-5.654,-5.7819,-5.8774,-5.9733,-6.0275,-6.052,-4.6917,-4.9285,-5.0626,-5.1648,0.0,0.0,0.0,0.0,-5.4529,-5.3926,-5.4252,-5.4822,-5.5691,-4.8134,-4.2002,-3.9564,-3.7056,-3.5664,-3.5642,-3.726,-3.931,-4.183,-4.2725,-4.3367,0.0,0.0,0.0,0.0,0.0,0.0,0.0,0.0,-4.5052,-4.4219,-4.3191,-4.2039,-4.1071,0.0,-4.0389,-3.9674,-3.9662,-3.9146,-3.8533,-3.9506,-3.8896,-3.756,-3.7024,-3.7346,-3.8185,-3.9481,-4.1054,0.0,-4.5072,-4.6957,-4.8759,-5.0611,-5.2287,-5.3948,-5.5437,0.0,0.0,0.0,0.0,0.0,0.0,0.0,0.0,0.0,0.0,0.0,0.0,0.0,-6.1452,-6.1442,0.0,-6.1519,0.0,-6.1507,0.0,-6.1327,0.0,0.0,0.0,-6.1476,-6.1428,-6.1369,-6.1252,-6.1169,-6.1155,-6.1079,-6.1041,-6.108,-6.1041,-6.1022,-6.0981,-6.0941,-6.0475,-5.956,-5.8642,-5.7632,-5.6542,-5.5446,-5.4814,-5.4552,-5.442,-5.4337,-5.4198,-5.4099,-5.4209,-5.4543,-5.5736,-5.7031,-5.8388,-5.9638,-6.0256,-6.0508,-3.8485,-4.1962,-4.4879,-4.632,-4.8213,0.0,0.0,0.0,-4.635,-4.4237,-4.54,-4.5995,-4.4781,-3.9357,-3.5052,-3.3064,-2.8986,-2.7933,-3.1328,-3.3061,-3.5508,-3.9258,-4.0044,-4.0624,-4.1214,0.0,0.0,0.0,0.0,0.0,0.0,0.0,0.0,0.0,-4.19,-4.0718,-3.9609,-3.9067,-3.8428,-3.7995,-3.7618,-3.699,-3.6402,0.0,-3.7,-3.67,-3.6386,0.0,0.0,-3.8311,-3.9791,0.0,0.0,0.0,0.0,0.0,0.0,0.0,0.0,0.0,0.0,-5.8723,0.0,0.0,0.0,0.0,-6.1394,0.0,0.0,0.0,0.0,-6.1557,-6.1588,-6.1595,-6.1607,0.0,0.0,-6.1634,-6.1558,-6.1408,-6.146,0.0,0.0,-6.1433,-6.1389,-6.1318,-6.1189,-6.106,-6.1002,-6.0938,-6.0955,-6.0997,-6.0955,-6.0911,-6.0891,-6.0846,-6.0358,-5.9492,-5.85,-5.7481,-5.6461,-5.5193,-5.4552,-5.4409,-5.4198,-5.4164,-5.4202,-5.4067,-5.4281,-5.4769,-5.5814,-5.6778,-5.7834,-5.949,-6.0293,-6.0638,-0.5015,-0.5424,-1.4349,-3.941,-4.2943,-4.1365,-3.8968,-2.6971,-2.0149,-2.5652,-2.0997,-1.8485,-2.188,-2.0879,-2.0322,-2.1308,-1.9269,-1.9107,-2.2103,-2.4499,-2.8077,-3.2844,-3.3868,-3.5046,-3.6744,0.0,0.0,0.0,0.0,0.0,0.0,0.0,0.0,0.0,0.0,-3.7488,0.0,0.0,0.0,0.0,0.0,-3.4159,-3.3744,0.0,-3.634,-3.6145,-3.6025,-3.6134,0.0,-3.7796,-3.92,-4.0989,-4.334,-4.5468,-4.7513,-4.9457,-5.1377,0.0,0.0,0.0,-5.7685,-5.8483,0.0,0.0,0.0,0.0,0.0,0.0,0.0,0.0,0.0,0.0,-6.164,-6.162,-6.1639,-6.1668,0.0,-6.1603,-6.1576,-6.1539,-6.1558,-6.1568,0.0,0.0,-6.1434,-6.1366,-6.1206,-6.108,-6.0999,-6.0891,-6.0846,-6.0869,-6.0846,-6.0823,-6.0823,-6.0823,-6.0623,-6.0268,-5.9256,-5.823,-5.712,-5.5983,-5.5032,-5.4324,-5.4198,-5.4198,-5.4198,-5.4105,-5.4326,-5.49,-5.6793,-5.7644,-5.8001,-5.9682,-6.0482,-6.0795,1.8757,2.0151,1.0879,-1.8145,-2.1817,-1.8775,-1.3165,-0.4318,-0.1037,-0.8773,-0.432,-0.2375,-0.7417,-0.714,-0.7505,-0.9716,-0.8699,-0.9646,-1.3861,-1.6702,-2.0754,-2.6101,-2.731,-2.8866,-3.1184,-3.1101,0.0,0.0,0.0,-3.5296,0.0,0.0,0.0,0.0,0.0,-3.425,-3.3993,-3.3567,-3.3138,0.0,0.0,-3.1707,0.0,0.0,-3.4447,-3.4569,0.0,-3.5024,-3.5454,-3.6846,-3.8392,-4.0312,-4.2573,-4.4741,-4.6942,-4.8666,-5.0514,-5.2287,-5.3445,-5.5185,0.0,-5.7825,-5.9152,0.0,-6.0832,0.0,-6.1584,0.0,0.0,0.0,0.0,0.0,-6.1639,-6.1607,-6.1631,-6.1648,0.0,-6.162,-6.1631,-6.1595,-6.1595,-6.1578,-6.1558,-6.1503,-6.1428,-6.1341,-6.1171,-6.1041,-6.0976,-6.0846,-6.08,-6.08,-6.08,-6.08,-6.08,-6.08,-6.0777,-6.0666,-5.9364,-5.8337,-5.749,-5.6078,-5.5047,-5.439,-5.4337,-5.4334,-5.4397,-5.4377,-5.4579,-5.5133,-5.76,-5.8489,-5.8573,-6.0002,-6.0731,-6.104,3.25,3.4351,3.0099,1.6529,1.3461,1.6546,2.7432,1.9742,1.1025,0.6398,0.5493,0.381,-0.0022,0.2497,0.3635,0.1585,0.2584,0.0263,-0.6643,-0.9591,-1.3518,-1.9075,-2.0242,-2.1997,-2.4348,-2.4795,-2.5769,0.0,0.0,0.0,0.0,0.0,0.0,0.0,-3.0659,0.0,-3.075,-3.0597,-3.0296,-2.9963,-2.9747,-2.9512,-2.9257,-3.0568,-3.1401,-3.2102,-3.2913,-3.3367,-3.3909,-3.5685,-3.7477,-3.9534,-4.1624,-4.4107,-4.6359,-4.7743,-4.9551,-5.1262,-5.2125,-5.3891,-5.5737,-5.6819,-5.8427,0.0,0.0,0.0,-6.1495,0.0,0.0,0.0,0.0,0.0,0.0,-6.16,-6.1606,-6.1606,-6.1602,-6.1645,-6.1679,-6.1606,-6.1602,-6.1568,-6.1515,-6.1441,-6.1341,-6.121,-6.108,-6.0981,0.0,-6.0846,-6.08,-6.08,-6.08,-6.08,-6.08,-6.08,-6.0757,-6.0666,-5.884,-5.7832,-5.7511,-5.5579,-5.4667,-5.4629,-5.4584,-5.4661,-5.4836,-5.4914,-5.5038,-5.549,-5.8169,-5.9312,-5.9514,-6.0473,-6.104,-6.1337,5.3099,5.3824,5.2708,4.8931,3.7169,2.6756,2.215,0.0,0.0,0.0,3.1408,3.3047,2.6356,2.2997,1.9353,1.4844,1.2134,0.8483,0.2983,-0.013,-0.415,-0.9541,-1.0749,-1.2817,-1.5987,-1.5882,-1.6746,-1.8704,0.0,0.0,-2.0618,0.0,0.0,0.0,0.0,0.0,-2.6567,-2.7013,-2.6953,-2.6503,-2.6616,-2.6236,-2.5855,0.0,-2.817,-2.902,-3.1852,-3.314,-3.3909,-3.5847,-3.7959,-4.0033,-4.2226,-4.4321,-4.6373,-4.7619,-4.9278,-5.0859,-5.196,-5.3543,-5.5203,-5.6533,-5.8011,-5.9349,0.0,0.0,0.0,0.0,0.0,0.0,0.0,0.0,0.0,-6.1534,-6.1523,-6.1548,-6.1586,-6.1607,-6.1626,-6.1599,-6.16,-6.1573,-6.1509,-6.1434,-6.1337,-6.1203,-6.1079,-6.0981,-6.0891,0.0,-6.08,-6.08,-6.08,-6.08,-6.08,-6.08,-6.0753,-6.061,-5.9415,-5.844,-5.7549,-5.6377,-5.5512,-5.4905,-5.5056,-5.5119,-5.5186,-5.5365,-5.5442,-5.5763,-5.851,-6.0126,-6.0945,-6.1115,-6.1279,-6.1451,6.0414,6.0978,6.1297,6.1176,5.2675,0.0,3.7748,4.2633,0.0,4.0633,4.3608,0.0,3.5963,3.175,2.7615,2.2748,1.9349,0.0,1.0884,0.0,0.4169,-0.078,-0.2352,-0.4579,-0.7699,-0.8096,-0.886,-1.0368,0.0,0.0,-1.1599,0.0,0.0,0.0,0.0,-1.8584,-2.1203,-2.3068,-2.3522,-2.3047,-2.3274,-2.3135,0.0,-2.4184,-2.5359,-2.6696,-2.969,-3.1707,-3.3322,-3.534,-3.7557,-3.9904,-4.1869,-4.3927,-4.5889,-4.7041,-4.8736,-5.0493,-5.1614,-5.3263,-5.4979,-5.6328,-5.7864,-5.916,-5.9974,-6.0576,-6.0992,0.0,-6.1276,-6.1385,0.0,0.0,0.0,-6.1503,-6.1491,-6.1518,-6.1578,-6.1634,-6.1628,-6.1592,-6.1609,-6.1582,-6.1558,-6.1428,-6.1287,-6.1169,-6.1061,-6.0959,0.0,0.0,-6.08,-6.08,-6.0823,-6.0846,-6.0846,-6.0869,-6.0631,-6.0104,-5.9172,-5.8183,-5.7175,-5.6297,-5.5656,-5.5275,-5.5375,-5.5474,-5.5585,-5.573,-5.5768,-5.6089,-5.9312,-6.0955,-6.1487,-6.1445,-6.1471,-6.1549,6.0067,6.0837,6.1456,6.1497,6.1264,0.0,0.0,5.8681,0.0,5.0574,0.0,4.3762,3.7054,3.4772,3.2074,2.8159,2.5423,2.2054,1.7827,1.5081,1.1755,0.7343,0.5396,0.3166,0.0396,-0.0395,-0.1051,0.0,0.0,0.0,0.0,0.0,0.0,0.0,0.0,0.0,0.0,-1.8776,-1.9992,-1.9745,-1.9562,-1.9669,-1.977,-2.106,-2.266,-2.4587,-2.6769,-2.9619,-3.2537,-3.4762,-3.7158,-3.9442,-4.1356,-4.3464,-4.543,-4.6433,-4.8208,-5.0096,-5.1287,-5.2941,-5.4699,-5.6201,-5.7703,-5.9039,-5.9862,-6.0474,-6.0865,-6.0944,-6.1068,-6.1194,0.0,0.0,0.0,0.0,0.0,0.0,0.0,-6.1646,-6.1662,-6.1612,-6.1609,0.0,-6.1592,-6.144,-6.1255,-6.1136,-6.106,0.0,0.0,0.0,-6.08,-6.08,-6.0869,-6.0911,-6.0911,-6.0955,-6.049,-5.9492,-5.8562,-5.7627,-5.6696,-5.5839,-5.5527,-5.564,-5.5647,-5.5769,-5.5937,-5.6004,-5.6132,-5.6628,-6.0133,-6.15,-6.1537,-6.1583,-6.1603,-6.1617,5.9969,6.0461,6.0794,6.1401,6.1136,6.0554,5.9681,5.8561,5.6706,5.3591,5.1631,4.8866,4.453,4.2131,3.9574,3.6367,3.2606,0.0,0.0,0.0,0.0,1.4566,1.2267,1.0189,0.8202,0.8568,0.8793,0.0,0.0,0.0,0.0,0.0,0.0,0.0,0.0,0.0,-1.1682,-1.435,0.0,-1.5306,-1.5008,-1.4954,-1.5336,-1.6339,-1.8337,-2.099,-2.3677,-2.7837,-3.2459,-3.5119,-3.7839,-4.0321,-4.2279,-4.4065,-4.559,-4.7013,-4.8376,-4.9747,-5.1366,-5.2587,-5.3921,-5.5909,-5.7117,-5.8128,-5.9608,-6.0246,-6.0597,-6.0719,-6.086,-6.1002,-6.1178,0.0,0.0,0.0,0.0,0.0,0.0,0.0,-6.1612,-6.1609,-6.1596,-6.1595,-6.1606,-6.146,-6.1352,-6.1271,-6.1098,0.0,0.0,0.0,-6.08,0.0,-6.0869,0.0,0.0,0.0,-6.049,-5.9492,-5.8652,-5.7761,-5.6836,-5.6066,-5.5767,-5.5847,-5.5958,-5.6056,-5.6154,-5.6226,-5.6864,-5.7986,-5.965,-6.0866,-6.167,-6.1679,-6.1672,-6.1681,5.9404,5.9693,5.9784,6.0015,0.0,0.0,0.0,5.8353,5.7345,5.5299,5.4112,5.22,4.9122,4.6993,4.4479,4.1112,3.7691,3.4447,3.1161,2.7349,2.3657,2.0322,1.7851,1.5569,1.3366,1.3739,1.4327,1.5258,0.0,0.0,0.0,0.0,0.0,0.0,0.0,0.1418,0.0,0.0,0.0,-0.9935,-0.9089,-0.9294,-1.0002,-1.0838,-1.3097,-1.6117,-1.9488,-2.3975,-2.9216,-3.3862,-3.7248,-3.9856,-4.1937,-4.3696,-4.5323,-4.6997,-4.8643,-5.0259,-5.1966,-5.3229,-5.4381,-5.6005,-5.6893,-5.7604,-5.8543,-5.8949,-5.9305,-5.976,-5.9969,-6.0299,-6.1003,-6.13,0.0,0.0,0.0,0.0,0.0,0.0,-6.1609,-6.1599,-6.1603,-6.1607,-6.1651,-6.1559,-6.1452,-6.1294,-6.1152,0.0,0.0,0.0,-6.08,0.0,0.0,0.0,-6.0955,0.0,-5.9939,-5.8969,-5.8142,-5.7254,-5.6365,-5.604,-5.5958,-5.6059,-5.617,-5.6239,-5.6359,-5.7006,-5.764,-5.8387,-6.0172,-6.1211,-6.1697,-6.1701,-6.1671,-6.1654,5.864,5.8808,5.8762,0.0,5.8678,5.8508,5.7848,5.7805,5.7501,5.6491,5.5794,5.4591,5.2418,5.0568,4.8252,4.4977,4.2031,3.8903,3.5688,3.2189,2.8763,2.5512,2.277,2.0446,1.8297,1.8412,1.9354,0.0,0.0,0.0,0.0,0.0,0.0,0.0,0.0,0.0,0.0,0.0,-0.286,-0.3738,-0.2827,-0.319,-0.4167,-0.4964,-0.7126,-1.0382,-1.4488,-1.9932,-2.6154,-3.2236,-3.631,-3.9203,-4.1322,-4.3464,-4.5581,-4.7254,-4.9109,-5.1004,-5.2573,-5.3797,-5.4896,-5.6033,-5.6662,-5.7137,-5.7625,-5.7813,-5.8077,-5.8708,-5.8955,-5.9422,-6.0604,-6.0983,0.0,0.0,0.0,0.0,0.0,0.0,-6.1561,-6.1563,-6.1569,-6.1589,-6.166,-6.1612,-6.1519,-6.1363,0.0,0.0,-6.0962,0.0,0.0,0.0,0.0,-6.092,-6.0727,0.0,-5.9321,-5.822,-5.7544,-5.6771,-5.5921,-5.5993,-5.6094,-5.6218,-5.6297,-5.6369,-5.6511,-5.7642,-5.8222,-5.8593,-6.0637,-6.1525,-6.1686,-6.1673,-6.1639,-6.1576,5.7747,0.0,0.0,0.0,0.0,5.7546,5.6979,5.6612,5.6663,5.7382,5.6827,5.6075,5.5227,5.3409,5.1303,4.9079,4.5961,4.286,4.004,3.5952,3.2629,3.0383,2.7388,2.54,2.4546,2.4944,2.6327,0.0,0.0,3.5934,0.0,0.0,0.0,0.0,0.0,0.0,0.0,0.5734,0.381,0.317,0.3624,0.3104,0.1858,0.134,-0.0724,-0.3843,-0.8579,-1.6798,-2.6184,-3.1312,-3.5665,-3.9202,-4.1179,-4.4048,-4.698,-4.827,-5.0073,-5.1772,-5.2827,-5.3579,-5.4371,-5.5697,-5.6197,-5.6643,-5.7596,-5.7851,-5.7925,-5.8001,-5.8169,-5.8618,-5.9721,-6.008,-6.0501,0.0,0.0,0.0,0.0,0.0,-6.1415,-6.1421,-6.1414,-6.1461,-6.1504,-6.152,0.0,0.0,-6.1381,0.0,0.0,0.0,0.0,-6.0891,-6.0955,-6.0631,-5.984,-5.9804,-5.8974,-5.7313,-5.7291,-5.6826,-5.5993,-5.6056,-5.616,-5.6282,-5.6356,-5.6441,-5.6551,-5.7461,-5.8306,-5.9129,-6.0138,-6.0971,-6.1602,-6.1619,-6.1558,-6.1489,0.0,0.0,0.0,0.0,0.0,0.0,0.0,5.6365,5.6511,5.6725,5.6106,5.5368,5.4688,5.3338,5.1659,4.9763,4.7215,4.474,4.2117,3.8668,3.5754,3.3564,3.058,2.8511,2.7479,2.7329,2.8567,0.0,0.0,0.0,0.0,0.0,0.0,0.0,0.0,1.9276,1.5846,1.2832,1.0889,1.0162,1.13,1.1179,1.0209,1.0321,0.9268,0.7297,0.5039,-0.4116,-1.5634,-1.908,-3.0397,-4.3404,-4.5546,-4.7307,-4.8818,-5.0447,-5.1726,-5.2788,-5.3653,-5.418,-5.4635,-5.525,-5.5493,-5.5722,-5.6129,-5.6324,-5.6549,-5.7008,-5.7684,-5.8338,-5.8799,-5.9066,-5.932,-5.9706,0.0,0.0,0.0,0.0,0.0,-6.1337,-6.144,-6.1495,-6.1539,-6.1519,-6.1528,0.0,0.0,0.0,0.0,0.0,0.0,-6.0955,0.0,-6.0093,-5.9746,-5.88,-5.7949,-5.7253,-5.6803,-5.6427,-5.6126,-5.6194,-5.629,-5.6425,-5.6445,-5.6479,-5.6618,-5.8004,-5.8797,-5.9222,-6.0588,-6.1322,-6.1592,-6.1558,-6.1479,-6.1357,5.6493,0.0,5.6271,0.0,5.6153,5.6173,5.5759,5.595,5.6007,5.5753,5.5207,5.4692,5.4341,5.3387,5.2146,5.0536,4.8654,4.6547,4.4344,4.1494,3.9066,3.7047,3.4142,0.0,3.11,3.0564,3.143,3.3935,3.7046,0.0,0.0,0.0,0.0,0.0,2.9035,2.4505,2.1533,1.9213,1.7618,1.7032,1.8532,1.8803,1.8387,1.8918,1.8776,1.8043,1.7136,0.8978,-0.1796,-0.4137,-1.9552,-3.8788,-4.4541,-4.7219,-4.8603,-5.0527,-5.197,-5.3138,-5.4047,-5.4606,-5.495,-5.5019,-5.5066,-5.5121,-5.5176,-5.5294,-5.5556,-5.6161,-5.6879,-5.752,-5.7865,-5.8066,-5.8257,-5.8525,0.0,0.0,0.0,-5.9614,0.0,-6.0828,-6.1006,-6.1169,-6.1512,-6.1503,0.0,0.0,0.0,0.0,0.0,0.0,0.0,0.0,0.0,0.0,-5.9032,-5.7871,-5.7155,-5.6921,-5.6372,-5.6145,-5.6193,-5.6314,-5.6406,-5.65,-5.6493,-5.6508,-5.6636,-5.8357,-5.9084,-5.926,-6.0929,-6.1576,-6.1558,-6.1468,-6.1363,-6.1209,5.6504,5.6394,5.6244,5.6033,5.5789,5.5542,5.5356,5.5072,5.4855,5.4648,5.4371,5.4446,5.5003,5.4295,5.3387,5.2468,5.0635,4.8806,4.7072,4.4811,4.2796,0.0,0.0,3.6986,3.6402,3.549,3.6122,3.826,0.0,0.0,4.3834,0.0,3.8899,3.6467,3.1411,2.8327,2.6655,2.4769,2.3888,2.393,2.4975,2.5486,2.5702,2.6324,2.68,2.6932,2.553,2.0441,1.4082,1.2001,-0.2116,-2.1288,-3.5306,-4.2133,-4.5384,-4.7602,-5.0185,-5.2553,-5.3708,-5.4638,-5.5259,-5.5134,-5.5094,-5.5094,-5.5094,-5.526,-5.5409,-5.5499,-5.5523,-5.5861,-5.6922,-5.7119,-5.741,-5.8356,0.0,0.0,0.0,-5.8529,0.0,-5.9725,-5.9895,-6.0312,-6.1308,-6.14,0.0,0.0,0.0,0.0,0.0,0.0,0.0,-5.9841,-5.9824,0.0,-5.7255,-5.7216,-5.679,-5.6031,-5.6082,-5.6141,-5.6207,-5.6416,-5.6503,-5.6499,-5.6504,-5.6511,-5.6628,-5.8314,-5.9035,-5.925,-6.0857,-6.1489,-6.1498,-6.1342,-6.1217,-6.1095,5.6497,5.6425,5.6299,5.6097,5.5954,5.5789,5.5607,5.5365,5.5186,5.4971,5.4685,5.4434,5.4368,5.3584,5.269,0.0,5.0605,4.9232,0.0,4.5981,4.4403,4.2953,4.0742,3.9365,3.8711,3.7645,3.7684,3.8922,0.0,0.0,0.0,4.0668,3.8723,3.7027,3.3183,3.1051,3.0214,2.9311,2.9137,2.974,3.1439,3.2487,3.3268,3.4653,3.5633,3.632,3.7811,3.1959,2.3646,2.3649,1.4268,0.1551,-0.4357,-2.3122,-4.3338,-4.5449,-4.7802,-5.0041,-5.1566,-5.3069,-5.4365,-5.5061,-5.5335,-5.5421,-5.5381,-5.5389,-5.5409,-5.5427,-5.548,-5.5604,-5.6006,-5.6151,-5.6309,-5.6618,-5.6695,0.0,-5.7545,0.0,-5.8022,-5.8942,-5.9107,-5.9299,-5.9658,-5.964,0.0,0.0,0.0,0.0,0.0,0.0,0.0,0.0,-5.8445,0.0,-5.7345,-5.6792,-5.6378,-5.6141,-5.6201,-5.6299,-5.6413,-5.6478,-5.6493,-5.6503,-5.6461,-5.6709,-5.727,-5.8406,-5.9114,-5.9626,-6.0929,-6.1454,-6.148,-6.1355,-6.1234,-6.1152,5.6501,5.6446,5.6339,5.6194,5.6151,5.6059,5.5882,5.5711,5.55,5.5268,5.4971,5.4635,5.4262,5.3587,0.0,5.197,5.1034,5.002,4.8809,4.7588,4.6277,4.4966,4.3268,4.2093,4.1457,4.0264,0.0,4.0462,4.0796,4.1331,4.1928,4.0123,3.8714,3.7655,3.5306,3.4074,3.3672,3.3788,3.4222,3.5164,3.6998,3.8355,3.9326,4.0923,4.2079,4.3257,4.5556,4.2167,3.6745,3.7623,3.0069,1.9961,1.8395,-0.0273,-2.3244,-3.1759,-3.9636,-4.599,-4.8235,-5.0386,-5.2351,-5.3533,-5.4342,-5.4967,-5.5436,-5.5503,-5.5421,-5.5427,-5.5456,-5.5527,-5.5596,-5.5703,-5.5766,-5.5766,-5.5806,-5.6019,-5.6558,0.0,-5.7079,0.0,0.0,0.0,0.0,-5.8803,-5.8817,0.0,0.0,0.0,0.0,0.0,0.0,-5.8183,-5.7647,-5.724,-5.6908,-5.6437,-5.6213,-5.6238,-5.6319,-5.6393,-5.6504,-5.6502,-5.6475,-5.6425,-5.6328,-5.6712,-5.746,-5.8327,-5.9045,-5.9754,-6.0845,-6.1306,-6.1291,-6.1234,-6.1106,-6.0998,5.6497,5.6458,5.6383,0.0,5.6302,0.0,5.6117,5.6007,5.5808,5.5585,5.5293,5.4998,5.4673,5.4212,5.3565,5.2769,0.0,0.0,0.0,4.9342,4.8362,4.719,4.5991,4.5055,4.4327,4.3229,4.2717,4.2695,4.2073,4.159,4.1071,3.9899,3.9006,3.8275,3.7573,3.718,3.7259,3.8086,3.8951,3.99,4.1595,4.2967,4.4016,4.5167,4.6419,4.7766,4.9223,5.0365,5.132,5.2043,4.4421,3.4506,3.3699,2.4428,1.0155,-0.8908,-2.6009,-3.9404,-4.2501,-4.6006,-4.9179,-5.0645,-5.225,-5.3813,-5.5147,-5.548,-5.5489,-5.5413,-5.5456,-5.5527,-5.5573,-5.564,-5.5703,-5.5703,-5.5703,-5.5703,-5.5703,-5.5766,-5.6096,0.0,0.0,0.0,-5.8344,-5.856,-5.862,0.0,0.0,0.0,0.0,0.0,-5.8137,-5.7339,-5.7311,-5.6924,-5.6121,-5.6201,-5.6246,-5.6304,-5.6383,-5.6434,-5.6502,-5.6501,-5.6437,-5.6297,-5.6218,-5.6601,-5.733,-5.8201,-5.8973,-5.9684,-6.0692,-6.1041,-6.0982,-6.0988,-6.0827,-6.0655,0.0,0.0,5.6459,5.6398,5.6336,5.6297,5.6259,5.6136,5.6024,5.5902,5.5564,5.5218,5.4933,5.4476,5.4035,5.3542,5.2581,5.1683,5.0947,5.0237,4.9334,4.8253,4.7556,4.6854,4.6125,4.5362,4.4582,4.3743,4.3115,4.2651,4.2179,4.1709,4.1181,4.0732,4.0534,4.0492,4.0605,4.1478,4.2406,4.3395,4.494,4.6003,4.6908,4.7913,4.8584,4.9127,5.0055,5.0682,5.1233,5.1919,5.0365,4.8105,4.7989,3.9039,2.5323,0.8701,-0.7654,-2.0984,-2.3966,-3.4134,-4.4499,-4.6711,-4.9671,-5.2356,-5.3768,-5.4811,-5.5498,-5.5474,-5.548,-5.5504,-5.5527,-5.5618,-5.5703,-5.5703,-5.5703,-5.5703,-5.5703,-5.5766,-5.5904,0.0,-5.6267,-5.6433,-5.6746,-5.68,-5.6815,0.0,0.0,0.0,-5.6537,-5.6694,-5.6699,-5.6495,-5.6517,-5.6459,-5.6248,-5.6369,-5.6433,-5.645,-5.6468,-5.6483,-5.6495,-5.6491,-5.6426,-5.6321,-5.6796,-5.7388,-5.8019,-5.8905,-5.9691,-6.0365,-6.0715,-6.0831,-6.0785,-6.0834,-6.0533,-6.0049,5.6556,5.6513,5.6472,5.6405,5.6368,5.6353,5.6304,5.6246,5.6156,5.6062,5.5789,5.5455,5.5172,5.4758,5.4364,5.4,5.3078,5.226,5.1701,5.0982,5.0254,4.9428,4.8927,4.8396,4.772,4.7208,4.6426,4.541,4.4732,4.4205,4.3868,4.3682,4.3404,4.2966,4.3109,4.3235,4.3376,4.4293,4.5123,4.6013,4.7258,4.8125,4.8759,4.9316,4.9607,4.9801,5.0189,5.0418,5.0678,5.0997,5.1418,5.1764,5.2029,4.7484,4.0449,3.2058,1.0421,-1.1438,-1.4511,-2.6548,-3.9217,-4.346,-4.6968,-4.9951,-5.1792,-5.3506,-5.4816,-5.5316,-5.5479,-5.5577,-5.5596,-5.5596,-5.564,-5.5724,-5.5745,-5.5745,-5.5785,-5.5826,-5.5866,-5.5885,-5.596,-5.6033,-5.6104,-5.6153,-5.6184,-5.6199,-5.6194,0.0,-5.6246,-5.6251,-5.6238,-5.6246,-5.6278,-5.6309,-5.6337,-5.6452,-5.651,-5.6543,-5.65,-5.6504,-5.6503,-5.6444,-5.6314,-5.619,-5.6808,-5.742,-5.8073,-5.8911,-5.9773,-6.0572,-6.0635,-6.0635,-6.0623,-6.058,-6.0308,-5.9834,5.6591,5.6532,5.6472,5.6422,5.6407,5.6375,5.6317,5.6291,5.6251,5.613,5.5938,5.5689,5.5364,5.5056,5.4685,5.4284,5.3508,5.2802,5.2278,5.1651,5.107,5.0509,5.0097,4.9615,4.9084,4.8709,4.8108,4.7273,4.6597,4.6039,4.5698,4.577,4.5507,4.5154,4.5532,4.5675,4.5746,4.6617,4.734,4.8081,4.9069,4.9753,5.011,5.0263,5.0269,5.0183,5.0183,5.0097,5.0011,5.0011,5.0189,5.0457,5.068,5.1129,5.1687,5.2059,2.6683,-0.202,-0.4405,-1.7327,-3.1901,-3.9434,-4.3701,-4.672,-4.903,-5.141,-5.3442,-5.4584,-5.5145,-5.5461,-5.563,-5.5577,-5.5551,-5.5703,-5.5766,-5.5787,-5.5846,0.0,-5.5905,-5.5905,-5.5962,-5.5999,-5.5999,-5.6068,-5.6114,-5.6184,-5.619,-5.6232,-5.6278,-5.6291,-5.6304,-5.6304,-5.6321,-5.6347,-5.6417,-5.6493,-5.6543,-5.6573,-5.6523,-5.6478,-5.6483,-5.6347,-5.6251,-5.6207,-5.6766,-5.7358,-5.8031,-5.8826,-5.9664,-6.0425,-6.0472,-6.0472,-6.0444,-6.0311,-6.0096,-5.9809,5.6536,5.6519,5.6472,5.6422,5.6407,5.6375,5.6302,5.6297,5.6265,5.618,5.6012,5.5788,5.5504,5.521,5.4874,5.4486,5.3999,5.3388,5.2518,5.206,5.1503,5.0766,5.064,5.0418,4.9999,4.9462,4.9006,4.8618,4.8316,4.7947,4.7589,4.7736,4.7719,4.749,4.7719,4.793,4.8092,4.8379,4.9221,5.0325,5.0532,5.1202,5.207,5.1933,5.1476,5.0942,5.0942,5.0545,5.0011,5.0011,4.986,4.9632,4.9308,4.9146,4.9017,4.9215,3.6985,2.3696,2.4943,0.5246,-1.8735,-3.1454,-3.8254,-4.2379,-4.4431,-4.7693,-5.0753,-5.2352,-5.3652,-5.4704,-5.54,-5.5528,-5.548,-5.5383,-5.5573,-5.5724,-5.5724,0.0,-5.5905,-5.5981,-5.5981,-5.5998,-5.5995,-5.6065,-5.6098,-5.6098,-5.6164,-5.6209,-5.6213,-5.6278,-5.6336,-5.6375,-5.6388,-5.6439,-5.6575,-5.6577,-5.6556,-5.6519,-5.6489,-5.6465,-5.6405,-5.6329,-5.657,-5.7058,-5.7634,-5.824,-5.8864,-5.9625,-6.0015,-6.0178,-6.0294,-6.0323,-6.0294,-6.0182,-5.9912,-5.9611,5.6567,5.6509,5.6485,5.6414,5.6407,5.6375,5.6309,5.6304,5.6284,5.6214,5.6065,5.5847,5.5596,5.5358,5.5066,5.4761,5.43,5.3758,5.3088,5.2445,5.1786,5.1211,5.107,5.0855,5.0599,5.0194,4.9948,4.9715,4.9428,4.9171,4.8927,4.9457,4.9627,4.9548,5.0113,5.0441,5.052,5.072,5.1202,5.1709,5.1803,5.2146,5.2577,5.2399,5.2148,5.1837,5.1658,5.1374,5.0952,5.0343,4.9869,4.9282,4.7932,4.6929,4.6102,4.544,3.6911,2.6496,2.0991,0.4473,-1.3028,-2.0573,-2.9334,-3.6932,-4.0189,-4.4304,-4.7993,-4.9875,-5.1781,-5.3429,-5.4396,-5.4436,-5.4346,-5.4458,-5.4884,0.0,-5.5365,-5.5645,-5.5866,-5.5981,-5.5998,-5.5996,-5.6012,-5.6065,-5.6098,-5.6149,-5.6228,-5.6265,-5.6253,-5.6329,-5.6364,-5.6388,-5.6433,-5.6494,-5.6601,-5.6556,-5.6528,-5.6509,-5.6511,-5.6457,-5.6407,-5.6263,-5.6548,-5.7178,-5.7708,-5.8295,-5.8889,-5.9684,-6.0026,-6.0057,-6.0178,-6.0304,-6.0352,-6.0292,-6.0057,-5.9747,5.6582,5.6536,5.6464,5.6377,5.6388,5.6353,5.6291,5.6278,5.6251,5.6199,5.6082,5.5903,5.564,5.5432,5.5176,5.4931,5.4519,5.4146,5.3866,5.3102,5.2354,5.1607,5.1264,5.114,5.1191,5.0992,5.0969,5.105,5.0788,5.0616,5.0535,5.1087,5.1346,5.1363,5.2104,5.2424,5.2424,5.256,5.2723,5.2938,5.2956,5.3119,5.3276,5.3115,5.2969,5.2675,5.2372,5.2128,5.1764,5.0634,4.9869,4.8911,4.6582,4.4747,4.3092,4.1273,3.4611,2.5405,1.4187,0.3398,-0.6003,-1.1347,-2.0734,-2.9781,-3.402,-3.8237,-4.1985,-4.4646,-4.7273,-4.9679,-5.1454,-5.2095,-5.25,-5.2915,0.0,0.0,0.0,-5.5265,-5.5728,-5.5924,-5.5979,-5.6012,-5.6029,-5.6082,-5.6149,-5.6194,-5.6265,-5.6297,-5.6302,-5.6356,-5.6417,-5.6426,-5.6476,-5.6528,-5.6601,-5.6528,-5.6511,-5.6503,-5.6484,-5.6444,-5.6398,-5.642,-5.6762,-5.7428,-5.7895,-5.8463,-5.9064,-5.962,-5.9918,-5.9994,-6.0129,-6.0294,-6.0444,-6.0437,-6.0245,-6.0,5.6519,5.6504,5.6461,5.6329,5.6302,5.6291,5.6232,5.6199,5.617,5.6114,5.6046,5.5903,5.564,5.5432,5.5176,5.4931,5.4635,5.4584,5.4779,5.4409,5.349,5.1956,5.1402,5.1423,5.211,5.1981,5.2277,5.3015,5.2941,5.2941,5.2941,5.3011,5.3028,5.3028,5.3098,5.3116,5.3116,5.2909,5.3387,5.4168,5.3893,5.4311,5.5024,5.4878,5.4261,5.3454,5.3129,5.2432,5.1566,5.0526,4.9546,4.8208,4.5187,4.2436,3.983,3.6923,3.3937,2.9555,2.0809,1.5155,0.8085,-0.7177,-1.4995,-1.9925,-2.374,-2.6656,-2.9752,-3.4084,-3.7788,-4.1383,-4.5131,-4.7858,-4.971,-5.0471,0.0,0.0,-5.3612,-5.4534,-5.5316,-5.5767,-5.5923,-5.6029,-5.6082,-5.6149,-5.6194,-5.6199,-5.6265,-5.6302,-5.6302,-5.6358,-5.6426,-5.6488,-5.6491,-5.6528,-5.6601,-5.6528,-5.6504,-5.6504,-5.6449,-5.6407,-5.6425,-5.7094,-5.7686,-5.8237,-5.8837,-5.9415,-5.9918,-5.982,-5.9872,-5.9994,-6.0087,-6.0294,-6.0578,-6.0518,-6.0433,-6.0321,5.6508,5.6511,5.6472,5.6317,5.6265,5.6199,5.6075,5.611,5.611,5.6046,5.6012,5.5922,5.5726,5.603,5.6136,5.5912,5.6102,5.6176,5.6088,5.5569,5.4674,5.3271,5.2768,5.2639,5.2921,5.2828,5.2874,5.3173,5.3173,5.3173,5.319,5.3664,5.3875,5.3892,5.4401,5.463,5.463,5.4554,5.4729,5.5051,5.4951,5.5108,5.5354,5.5217,5.4904,5.4461,5.3712,5.3054,5.2185,5.0101,4.8754,4.7263,4.3522,4.0687,3.7629,3.2161,2.9152,2.6426,2.1203,1.6701,1.1191,0.1983,-0.7588,-1.592,-2.0435,-2.3733,-2.6772,-3.0065,-3.3902,-3.7888,-4.1785,-4.4511,-4.6689,-4.8165,0.0,-5.1268,-5.2072,-5.3345,-5.4476,-5.5161,-5.5583,-5.5866,-5.596,-5.6065,-5.6164,-5.6199,-5.6309,-5.6356,-5.6358,-5.6437,-5.6464,-5.6496,-5.6488,-5.6509,-5.6542,-5.6504,-5.6497,-5.6503,-5.6425,-5.667,-5.715,-5.7358,-5.8056,-5.9166,-5.923,-5.9576,-6.0057,-5.9937,-5.9904,-5.995,-6.0099,-6.0323,-6.0552,-6.0585,-6.0585,-6.0487,5.6497,5.6485,5.6426,5.629,5.6199,5.6075,5.5959,5.5995,5.6012,5.5959,5.6191,5.6309,5.6191,5.6764,5.7111,5.6946,5.7184,5.7319,5.7256,5.6865,5.5943,5.4287,5.3833,5.3742,5.3954,5.3767,5.3778,5.3967,5.3967,5.391,5.3928,5.4437,5.4682,5.47,5.5262,5.5507,5.5507,5.5507,5.5507,5.5507,5.5507,5.5448,5.5371,5.5217,5.5018,5.4755,5.3798,5.3061,5.2184,4.9649,4.8004,4.6356,4.2384,3.8614,3.4576,2.8755,2.5952,2.4146,2.1018,1.7297,1.2926,0.7286,-0.1691,-1.0426,-1.5599,-1.8707,-2.1414,-2.4546,-2.8529,-3.2828,-3.7396,-4.092,-4.3932,-4.603,-4.8068,-4.9698,-5.0708,-5.2328,-5.3711,-5.4538,-5.5224,-5.5665,-5.5808,-5.6012,-5.6126,-5.6213,-5.6333,-5.6417,-5.6417,-5.6474,-5.6492,-5.6508,-5.65,-5.6511,-5.6495,-5.6499,-5.6499,-5.6496,-5.6708,-5.7078,-5.7616,-5.8042,-5.8789,-5.9727,-5.9765,-5.9913,-6.0159,-5.9994,-5.9918,-5.995,-6.0099,-6.0323,-6.0552,-6.0685,-6.0729,-6.068,5.6516,5.6445,5.6358,5.6226,5.6094,5.5959,5.5826,5.5866,5.5885,5.5826,5.6559,5.708,5.7014,5.7618,5.7985,5.7905,5.7604,5.768,5.8257,5.8322,5.7244,5.4863,5.4371,5.4524,5.5205,5.4803,5.4966,5.5706,5.5566,5.5507,5.5507,5.5507,5.5507,5.5507,5.5507,5.5507,5.5507,5.5507,5.5507,5.5507,5.5507,5.5354,5.5199,5.5035,5.4665,5.4059,5.3146,5.2262,5.1287,4.92,4.7498,4.5652,4.1896,3.6164,3.0179,2.6831,2.5264,2.3876,2.1085,1.8431,1.4672,0.721,0.2178,-0.2439,-0.7958,-1.0054,-1.2093,-1.6446,-2.0764,-2.543,-3.1417,-3.6897,-4.1464,-4.4098,-4.6548,-4.8568,-4.9743,-5.1549,-5.3119,-5.4003,-5.4857,-5.5477,-5.567,-5.5935,-5.6151,-5.6291,-5.6367,-5.6426,-5.6503,-5.6503,-5.6503,-5.6503,-5.65,-5.6498,-5.6508,-5.6503,-5.6501,-5.6523,-5.7331,-5.7672,-5.7679,-5.9347,-5.9982,-5.9861,-6.0494,-6.0608,-6.0293,-6.0068,-5.9994,-5.9994,-6.0068,-6.0294,-6.0604,-6.0753,-6.0846,-6.0888,5.6497,5.6459,5.6329,5.616,5.6563,5.6849,5.6671,5.7174,5.758,5.7559,5.7812,5.7986,5.7923,5.8558,5.893,5.8827,5.9188,5.9368,5.916,5.9028,5.8524,5.7457,5.6625,5.6183,5.6188,5.5879,5.5724,5.5706,5.5666,5.5607,5.5507,5.5507,5.5507,5.5507,5.5507,5.5507,5.5507,5.5507,5.5507,5.5507,5.5507,5.5354,5.5199,5.5035,5.4745,5.4222,5.3009,5.1767,5.0253,4.776,4.5902,4.385,3.9728,3.5822,3.2064,2.8602,2.6524,2.4671,2.1701,1.8854,1.5282,0.9184,0.3871,-0.1217,-0.6115,-0.931,-1.2449,-1.6768,-2.1018,-2.5848,-3.1659,-3.6637,-4.0703,-4.3587,-4.5586,-4.7258,-4.8506,-5.0293,-5.1806,-5.2724,-5.388,-5.4703,-5.5031,-5.5484,-5.5844,-5.6067,-5.6283,-5.6426,-5.6503,-5.6503,-5.6503,-5.6503,-5.6492,-5.6496,-5.6504,-5.6493,-5.6772,-5.733,-5.7585,-5.8312,-5.9444,-5.9876,-6.0347,-6.0787,-6.0886,-6.0792,-6.0565,-6.0313,-6.0159,-6.0068,-6.0099,-6.0217,-6.0414,-6.066,-6.08,-6.0911,5.6946,5.6939,5.6933,5.7058,5.7475,5.7719,5.7511,5.7956,5.8264,5.8219,5.8553,5.8767,5.87,5.9374,5.9792,5.9714,6.0074,6.0125,5.9696,5.9524,5.9253,5.8809,5.8113,5.7498,5.7003,5.6617,5.6255,5.5897,5.5764,5.5607,5.5507,5.5507,5.5507,5.5507,5.5507,5.5507,5.5507,5.5507,5.5507,5.5507,5.5507,5.5371,5.5079,5.479,5.4333,5.3649,5.2295,5.0806,4.9171,4.6766,4.4478,4.2141,3.8693,3.5899,3.338,2.994,2.7352,2.4979,2.226,1.9771,1.665,1.1872,0.5954,0.0,-0.4889,-0.8566,-1.2196,-1.6868,-2.1257,-2.5991,-3.178,-3.6506,-4.0478,-4.3509,-4.5342,-4.6747,-4.8028,-4.9654,-5.115,-5.2015,-5.3283,-5.4251,-5.4652,-5.523,-5.5731,-5.6048,-5.6251,-5.6388,-5.6456,-5.6456,-5.6465,-5.6455,-5.6455,-5.6464,-5.6503,-5.6504,-5.6756,-5.727,-5.7927,-5.8871,-6.004,-6.0436,-6.0832,-6.1242,-6.1117,-6.0962,-6.0762,-6.0546,-6.0387,-6.0294,-6.0237,-6.0294,-6.0441,-6.066,-6.0823,-6.0955,5.7762,5.781,5.7923,5.8498,5.862,5.8548,5.835,5.8427,5.8485,5.8347,5.9029,5.9489,5.9415,6.0047,6.0499,6.0499,6.038,6.0205,5.995,5.9815,5.954,5.9178,5.8986,5.8498,5.7726,5.7083,5.6599,5.6253,5.5897,5.5666,5.5507,5.5507,5.5507,5.5507,5.5507,5.5507,5.5507,5.5507,5.5507,5.5507,5.5507,5.5312,5.493,5.4379,5.3632,5.2647,5.1294,4.9805,4.808,4.581,4.3245,4.0567,3.8582,3.6476,3.4216,3.0915,2.7875,2.5163,2.2904,2.0835,1.8441,1.4739,0.8238,0.1464,-0.3907,-0.7823,-1.1819,-1.6856,-2.1361,-2.6203,-3.2075,-3.6793,-4.0816,-4.3743,-4.5504,-4.6848,-4.7917,-4.9485,-5.0823,-5.1674,-5.2978,-5.394,-5.4355,-5.5103,-5.5731,-5.6121,-5.6226,-5.6302,-5.6375,-5.6386,-5.6397,-5.6378,-5.6398,-5.6446,-5.6508,-5.6797,-5.6911,-5.6849,-5.8378,-5.9416,-5.999,-6.097,-6.1363,-6.1302,-6.1225,-6.108,-6.0899,-6.0762,-6.066,-6.0604,-6.0472,-6.0499,-6.0629,-6.0734,-6.0869,-6.0997,5.8783,5.8745,5.8684,5.861,5.9121,5.9456,5.9265,5.9819,6.0238,6.0147,6.0301,6.0392,6.0335,6.0437,6.0499,6.0499,6.038,6.0284,6.0205,6.0045,5.9847,5.9734,5.9491,5.9101,5.854,5.7784,5.7138,5.6492,5.6235,5.5954,5.5648,5.5566,5.5507,5.5507,5.5507,5.5507,5.5507,5.5507,5.5507,5.5507,5.5507,5.5312,5.493,5.4379,5.3632,5.2647,5.1294,4.9551,4.7428,4.3948,4.1927,4.0567,3.8816,3.7061,3.4913,3.2054,2.9118,2.6136,2.3855,2.152,1.879,1.5684,1.066,0.4867,-0.1588,-0.6819,-1.2026,-1.798,-2.2774,-2.7767,-3.372,-3.8007,-4.1501,-4.4236,-4.5608,-4.6689,-4.7671,-4.8972,-5.0111,-5.0876,-5.204,-5.3051,-5.3665,-5.4674,-5.5435,-5.5769,-5.5968,-5.6117,-5.6226,-5.6297,-5.6321,-5.6333,-5.6425,-5.6485,-5.6494,-5.9147,-5.9837,-5.8554,-5.8987,-5.9884,-6.1217,-6.1401,-6.1454,-6.1366,-6.1252,-6.1154,-6.1059,-6.0918,-6.0785,-6.066,-6.0604,-6.0578,-6.0629,-6.0695,-6.0831,-6.0997,5.9636,5.9662,5.9668,5.9813,6.0147,6.0345,6.0153,6.0512,6.0757,6.068,6.0655,6.061,6.0525,6.0472,6.0444,6.0444,6.0408,6.0323,6.0313,6.0186,6.0064,5.9885,5.9719,5.9383,5.8887,5.8238,5.7565,5.6794,5.6437,5.6067,5.5706,5.5607,5.5566,5.5507,5.5507,5.5507,5.5507,5.5507,5.5507,5.5507,5.5431,5.5174,5.479,5.4059,5.3129,5.2048,5.0659,4.863,4.6064,4.3245,4.1756,4.0769,3.9117,3.7394,3.5387,3.2654,2.9644,2.672,2.444,2.2103,1.9688,1.6624,1.2357,0.6981,0.0,-0.5535,-1.0789,-1.6961,-2.1792,-2.674,-3.2598,-3.691,-4.0562,-4.3416,-4.5005,-4.6198,-4.7118,-4.8572,-4.978,-5.0552,-5.171,-5.3023,-5.441,-5.5164,-5.5859,-5.6694,-5.6964,-5.704,-5.6875,-5.7188,-5.7421,-5.7435,-5.7541,-5.8037,-5.8907,-6.0711,-6.1185,-6.0347,-6.0371,-6.0828,-6.1642,-6.1607,-6.1539,-6.1441,-6.1308,-6.1181,-6.1099,-6.1022,-6.0941,-6.0831,-6.0757,-6.0753,-6.08,-6.0792,-6.092,-6.1099,6.047,6.0559,6.065,6.1132,6.1152,6.1021,6.0827,6.08,6.0753,6.0629,6.0604,6.0552,6.0417,6.0417,6.0389,6.0389,6.0389,6.038,6.0323,6.0313,6.0205,5.995,5.9782,5.9508,5.9024,5.8558,5.7895,5.7054,5.6635,5.6217,5.5706,5.5706,5.5607,5.5507,5.5507,5.5507,5.5507,5.5507,5.5507,5.5507,5.5277,5.5018,5.4586,5.3798,5.2717,5.1451,5.0025,4.7628,4.4897,4.3108,4.2052,4.1159,3.9519,3.7701,3.5847,3.3014,2.9868,2.6936,2.454,2.2341,2.015,1.7362,1.3259,0.8253,0.1508,-0.4004,-0.9347,-1.5477,-2.0153,-2.4966,-3.0503,-3.4994,-3.8999,-4.2222,-4.422,-4.5829,-4.6872,-4.8477,-4.9881,-5.0732,-5.2054,-5.3683,-5.5561,-5.5927,-5.6543,-5.771,-5.8069,-5.8036,-5.7602,-5.8297,-5.8678,-5.8654,-5.8998,-5.9963,-6.1538,-6.1557,-6.1615,-6.168,-6.1694,-6.1698,-6.1694,-6.1694,-6.1634,-6.1534,-6.1382,-6.125,-6.1148,-6.1134,-6.1079,-6.1022,-6.0959,-6.0957,-6.0978,-6.0939,-6.1041,-6.121,6.1433,6.1389,6.1303,6.1229,6.1152,6.1021,6.0827,6.08,6.0777,6.0704,6.0655,6.0578,6.0499,6.0444,6.0389,6.0389,6.0389,6.0389,6.0408,6.0323,6.0216,6.0087,5.9847,5.9524,5.9102,5.8582,5.7987,5.7356,5.6847,5.631,5.5861,5.5764,5.5607,5.5507,5.5507,5.5507,5.5507,5.5507,5.5507,5.5507,5.5277,5.5018,5.4648,5.3963,5.2991,5.1736,5.0274,4.7897,4.5216,4.341,4.2457,4.167,4.002,3.8348,3.6402,3.3342,3.0083,2.679,2.4039,2.1328,1.8932,1.6953,1.3105,0.844,0.3883,-0.2302,-0.8884,-1.4829,-1.9586,-2.4197,-2.9682,-3.4064,-3.7986,-4.1639,-4.4053,-4.6003,-4.7596,-4.9263,-5.0744,-5.1889,-5.3719,-5.5129,-5.5798,-5.637,-5.6851,-5.7351,-5.7737,-5.778,-5.7463,-5.8484,-5.8915,-5.8451,-5.9973,-6.098,-6.1415,-6.1445,-6.1481,-6.1612,-6.1673,-6.1694,-6.1698,-6.1704,-6.1691,-6.1654,-6.1479,-6.1383,-6.1352,-6.1229,-6.1184,-6.1173,-6.1155,-6.108,-6.1002,-6.1002,-6.108,-6.121,6.1602,6.1545,6.144,6.1248,6.1152,6.1021,6.0827,6.08,6.0777,6.071,6.066,6.0629,6.0525,6.0444,6.0389,6.0389,6.0389,6.0389,6.0389,6.0361,6.0275,6.0118,5.9931,5.9578,5.9102,5.8582,5.8033,5.7486,5.6984,5.6492,5.6049,5.5879,5.5764,5.5607,5.5507,5.5507,5.5507,5.5507,5.5507,5.5507,5.5277,5.4957,5.4477,5.3815,5.2767,5.1369,4.9135,4.7261,4.558,4.3871,4.2819,4.194,4.0338,3.8675,3.6738,3.3925,3.078,2.7475,2.424,2.1427,1.8804,1.6726,1.3021,0.8764,0.4475,-0.1309,-0.7411,-1.2987,-1.7841,-2.2628,-2.7729,-3.2494,-3.6621,-3.9997,-4.2855,-4.5122,-4.6278,-4.8336,-5.0442,-5.2521,-5.4007,-5.5247,-5.6231,-5.68,-5.751,-5.8408,-5.8774,-5.8997,-5.9063,-5.9691,-5.9961,-5.9752,-6.0577,-6.1115,-6.1227,-6.1332,-6.1472,-6.1597,-6.1673,-6.1693,-6.1701,-6.1698,-6.1694,-6.1697,-6.1602,-6.1558,-6.1498,-6.1376,-6.1289,-6.1268,-6.1255,-6.1225,-6.1173,-6.1173,-6.1208,-6.1259]}]]